<?xml version="1.0" encoding="UTF-8" standalone="no" ?>
<gpx xmlns="http://www.topografix.com/GPX/1/1" xmlns:xsi="http://www.w3.org/2001/XMLSchema-instance" xsi:schemaLocation="http://www.topografix.com/GPX/1/1 http://www.topografix.com/GPX/1/1/gpx.xsd" version="1.1" creator="VisuGPX - https://www.visugpx.com">
  <metadata>
    <name>GR52</name>
  </metadata>
  <trk>
    <name><![CDATA[20171017105021-22F3R]]></name>
    <trkseg>
      <trkpt lat="44.1145" lon="7.28822">
        <ele>1523.1</ele>
        <time>2017-08-26T05:53:47Z</time>
      </trkpt>
      <trkpt lat="44.11465" lon="7.28824">
        <ele>1529.8</ele>
        <time>2017-08-26T05:54:05Z</time>
      </trkpt>
      <trkpt lat="44.11467" lon="7.28826">
        <ele>1530.7</ele>
        <time>2017-08-26T05:54:27Z</time>
      </trkpt>
      <trkpt lat="44.11471" lon="7.28828">
        <ele>1532.5</ele>
        <time>2017-08-26T05:54:41Z</time>
      </trkpt>
      <trkpt lat="44.11479" lon="7.28843">
        <ele>1536.4</ele>
        <time>2017-08-26T05:54:58Z</time>
      </trkpt>
      <trkpt lat="44.11483" lon="7.28858">
        <ele>1538.6</ele>
        <time>2017-08-26T05:55:13Z</time>
      </trkpt>
      <trkpt lat="44.11487" lon="7.28874">
        <ele>1540.6</ele>
        <time>2017-08-26T05:55:29Z</time>
      </trkpt>
      <trkpt lat="44.11489" lon="7.28888">
        <ele>1541.8</ele>
        <time>2017-08-26T05:55:43Z</time>
      </trkpt>
      <trkpt lat="44.11497" lon="7.28888">
        <ele>1545.6</ele>
        <time>2017-08-26T05:55:57Z</time>
      </trkpt>
      <trkpt lat="44.11498" lon="7.28889">
        <ele>1546.1</ele>
        <time>2017-08-26T05:56:15Z</time>
      </trkpt>
      <trkpt lat="44.11509" lon="7.28901">
        <ele>1551.2</ele>
        <time>2017-08-26T05:56:33Z</time>
      </trkpt>
      <trkpt lat="44.11513" lon="7.28915">
        <ele>1553.1</ele>
        <time>2017-08-26T05:56:48Z</time>
      </trkpt>
      <trkpt lat="44.11523" lon="7.28927">
        <ele>1557.7</ele>
        <time>2017-08-26T05:57:04Z</time>
      </trkpt>
      <trkpt lat="44.11531" lon="7.28943">
        <ele>1561.4</ele>
        <time>2017-08-26T05:57:20Z</time>
      </trkpt>
      <trkpt lat="44.11537" lon="7.28951">
        <ele>1564</ele>
        <time>2017-08-26T05:57:35Z</time>
      </trkpt>
      <trkpt lat="44.11549" lon="7.28967">
        <ele>1569.2</ele>
        <time>2017-08-26T05:57:54Z</time>
      </trkpt>
      <trkpt lat="44.11553" lon="7.28994">
        <ele>1571.7</ele>
        <time>2017-08-26T05:58:11Z</time>
      </trkpt>
      <trkpt lat="44.11553" lon="7.29014">
        <ele>1571.4</ele>
        <time>2017-08-26T05:58:27Z</time>
      </trkpt>
      <trkpt lat="44.11562" lon="7.29023">
        <ele>1574.7</ele>
        <time>2017-08-26T05:58:43Z</time>
      </trkpt>
      <trkpt lat="44.11574" lon="7.29025">
        <ele>1579.4</ele>
        <time>2017-08-26T05:58:59Z</time>
      </trkpt>
      <trkpt lat="44.11578" lon="7.29022">
        <ele>1581.1</ele>
        <time>2017-08-26T05:59:13Z</time>
      </trkpt>
      <trkpt lat="44.1158" lon="7.29028">
        <ele>1581.7</ele>
        <time>2017-08-26T05:59:25Z</time>
      </trkpt>
      <trkpt lat="44.11586" lon="7.29037">
        <ele>1583.9</ele>
        <time>2017-08-26T05:59:41Z</time>
      </trkpt>
      <trkpt lat="44.11596" lon="7.29044">
        <ele>1588.2</ele>
        <time>2017-08-26T05:59:58Z</time>
      </trkpt>
      <trkpt lat="44.116" lon="7.29048">
        <ele>1589.9</ele>
        <time>2017-08-26T06:00:13Z</time>
      </trkpt>
      <trkpt lat="44.11599" lon="7.2905">
        <ele>1589.4</ele>
        <time>2017-08-26T06:00:31Z</time>
      </trkpt>
      <trkpt lat="44.11607" lon="7.29057">
        <ele>1593.1</ele>
        <time>2017-08-26T06:00:47Z</time>
      </trkpt>
      <trkpt lat="44.11611" lon="7.29065">
        <ele>1594.9</ele>
        <time>2017-08-26T06:01:03Z</time>
      </trkpt>
      <trkpt lat="44.11619" lon="7.29079">
        <ele>1599.2</ele>
        <time>2017-08-26T06:01:20Z</time>
      </trkpt>
      <trkpt lat="44.11629" lon="7.29094">
        <ele>1604.9</ele>
        <time>2017-08-26T06:01:34Z</time>
      </trkpt>
      <trkpt lat="44.11632" lon="7.29109">
        <ele>1607</ele>
        <time>2017-08-26T06:01:52Z</time>
      </trkpt>
      <trkpt lat="44.11631" lon="7.29113">
        <ele>1606.6</ele>
        <time>2017-08-26T06:02:11Z</time>
      </trkpt>
      <trkpt lat="44.11635" lon="7.29125">
        <ele>1609.7</ele>
        <time>2017-08-26T06:02:29Z</time>
      </trkpt>
      <trkpt lat="44.11637" lon="7.29134">
        <ele>1611.5</ele>
        <time>2017-08-26T06:02:42Z</time>
      </trkpt>
      <trkpt lat="44.11638" lon="7.29145">
        <ele>1612.9</ele>
        <time>2017-08-26T06:02:56Z</time>
      </trkpt>
      <trkpt lat="44.1164" lon="7.29164">
        <ele>1615.5</ele>
        <time>2017-08-26T06:03:10Z</time>
      </trkpt>
      <trkpt lat="44.11645" lon="7.2919">
        <ele>1619.6</ele>
        <time>2017-08-26T06:03:26Z</time>
      </trkpt>
      <trkpt lat="44.11651" lon="7.29208">
        <ele>1623.2</ele>
        <time>2017-08-26T06:03:43Z</time>
      </trkpt>
      <trkpt lat="44.11652" lon="7.29219">
        <ele>1623.6</ele>
        <time>2017-08-26T06:03:59Z</time>
      </trkpt>
      <trkpt lat="44.11656" lon="7.29225">
        <ele>1625.8</ele>
        <time>2017-08-26T06:04:19Z</time>
      </trkpt>
      <trkpt lat="44.1166" lon="7.29227">
        <ele>1628.1</ele>
        <time>2017-08-26T06:04:36Z</time>
      </trkpt>
      <trkpt lat="44.11664" lon="7.29226">
        <ele>1630.4</ele>
        <time>2017-08-26T06:04:52Z</time>
      </trkpt>
      <trkpt lat="44.11673" lon="7.29244">
        <ele>1635.1</ele>
        <time>2017-08-26T06:05:09Z</time>
      </trkpt>
      <trkpt lat="44.11673" lon="7.29246">
        <ele>1635.1</ele>
        <time>2017-08-26T06:05:27Z</time>
      </trkpt>
      <trkpt lat="44.1167" lon="7.29263">
        <ele>1633.9</ele>
        <time>2017-08-26T06:05:44Z</time>
      </trkpt>
      <trkpt lat="44.11661" lon="7.29278">
        <ele>1630.2</ele>
        <time>2017-08-26T06:06:01Z</time>
      </trkpt>
      <trkpt lat="44.11647" lon="7.29304">
        <ele>1625.9</ele>
        <time>2017-08-26T06:06:15Z</time>
      </trkpt>
      <trkpt lat="44.11644" lon="7.2931">
        <ele>1624.8</ele>
        <time>2017-08-26T06:06:21Z</time>
      </trkpt>
      <trkpt lat="44.11648" lon="7.29333">
        <ele>1628.2</ele>
        <time>2017-08-26T06:06:35Z</time>
      </trkpt>
      <trkpt lat="44.11655" lon="7.29358">
        <ele>1633</ele>
        <time>2017-08-26T06:06:52Z</time>
      </trkpt>
      <trkpt lat="44.11656" lon="7.29366">
        <ele>1634.6</ele>
        <time>2017-08-26T06:07:07Z</time>
      </trkpt>
      <trkpt lat="44.11652" lon="7.29371">
        <ele>1633.8</ele>
        <time>2017-08-26T06:07:20Z</time>
      </trkpt>
      <trkpt lat="44.11655" lon="7.29377">
        <ele>1636.5</ele>
        <time>2017-08-26T06:07:35Z</time>
      </trkpt>
      <trkpt lat="44.11652" lon="7.2938">
        <ele>1635.7</ele>
        <time>2017-08-26T06:07:54Z</time>
      </trkpt>
      <trkpt lat="44.11644" lon="7.29388">
        <ele>1634</ele>
        <time>2017-08-26T06:08:09Z</time>
      </trkpt>
      <trkpt lat="44.11641" lon="7.29389">
        <ele>1633</ele>
        <time>2017-08-26T06:08:25Z</time>
      </trkpt>
      <trkpt lat="44.11637" lon="7.29393">
        <ele>1633.3</ele>
        <time>2017-08-26T06:08:40Z</time>
      </trkpt>
      <trkpt lat="44.11637" lon="7.29393">
        <ele>1633.3</ele>
        <time>2017-08-26T06:08:50Z</time>
      </trkpt>
      <trkpt lat="44.11632" lon="7.29402">
        <ele>1635.9</ele>
        <time>2017-08-26T06:09:01Z</time>
      </trkpt>
      <trkpt lat="44.11633" lon="7.29406">
        <ele>1638</ele>
        <time>2017-08-26T06:09:14Z</time>
      </trkpt>
      <trkpt lat="44.11626" lon="7.29415">
        <ele>1640.4</ele>
        <time>2017-08-26T06:09:30Z</time>
      </trkpt>
      <trkpt lat="44.11622" lon="7.2942">
        <ele>1642</ele>
        <time>2017-08-26T06:09:42Z</time>
      </trkpt>
      <trkpt lat="44.11624" lon="7.29423">
        <ele>1643.9</ele>
        <time>2017-08-26T06:09:59Z</time>
      </trkpt>
      <trkpt lat="44.1163" lon="7.29428">
        <ele>1647.5</ele>
        <time>2017-08-26T06:10:16Z</time>
      </trkpt>
      <trkpt lat="44.11638" lon="7.29431">
        <ele>1650.5</ele>
        <time>2017-08-26T06:10:35Z</time>
      </trkpt>
      <trkpt lat="44.11648" lon="7.29433">
        <ele>1653.5</ele>
        <time>2017-08-26T06:10:53Z</time>
      </trkpt>
      <trkpt lat="44.1165" lon="7.29437">
        <ele>1655.5</ele>
        <time>2017-08-26T06:11:07Z</time>
      </trkpt>
      <trkpt lat="44.11647" lon="7.29438">
        <ele>1655.4</ele>
        <time>2017-08-26T06:11:13Z</time>
      </trkpt>
      <trkpt lat="44.11637" lon="7.29441">
        <ele>1655</ele>
        <time>2017-08-26T06:11:26Z</time>
      </trkpt>
      <trkpt lat="44.11629" lon="7.29443">
        <ele>1654.5</ele>
        <time>2017-08-26T06:11:39Z</time>
      </trkpt>
      <trkpt lat="44.11621" lon="7.29447">
        <ele>1655</ele>
        <time>2017-08-26T06:11:48Z</time>
      </trkpt>
      <trkpt lat="44.11618" lon="7.29453">
        <ele>1657.2</ele>
        <time>2017-08-26T06:11:54Z</time>
      </trkpt>
      <trkpt lat="44.11616" lon="7.2946">
        <ele>1660.2</ele>
        <time>2017-08-26T06:11:59Z</time>
      </trkpt>
      <trkpt lat="44.1161" lon="7.29471">
        <ele>1664.1</ele>
        <time>2017-08-26T06:12:12Z</time>
      </trkpt>
      <trkpt lat="44.11603" lon="7.29475">
        <ele>1663.6</ele>
        <time>2017-08-26T06:12:25Z</time>
      </trkpt>
      <trkpt lat="44.11595" lon="7.29492">
        <ele>1667.8</ele>
        <time>2017-08-26T06:12:42Z</time>
      </trkpt>
      <trkpt lat="44.11578" lon="7.29505">
        <ele>1665</ele>
        <time>2017-08-26T06:12:57Z</time>
      </trkpt>
      <trkpt lat="44.1157" lon="7.29521">
        <ele>1666.1</ele>
        <time>2017-08-26T06:13:11Z</time>
      </trkpt>
      <trkpt lat="44.11565" lon="7.29531">
        <ele>1666.4</ele>
        <time>2017-08-26T06:13:22Z</time>
      </trkpt>
      <trkpt lat="44.11558" lon="7.29551">
        <ele>1668.2</ele>
        <time>2017-08-26T06:13:36Z</time>
      </trkpt>
      <trkpt lat="44.11554" lon="7.29561">
        <ele>1668.7</ele>
        <time>2017-08-26T06:13:48Z</time>
      </trkpt>
      <trkpt lat="44.11549" lon="7.2957">
        <ele>1668.2</ele>
        <time>2017-08-26T06:14:05Z</time>
      </trkpt>
      <trkpt lat="44.11548" lon="7.29574">
        <ele>1668.7</ele>
        <time>2017-08-26T06:14:20Z</time>
      </trkpt>
      <trkpt lat="44.11545" lon="7.296">
        <ele>1674.2</ele>
        <time>2017-08-26T06:14:31Z</time>
      </trkpt>
      <trkpt lat="44.1153" lon="7.29631">
        <ele>1673</ele>
        <time>2017-08-26T06:14:48Z</time>
      </trkpt>
      <trkpt lat="44.11525" lon="7.29646">
        <ele>1674</ele>
        <time>2017-08-26T06:14:59Z</time>
      </trkpt>
      <trkpt lat="44.1152" lon="7.29674">
        <ele>1678.2</ele>
        <time>2017-08-26T06:15:13Z</time>
      </trkpt>
      <trkpt lat="44.11508" lon="7.29699">
        <ele>1675.8</ele>
        <time>2017-08-26T06:15:28Z</time>
      </trkpt>
      <trkpt lat="44.11507" lon="7.29701">
        <ele>1675.5</ele>
        <time>2017-08-26T06:15:29Z</time>
      </trkpt>
      <trkpt lat="44.11501" lon="7.2972">
        <ele>1675.3</ele>
        <time>2017-08-26T06:15:43Z</time>
      </trkpt>
      <trkpt lat="44.11495" lon="7.29741">
        <ele>1674.7</ele>
        <time>2017-08-26T06:15:59Z</time>
      </trkpt>
      <trkpt lat="44.11491" lon="7.29758">
        <ele>1674.2</ele>
        <time>2017-08-26T06:16:08Z</time>
      </trkpt>
      <trkpt lat="44.11488" lon="7.2978">
        <ele>1674.6</ele>
        <time>2017-08-26T06:16:22Z</time>
      </trkpt>
      <trkpt lat="44.11484" lon="7.29789">
        <ele>1672.7</ele>
        <time>2017-08-26T06:16:30Z</time>
      </trkpt>
      <trkpt lat="44.11475" lon="7.29808">
        <ele>1668.4</ele>
        <time>2017-08-26T06:16:45Z</time>
      </trkpt>
      <trkpt lat="44.11475" lon="7.29811">
        <ele>1668.8</ele>
        <time>2017-08-26T06:16:47Z</time>
      </trkpt>
      <trkpt lat="44.11471" lon="7.29836">
        <ele>1669.5</ele>
        <time>2017-08-26T06:16:59Z</time>
      </trkpt>
      <trkpt lat="44.1147" lon="7.29841">
        <ele>1669.6</ele>
        <time>2017-08-26T06:17:01Z</time>
      </trkpt>
      <trkpt lat="44.11469" lon="7.29866">
        <ele>1672.4</ele>
        <time>2017-08-26T06:17:14Z</time>
      </trkpt>
      <trkpt lat="44.1147" lon="7.29881">
        <ele>1675.3</ele>
        <time>2017-08-26T06:17:24Z</time>
      </trkpt>
      <trkpt lat="44.11461" lon="7.29889">
        <ele>1670.4</ele>
        <time>2017-08-26T06:17:35Z</time>
      </trkpt>
      <trkpt lat="44.1146" lon="7.29909">
        <ele>1674.4</ele>
        <time>2017-08-26T06:17:51Z</time>
      </trkpt>
      <trkpt lat="44.11453" lon="7.29915">
        <ele>1670.8</ele>
        <time>2017-08-26T06:17:58Z</time>
      </trkpt>
      <trkpt lat="44.11449" lon="7.29917">
        <ele>1668.4</ele>
        <time>2017-08-26T06:18:03Z</time>
      </trkpt>
      <trkpt lat="44.11443" lon="7.29937">
        <ele>1669.1</ele>
        <time>2017-08-26T06:18:16Z</time>
      </trkpt>
      <trkpt lat="44.11437" lon="7.29956">
        <ele>1669.4</ele>
        <time>2017-08-26T06:18:32Z</time>
      </trkpt>
      <trkpt lat="44.11432" lon="7.29974">
        <ele>1669.8</ele>
        <time>2017-08-26T06:18:47Z</time>
      </trkpt>
      <trkpt lat="44.11431" lon="7.2998">
        <ele>1670.1</ele>
        <time>2017-08-26T06:19:02Z</time>
      </trkpt>
      <trkpt lat="44.11426" lon="7.3">
        <ele>1669.7</ele>
        <time>2017-08-26T06:19:16Z</time>
      </trkpt>
      <trkpt lat="44.11423" lon="7.30017">
        <ele>1671.1</ele>
        <time>2017-08-26T06:19:27Z</time>
      </trkpt>
      <trkpt lat="44.11422" lon="7.30029">
        <ele>1672.9</ele>
        <time>2017-08-26T06:19:40Z</time>
      </trkpt>
      <trkpt lat="44.11418" lon="7.30045">
        <ele>1673.7</ele>
        <time>2017-08-26T06:19:57Z</time>
      </trkpt>
      <trkpt lat="44.11413" lon="7.30065">
        <ele>1674.6</ele>
        <time>2017-08-26T06:20:11Z</time>
      </trkpt>
      <trkpt lat="44.11401" lon="7.30091">
        <ele>1671.7</ele>
        <time>2017-08-26T06:20:25Z</time>
      </trkpt>
      <trkpt lat="44.11392" lon="7.30111">
        <ele>1669.1</ele>
        <time>2017-08-26T06:20:38Z</time>
      </trkpt>
      <trkpt lat="44.1139" lon="7.30126">
        <ele>1668.8</ele>
        <time>2017-08-26T06:20:48Z</time>
      </trkpt>
      <trkpt lat="44.11383" lon="7.30147">
        <ele>1666.3</ele>
        <time>2017-08-26T06:21:04Z</time>
      </trkpt>
      <trkpt lat="44.11383" lon="7.30154">
        <ele>1666.8</ele>
        <time>2017-08-26T06:21:12Z</time>
      </trkpt>
      <trkpt lat="44.11382" lon="7.30165">
        <ele>1667.1</ele>
        <time>2017-08-26T06:21:19Z</time>
      </trkpt>
      <trkpt lat="44.1137" lon="7.30181">
        <ele>1663.2</ele>
        <time>2017-08-26T06:21:36Z</time>
      </trkpt>
      <trkpt lat="44.11365" lon="7.30195">
        <ele>1663.1</ele>
        <time>2017-08-26T06:21:50Z</time>
      </trkpt>
      <trkpt lat="44.11362" lon="7.30209">
        <ele>1665.1</ele>
        <time>2017-08-26T06:22:04Z</time>
      </trkpt>
      <trkpt lat="44.1136" lon="7.30227">
        <ele>1668.8</ele>
        <time>2017-08-26T06:22:17Z</time>
      </trkpt>
      <trkpt lat="44.11352" lon="7.30248">
        <ele>1670.9</ele>
        <time>2017-08-26T06:22:33Z</time>
      </trkpt>
      <trkpt lat="44.11352" lon="7.30248">
        <ele>1670.9</ele>
        <time>2017-08-26T06:22:48Z</time>
      </trkpt>
      <trkpt lat="44.1135" lon="7.30259">
        <ele>1672.7</ele>
        <time>2017-08-26T06:22:59Z</time>
      </trkpt>
      <trkpt lat="44.11346" lon="7.3028">
        <ele>1675.8</ele>
        <time>2017-08-26T06:23:09Z</time>
      </trkpt>
      <trkpt lat="44.11334" lon="7.30309">
        <ele>1674.1</ele>
        <time>2017-08-26T06:23:22Z</time>
      </trkpt>
      <trkpt lat="44.11331" lon="7.30323">
        <ele>1675</ele>
        <time>2017-08-26T06:23:35Z</time>
      </trkpt>
      <trkpt lat="44.11331" lon="7.30329">
        <ele>1676.1</ele>
        <time>2017-08-26T06:23:39Z</time>
      </trkpt>
      <trkpt lat="44.11332" lon="7.30332">
        <ele>1677.1</ele>
        <time>2017-08-26T06:23:42Z</time>
      </trkpt>
      <trkpt lat="44.11329" lon="7.3035">
        <ele>1678.7</ele>
        <time>2017-08-26T06:23:55Z</time>
      </trkpt>
      <trkpt lat="44.11324" lon="7.3037">
        <ele>1679.7</ele>
        <time>2017-08-26T06:24:08Z</time>
      </trkpt>
      <trkpt lat="44.11319" lon="7.30389">
        <ele>1680.2</ele>
        <time>2017-08-26T06:24:23Z</time>
      </trkpt>
      <trkpt lat="44.11313" lon="7.30402">
        <ele>1678.9</ele>
        <time>2017-08-26T06:24:36Z</time>
      </trkpt>
      <trkpt lat="44.11304" lon="7.30415">
        <ele>1676</ele>
        <time>2017-08-26T06:24:48Z</time>
      </trkpt>
      <trkpt lat="44.11302" lon="7.30424">
        <ele>1676.6</ele>
        <time>2017-08-26T06:24:54Z</time>
      </trkpt>
      <trkpt lat="44.11298" lon="7.30454">
        <ele>1680.2</ele>
        <time>2017-08-26T06:25:09Z</time>
      </trkpt>
      <trkpt lat="44.11291" lon="7.30471">
        <ele>1679.9</ele>
        <time>2017-08-26T06:25:22Z</time>
      </trkpt>
      <trkpt lat="44.11288" lon="7.30473">
        <ele>1678.7</ele>
        <time>2017-08-26T06:25:24Z</time>
      </trkpt>
      <trkpt lat="44.11272" lon="7.30491">
        <ele>1674</ele>
        <time>2017-08-26T06:25:41Z</time>
      </trkpt>
      <trkpt lat="44.11258" lon="7.30508">
        <ele>1672</ele>
        <time>2017-08-26T06:25:56Z</time>
      </trkpt>
      <trkpt lat="44.11258" lon="7.30511">
        <ele>1672.7</ele>
        <time>2017-08-26T06:26:15Z</time>
      </trkpt>
      <trkpt lat="44.11255" lon="7.30515">
        <ele>1672.3</ele>
        <time>2017-08-26T06:26:17Z</time>
      </trkpt>
      <trkpt lat="44.11249" lon="7.3052">
        <ele>1670.9</ele>
        <time>2017-08-26T06:26:21Z</time>
      </trkpt>
      <trkpt lat="44.11236" lon="7.3055">
        <ele>1671.1</ele>
        <time>2017-08-26T06:26:37Z</time>
      </trkpt>
      <trkpt lat="44.11232" lon="7.30569">
        <ele>1671.7</ele>
        <time>2017-08-26T06:26:49Z</time>
      </trkpt>
      <trkpt lat="44.1123" lon="7.30578">
        <ele>1671.8</ele>
        <time>2017-08-26T06:26:53Z</time>
      </trkpt>
      <trkpt lat="44.11228" lon="7.30582">
        <ele>1671.4</ele>
        <time>2017-08-26T06:26:56Z</time>
      </trkpt>
      <trkpt lat="44.11225" lon="7.30592">
        <ele>1670.2</ele>
        <time>2017-08-26T06:27:03Z</time>
      </trkpt>
      <trkpt lat="44.11225" lon="7.30602">
        <ele>1670.2</ele>
        <time>2017-08-26T06:27:10Z</time>
      </trkpt>
      <trkpt lat="44.11223" lon="7.30612">
        <ele>1669.2</ele>
        <time>2017-08-26T06:27:18Z</time>
      </trkpt>
      <trkpt lat="44.11224" lon="7.30617">
        <ele>1669.1</ele>
        <time>2017-08-26T06:27:24Z</time>
      </trkpt>
      <trkpt lat="44.11232" lon="7.30625">
        <ele>1671.5</ele>
        <time>2017-08-26T06:27:36Z</time>
      </trkpt>
      <trkpt lat="44.11229" lon="7.30628">
        <ele>1670</ele>
        <time>2017-08-26T06:27:41Z</time>
      </trkpt>
      <trkpt lat="44.11222" lon="7.30635">
        <ele>1666.3</ele>
        <time>2017-08-26T06:27:53Z</time>
      </trkpt>
      <trkpt lat="44.11215" lon="7.30638">
        <ele>1663</ele>
        <time>2017-08-26T06:28:06Z</time>
      </trkpt>
      <trkpt lat="44.11213" lon="7.30646">
        <ele>1661.4</ele>
        <time>2017-08-26T06:28:16Z</time>
      </trkpt>
      <trkpt lat="44.11213" lon="7.30651">
        <ele>1661</ele>
        <time>2017-08-26T06:28:20Z</time>
      </trkpt>
      <trkpt lat="44.11217" lon="7.3067">
        <ele>1661.2</ele>
        <time>2017-08-26T06:28:33Z</time>
      </trkpt>
      <trkpt lat="44.11217" lon="7.3067">
        <ele>1661.2</ele>
        <time>2017-08-26T06:28:34Z</time>
      </trkpt>
      <trkpt lat="44.1123" lon="7.30681">
        <ele>1666.2</ele>
        <time>2017-08-26T06:28:42Z</time>
      </trkpt>
      <trkpt lat="44.1123" lon="7.30694">
        <ele>1665</ele>
        <time>2017-08-26T06:28:54Z</time>
      </trkpt>
      <trkpt lat="44.11232" lon="7.3072">
        <ele>1663.2</ele>
        <time>2017-08-26T06:29:10Z</time>
      </trkpt>
      <trkpt lat="44.11237" lon="7.30732">
        <ele>1665.2</ele>
        <time>2017-08-26T06:29:22Z</time>
      </trkpt>
      <trkpt lat="44.11228" lon="7.30749">
        <ele>1657.8</ele>
        <time>2017-08-26T06:29:32Z</time>
      </trkpt>
      <trkpt lat="44.11219" lon="7.30756">
        <ele>1652.5</ele>
        <time>2017-08-26T06:29:44Z</time>
      </trkpt>
      <trkpt lat="44.11217" lon="7.30757">
        <ele>1651.6</ele>
        <time>2017-08-26T06:29:46Z</time>
      </trkpt>
      <trkpt lat="44.1121" lon="7.30764">
        <ele>1648.3</ele>
        <time>2017-08-26T06:29:58Z</time>
      </trkpt>
      <trkpt lat="44.11205" lon="7.30774">
        <ele>1645.9</ele>
        <time>2017-08-26T06:30:07Z</time>
      </trkpt>
      <trkpt lat="44.1119" lon="7.30797">
        <ele>1642.7</ele>
        <time>2017-08-26T06:30:24Z</time>
      </trkpt>
      <trkpt lat="44.11179" lon="7.30813">
        <ele>1641.5</ele>
        <time>2017-08-26T06:30:37Z</time>
      </trkpt>
      <trkpt lat="44.11178" lon="7.30816">
        <ele>1641.7</ele>
        <time>2017-08-26T06:30:39Z</time>
      </trkpt>
      <trkpt lat="44.1117" lon="7.30833">
        <ele>1642.2</ele>
        <time>2017-08-26T06:30:51Z</time>
      </trkpt>
      <trkpt lat="44.11169" lon="7.30835">
        <ele>1642.2</ele>
        <time>2017-08-26T06:31:08Z</time>
      </trkpt>
      <trkpt lat="44.11169" lon="7.30835">
        <ele>1642.2</ele>
        <time>2017-08-26T06:31:31Z</time>
      </trkpt>
      <trkpt lat="44.11155" lon="7.3085">
        <ele>1639.1</ele>
        <time>2017-08-26T06:32:00Z</time>
      </trkpt>
      <trkpt lat="44.11144" lon="7.30877">
        <ele>1638.6</ele>
        <time>2017-08-26T06:32:11Z</time>
      </trkpt>
      <trkpt lat="44.11134" lon="7.30895">
        <ele>1636.4</ele>
        <time>2017-08-26T06:32:26Z</time>
      </trkpt>
      <trkpt lat="44.11132" lon="7.30897">
        <ele>1635.7</ele>
        <time>2017-08-26T06:32:30Z</time>
      </trkpt>
      <trkpt lat="44.11123" lon="7.30916">
        <ele>1633.9</ele>
        <time>2017-08-26T06:32:44Z</time>
      </trkpt>
      <trkpt lat="44.11118" lon="7.3093">
        <ele>1633.4</ele>
        <time>2017-08-26T06:32:57Z</time>
      </trkpt>
      <trkpt lat="44.11119" lon="7.30934">
        <ele>1634.5</ele>
        <time>2017-08-26T06:33:00Z</time>
      </trkpt>
      <trkpt lat="44.11122" lon="7.30954">
        <ele>1638.5</ele>
        <time>2017-08-26T06:33:11Z</time>
      </trkpt>
      <trkpt lat="44.11114" lon="7.30977">
        <ele>1636.8</ele>
        <time>2017-08-26T06:33:24Z</time>
      </trkpt>
      <trkpt lat="44.1111" lon="7.30991">
        <ele>1635.8</ele>
        <time>2017-08-26T06:33:38Z</time>
      </trkpt>
      <trkpt lat="44.11109" lon="7.31006">
        <ele>1636.2</ele>
        <time>2017-08-26T06:33:49Z</time>
      </trkpt>
      <trkpt lat="44.1111" lon="7.31028">
        <ele>1637.5</ele>
        <time>2017-08-26T06:34:04Z</time>
      </trkpt>
      <trkpt lat="44.1111" lon="7.31031">
        <ele>1637.7</ele>
        <time>2017-08-26T06:34:05Z</time>
      </trkpt>
      <trkpt lat="44.11109" lon="7.31039">
        <ele>1637.8</ele>
        <time>2017-08-26T06:34:07Z</time>
      </trkpt>
      <trkpt lat="44.11101" lon="7.31087">
        <ele>1637.2</ele>
        <time>2017-08-26T06:34:21Z</time>
      </trkpt>
      <trkpt lat="44.11103" lon="7.311">
        <ele>1639.3</ele>
        <time>2017-08-26T06:34:31Z</time>
      </trkpt>
      <trkpt lat="44.11103" lon="7.31116">
        <ele>1640.8</ele>
        <time>2017-08-26T06:34:43Z</time>
      </trkpt>
      <trkpt lat="44.11101" lon="7.3112">
        <ele>1640.3</ele>
        <time>2017-08-26T06:34:46Z</time>
      </trkpt>
      <trkpt lat="44.11103" lon="7.31137">
        <ele>1643.3</ele>
        <time>2017-08-26T06:34:59Z</time>
      </trkpt>
      <trkpt lat="44.11105" lon="7.31152">
        <ele>1645.4</ele>
        <time>2017-08-26T06:35:10Z</time>
      </trkpt>
      <trkpt lat="44.11103" lon="7.31164">
        <ele>1645.6</ele>
        <time>2017-08-26T06:35:23Z</time>
      </trkpt>
      <trkpt lat="44.111" lon="7.31178">
        <ele>1646</ele>
        <time>2017-08-26T06:35:33Z</time>
      </trkpt>
      <trkpt lat="44.11095" lon="7.31199">
        <ele>1646.7</ele>
        <time>2017-08-26T06:35:48Z</time>
      </trkpt>
      <trkpt lat="44.11092" lon="7.31216">
        <ele>1647.4</ele>
        <time>2017-08-26T06:36:01Z</time>
      </trkpt>
      <trkpt lat="44.1109" lon="7.31221">
        <ele>1647.3</ele>
        <time>2017-08-26T06:36:04Z</time>
      </trkpt>
      <trkpt lat="44.1108" lon="7.31236">
        <ele>1645.6</ele>
        <time>2017-08-26T06:36:17Z</time>
      </trkpt>
      <trkpt lat="44.1108" lon="7.31237">
        <ele>1645.7</ele>
        <time>2017-08-26T06:36:18Z</time>
      </trkpt>
      <trkpt lat="44.11073" lon="7.3125">
        <ele>1645.4</ele>
        <time>2017-08-26T06:36:27Z</time>
      </trkpt>
      <trkpt lat="44.11071" lon="7.31255">
        <ele>1645.5</ele>
        <time>2017-08-26T06:36:44Z</time>
      </trkpt>
      <trkpt lat="44.11067" lon="7.31259">
        <ele>1645</ele>
        <time>2017-08-26T06:36:58Z</time>
      </trkpt>
      <trkpt lat="44.11058" lon="7.31266">
        <ele>1643.4</ele>
        <time>2017-08-26T06:37:14Z</time>
      </trkpt>
      <trkpt lat="44.1105" lon="7.31274">
        <ele>1642.8</ele>
        <time>2017-08-26T06:37:28Z</time>
      </trkpt>
      <trkpt lat="44.11027" lon="7.31299">
        <ele>1642.2</ele>
        <time>2017-08-26T06:37:40Z</time>
      </trkpt>
      <trkpt lat="44.11022" lon="7.31306">
        <ele>1642.7</ele>
        <time>2017-08-26T06:37:54Z</time>
      </trkpt>
      <trkpt lat="44.11012" lon="7.3132">
        <ele>1644.2</ele>
        <time>2017-08-26T06:38:08Z</time>
      </trkpt>
      <trkpt lat="44.11004" lon="7.31347">
        <ele>1647.5</ele>
        <time>2017-08-26T06:38:21Z</time>
      </trkpt>
      <trkpt lat="44.10998" lon="7.31368">
        <ele>1650.3</ele>
        <time>2017-08-26T06:38:35Z</time>
      </trkpt>
      <trkpt lat="44.10996" lon="7.31376">
        <ele>1651.6</ele>
        <time>2017-08-26T06:38:47Z</time>
      </trkpt>
      <trkpt lat="44.10996" lon="7.31376">
        <ele>1651.6</ele>
        <time>2017-08-26T06:39:01Z</time>
      </trkpt>
      <trkpt lat="44.10985" lon="7.31391">
        <ele>1653.3</ele>
        <time>2017-08-26T06:39:14Z</time>
      </trkpt>
      <trkpt lat="44.10979" lon="7.31419">
        <ele>1656.7</ele>
        <time>2017-08-26T06:39:29Z</time>
      </trkpt>
      <trkpt lat="44.1097" lon="7.31435">
        <ele>1658.2</ele>
        <time>2017-08-26T06:39:42Z</time>
      </trkpt>
      <trkpt lat="44.10965" lon="7.31451">
        <ele>1660.5</ele>
        <time>2017-08-26T06:39:55Z</time>
      </trkpt>
      <trkpt lat="44.10958" lon="7.31454">
        <ele>1660.3</ele>
        <time>2017-08-26T06:40:07Z</time>
      </trkpt>
      <trkpt lat="44.1095" lon="7.31462">
        <ele>1660.5</ele>
        <time>2017-08-26T06:40:20Z</time>
      </trkpt>
      <trkpt lat="44.1094" lon="7.31461">
        <ele>1660.1</ele>
        <time>2017-08-26T06:40:35Z</time>
      </trkpt>
      <trkpt lat="44.10927" lon="7.31464">
        <ele>1661.3</ele>
        <time>2017-08-26T06:40:49Z</time>
      </trkpt>
      <trkpt lat="44.10924" lon="7.31463">
        <ele>1661.5</ele>
        <time>2017-08-26T06:40:53Z</time>
      </trkpt>
      <trkpt lat="44.1092" lon="7.31454">
        <ele>1661.6</ele>
        <time>2017-08-26T06:41:06Z</time>
      </trkpt>
      <trkpt lat="44.10918" lon="7.31451">
        <ele>1661.8</ele>
        <time>2017-08-26T06:41:16Z</time>
      </trkpt>
      <trkpt lat="44.1092" lon="7.31444">
        <ele>1661.5</ele>
        <time>2017-08-26T06:41:22Z</time>
      </trkpt>
      <trkpt lat="44.10922" lon="7.31438">
        <ele>1661.3</ele>
        <time>2017-08-26T06:41:27Z</time>
      </trkpt>
      <trkpt lat="44.10924" lon="7.31434">
        <ele>1661</ele>
        <time>2017-08-26T06:41:40Z</time>
      </trkpt>
      <trkpt lat="44.10926" lon="7.31432">
        <ele>1660.7</ele>
        <time>2017-08-26T06:41:54Z</time>
      </trkpt>
      <trkpt lat="44.10926" lon="7.31432">
        <ele>1660.7</ele>
        <time>2017-08-26T06:42:06Z</time>
      </trkpt>
      <trkpt lat="44.10918" lon="7.31425">
        <ele>1662.4</ele>
        <time>2017-08-26T06:42:21Z</time>
      </trkpt>
      <trkpt lat="44.10915" lon="7.31414">
        <ele>1663.8</ele>
        <time>2017-08-26T06:42:33Z</time>
      </trkpt>
      <trkpt lat="44.10912" lon="7.3141">
        <ele>1665.2</ele>
        <time>2017-08-26T06:42:46Z</time>
      </trkpt>
      <trkpt lat="44.10902" lon="7.31405">
        <ele>1669.1</ele>
        <time>2017-08-26T06:42:58Z</time>
      </trkpt>
      <trkpt lat="44.10899" lon="7.31407">
        <ele>1670.1</ele>
        <time>2017-08-26T06:43:10Z</time>
      </trkpt>
      <trkpt lat="44.10894" lon="7.31402">
        <ele>1672.2</ele>
        <time>2017-08-26T06:43:25Z</time>
      </trkpt>
      <trkpt lat="44.10891" lon="7.31396">
        <ele>1673.7</ele>
        <time>2017-08-26T06:43:40Z</time>
      </trkpt>
      <trkpt lat="44.10883" lon="7.31395">
        <ele>1676.5</ele>
        <time>2017-08-26T06:43:52Z</time>
      </trkpt>
      <trkpt lat="44.10877" lon="7.31394">
        <ele>1678.5</ele>
        <time>2017-08-26T06:44:07Z</time>
      </trkpt>
      <trkpt lat="44.1087" lon="7.31399">
        <ele>1680.4</ele>
        <time>2017-08-26T06:44:17Z</time>
      </trkpt>
      <trkpt lat="44.10866" lon="7.31413">
        <ele>1680.7</ele>
        <time>2017-08-26T06:44:29Z</time>
      </trkpt>
      <trkpt lat="44.10854" lon="7.31418">
        <ele>1683.7</ele>
        <time>2017-08-26T06:44:43Z</time>
      </trkpt>
      <trkpt lat="44.1085" lon="7.31423">
        <ele>1684.2</ele>
        <time>2017-08-26T06:44:55Z</time>
      </trkpt>
      <trkpt lat="44.10841" lon="7.31432">
        <ele>1685.8</ele>
        <time>2017-08-26T06:45:10Z</time>
      </trkpt>
      <trkpt lat="44.1084" lon="7.31434">
        <ele>1685.9</ele>
        <time>2017-08-26T06:45:15Z</time>
      </trkpt>
      <trkpt lat="44.10835" lon="7.3144">
        <ele>1686.8</ele>
        <time>2017-08-26T06:45:27Z</time>
      </trkpt>
      <trkpt lat="44.10826" lon="7.31459">
        <ele>1688.3</ele>
        <time>2017-08-26T06:45:42Z</time>
      </trkpt>
      <trkpt lat="44.1082" lon="7.31464">
        <ele>1690.1</ele>
        <time>2017-08-26T06:45:45Z</time>
      </trkpt>
      <trkpt lat="44.10809" lon="7.3147">
        <ele>1693.8</ele>
        <time>2017-08-26T06:46:02Z</time>
      </trkpt>
      <trkpt lat="44.10805" lon="7.31476">
        <ele>1695.3</ele>
        <time>2017-08-26T06:46:17Z</time>
      </trkpt>
      <trkpt lat="44.10801" lon="7.31487">
        <ele>1697.1</ele>
        <time>2017-08-26T06:46:31Z</time>
      </trkpt>
      <trkpt lat="44.10795" lon="7.31501">
        <ele>1699.9</ele>
        <time>2017-08-26T06:46:42Z</time>
      </trkpt>
      <trkpt lat="44.1079" lon="7.31507">
        <ele>1702.5</ele>
        <time>2017-08-26T06:46:54Z</time>
      </trkpt>
      <trkpt lat="44.10786" lon="7.31517">
        <ele>1705.3</ele>
        <time>2017-08-26T06:47:07Z</time>
      </trkpt>
      <trkpt lat="44.10789" lon="7.31522">
        <ele>1704.8</ele>
        <time>2017-08-26T06:47:24Z</time>
      </trkpt>
      <trkpt lat="44.10795" lon="7.31535">
        <ele>1704.6</ele>
        <time>2017-08-26T06:47:37Z</time>
      </trkpt>
      <trkpt lat="44.10799" lon="7.31553">
        <ele>1706.4</ele>
        <time>2017-08-26T06:47:55Z</time>
      </trkpt>
      <trkpt lat="44.10803" lon="7.31563">
        <ele>1707</ele>
        <time>2017-08-26T06:48:10Z</time>
      </trkpt>
      <trkpt lat="44.1082" lon="7.31587">
        <ele>1705</ele>
        <time>2017-08-26T06:48:27Z</time>
      </trkpt>
      <trkpt lat="44.1082" lon="7.31588">
        <ele>1705.2</ele>
        <time>2017-08-26T06:48:46Z</time>
      </trkpt>
      <trkpt lat="44.10819" lon="7.31587">
        <ele>1705.5</ele>
        <time>2017-08-26T06:49:16Z</time>
      </trkpt>
      <trkpt lat="44.10819" lon="7.31587">
        <ele>1705.5</ele>
        <time>2017-08-26T06:49:45Z</time>
      </trkpt>
      <trkpt lat="44.1082" lon="7.31592">
        <ele>1706.1</ele>
        <time>2017-08-26T06:49:56Z</time>
      </trkpt>
      <trkpt lat="44.10825" lon="7.31605">
        <ele>1706.6</ele>
        <time>2017-08-26T06:50:10Z</time>
      </trkpt>
      <trkpt lat="44.10826" lon="7.31609">
        <ele>1707</ele>
        <time>2017-08-26T06:50:13Z</time>
      </trkpt>
      <trkpt lat="44.10832" lon="7.31629">
        <ele>1709.1</ele>
        <time>2017-08-26T06:50:22Z</time>
      </trkpt>
      <trkpt lat="44.10835" lon="7.31637">
        <ele>1709.7</ele>
        <time>2017-08-26T06:50:24Z</time>
      </trkpt>
      <trkpt lat="44.10833" lon="7.31653">
        <ele>1713.7</ele>
        <time>2017-08-26T06:50:36Z</time>
      </trkpt>
      <trkpt lat="44.10835" lon="7.3166">
        <ele>1714.1</ele>
        <time>2017-08-26T06:50:43Z</time>
      </trkpt>
      <trkpt lat="44.10838" lon="7.31678">
        <ele>1716.5</ele>
        <time>2017-08-26T06:50:56Z</time>
      </trkpt>
      <trkpt lat="44.10839" lon="7.31683">
        <ele>1717.2</ele>
        <time>2017-08-26T06:51:09Z</time>
      </trkpt>
      <trkpt lat="44.10837" lon="7.31691">
        <ele>1719.8</ele>
        <time>2017-08-26T06:51:17Z</time>
      </trkpt>
      <trkpt lat="44.10835" lon="7.31706">
        <ele>1723.1</ele>
        <time>2017-08-26T06:51:30Z</time>
      </trkpt>
      <trkpt lat="44.10831" lon="7.31719">
        <ele>1726.4</ele>
        <time>2017-08-26T06:51:40Z</time>
      </trkpt>
      <trkpt lat="44.10825" lon="7.31733">
        <ele>1730.3</ele>
        <time>2017-08-26T06:51:54Z</time>
      </trkpt>
      <trkpt lat="44.1082" lon="7.31745">
        <ele>1733.3</ele>
        <time>2017-08-26T06:52:07Z</time>
      </trkpt>
      <trkpt lat="44.10813" lon="7.31758">
        <ele>1736.5</ele>
        <time>2017-08-26T06:52:19Z</time>
      </trkpt>
      <trkpt lat="44.10813" lon="7.31786">
        <ele>1739.2</ele>
        <time>2017-08-26T06:52:38Z</time>
      </trkpt>
      <trkpt lat="44.10814" lon="7.31791">
        <ele>1739.6</ele>
        <time>2017-08-26T06:52:41Z</time>
      </trkpt>
      <trkpt lat="44.10821" lon="7.31811">
        <ele>1741.1</ele>
        <time>2017-08-26T06:52:54Z</time>
      </trkpt>
      <trkpt lat="44.1082" lon="7.31814">
        <ele>1741.8</ele>
        <time>2017-08-26T06:52:57Z</time>
      </trkpt>
      <trkpt lat="44.10809" lon="7.31816">
        <ele>1743.9</ele>
        <time>2017-08-26T06:53:11Z</time>
      </trkpt>
      <trkpt lat="44.10808" lon="7.31819">
        <ele>1744.5</ele>
        <time>2017-08-26T06:53:23Z</time>
      </trkpt>
      <trkpt lat="44.10806" lon="7.31836">
        <ele>1747.4</ele>
        <time>2017-08-26T06:53:39Z</time>
      </trkpt>
      <trkpt lat="44.10812" lon="7.31852">
        <ele>1749.3</ele>
        <time>2017-08-26T06:53:53Z</time>
      </trkpt>
      <trkpt lat="44.10837" lon="7.31875">
        <ele>1749.2</ele>
        <time>2017-08-26T06:54:06Z</time>
      </trkpt>
      <trkpt lat="44.10843" lon="7.31882">
        <ele>1750.1</ele>
        <time>2017-08-26T06:54:14Z</time>
      </trkpt>
      <trkpt lat="44.10854" lon="7.31893">
        <ele>1751.4</ele>
        <time>2017-08-26T06:54:28Z</time>
      </trkpt>
      <trkpt lat="44.10865" lon="7.31887">
        <ele>1749.7</ele>
        <time>2017-08-26T06:54:38Z</time>
      </trkpt>
      <trkpt lat="44.10879" lon="7.31891">
        <ele>1750.5</ele>
        <time>2017-08-26T06:54:50Z</time>
      </trkpt>
      <trkpt lat="44.10882" lon="7.31897">
        <ele>1751.8</ele>
        <time>2017-08-26T06:55:03Z</time>
      </trkpt>
      <trkpt lat="44.10903" lon="7.31891">
        <ele>1751.4</ele>
        <time>2017-08-26T06:55:22Z</time>
      </trkpt>
      <trkpt lat="44.10915" lon="7.31896">
        <ele>1752.9</ele>
        <time>2017-08-26T06:55:35Z</time>
      </trkpt>
      <trkpt lat="44.10925" lon="7.31896">
        <ele>1752.4</ele>
        <time>2017-08-26T06:55:48Z</time>
      </trkpt>
      <trkpt lat="44.10932" lon="7.31898">
        <ele>1752.2</ele>
        <time>2017-08-26T06:55:56Z</time>
      </trkpt>
      <trkpt lat="44.10945" lon="7.31909">
        <ele>1752.7</ele>
        <time>2017-08-26T06:56:09Z</time>
      </trkpt>
      <trkpt lat="44.10957" lon="7.3192">
        <ele>1751</ele>
        <time>2017-08-26T06:56:23Z</time>
      </trkpt>
      <trkpt lat="44.1096" lon="7.31926">
        <ele>1751.2</ele>
        <time>2017-08-26T06:56:31Z</time>
      </trkpt>
      <trkpt lat="44.10963" lon="7.31942">
        <ele>1753.5</ele>
        <time>2017-08-26T06:56:41Z</time>
      </trkpt>
      <trkpt lat="44.10963" lon="7.31945">
        <ele>1754.1</ele>
        <time>2017-08-26T06:56:43Z</time>
      </trkpt>
      <trkpt lat="44.10968" lon="7.31955">
        <ele>1755.5</ele>
        <time>2017-08-26T06:56:53Z</time>
      </trkpt>
      <trkpt lat="44.10981" lon="7.31961">
        <ele>1753.7</ele>
        <time>2017-08-26T06:57:06Z</time>
      </trkpt>
      <trkpt lat="44.10982" lon="7.31962">
        <ele>1753.7</ele>
        <time>2017-08-26T06:57:07Z</time>
      </trkpt>
      <trkpt lat="44.10991" lon="7.31977">
        <ele>1755.7</ele>
        <time>2017-08-26T06:57:17Z</time>
      </trkpt>
      <trkpt lat="44.10999" lon="7.31985">
        <ele>1756.4</ele>
        <time>2017-08-26T06:57:32Z</time>
      </trkpt>
      <trkpt lat="44.11" lon="7.31987">
        <ele>1756.8</ele>
        <time>2017-08-26T06:57:34Z</time>
      </trkpt>
      <trkpt lat="44.11002" lon="7.3199">
        <ele>1757.3</ele>
        <time>2017-08-26T06:57:37Z</time>
      </trkpt>
      <trkpt lat="44.11007" lon="7.32004">
        <ele>1760.7</ele>
        <time>2017-08-26T06:57:50Z</time>
      </trkpt>
      <trkpt lat="44.11015" lon="7.32013">
        <ele>1762</ele>
        <time>2017-08-26T06:58:02Z</time>
      </trkpt>
      <trkpt lat="44.11023" lon="7.32017">
        <ele>1761.9</ele>
        <time>2017-08-26T06:58:09Z</time>
      </trkpt>
      <trkpt lat="44.11037" lon="7.32024">
        <ele>1762.3</ele>
        <time>2017-08-26T06:58:20Z</time>
      </trkpt>
      <trkpt lat="44.11042" lon="7.32032">
        <ele>1764.3</ele>
        <time>2017-08-26T06:58:29Z</time>
      </trkpt>
      <trkpt lat="44.11059" lon="7.32038">
        <ele>1764</ele>
        <time>2017-08-26T06:58:44Z</time>
      </trkpt>
      <trkpt lat="44.11073" lon="7.32036">
        <ele>1760.4</ele>
        <time>2017-08-26T06:58:56Z</time>
      </trkpt>
      <trkpt lat="44.11074" lon="7.32035">
        <ele>1759.9</ele>
        <time>2017-08-26T06:58:57Z</time>
      </trkpt>
      <trkpt lat="44.11084" lon="7.32031">
        <ele>1756.8</ele>
        <time>2017-08-26T06:59:09Z</time>
      </trkpt>
      <trkpt lat="44.11094" lon="7.32024">
        <ele>1752.9</ele>
        <time>2017-08-26T06:59:21Z</time>
      </trkpt>
      <trkpt lat="44.11108" lon="7.32028">
        <ele>1751.6</ele>
        <time>2017-08-26T06:59:35Z</time>
      </trkpt>
      <trkpt lat="44.1112" lon="7.32036">
        <ele>1752.6</ele>
        <time>2017-08-26T06:59:47Z</time>
      </trkpt>
      <trkpt lat="44.11129" lon="7.32041">
        <ele>1753.1</ele>
        <time>2017-08-26T06:59:55Z</time>
      </trkpt>
      <trkpt lat="44.11131" lon="7.32042">
        <ele>1753.1</ele>
        <time>2017-08-26T06:59:56Z</time>
      </trkpt>
      <trkpt lat="44.11136" lon="7.32056">
        <ele>1755.4</ele>
        <time>2017-08-26T07:00:09Z</time>
      </trkpt>
      <trkpt lat="44.1114" lon="7.32071">
        <ele>1758.9</ele>
        <time>2017-08-26T07:00:22Z</time>
      </trkpt>
      <trkpt lat="44.11145" lon="7.32079">
        <ele>1761.2</ele>
        <time>2017-08-26T07:00:33Z</time>
      </trkpt>
      <trkpt lat="44.11146" lon="7.32082">
        <ele>1761.9</ele>
        <time>2017-08-26T07:00:48Z</time>
      </trkpt>
      <trkpt lat="44.11165" lon="7.32089">
        <ele>1764</ele>
        <time>2017-08-26T07:01:02Z</time>
      </trkpt>
      <trkpt lat="44.11179" lon="7.32093">
        <ele>1767</ele>
        <time>2017-08-26T07:01:15Z</time>
      </trkpt>
      <trkpt lat="44.1118" lon="7.32099">
        <ele>1768.2</ele>
        <time>2017-08-26T07:01:28Z</time>
      </trkpt>
      <trkpt lat="44.11182" lon="7.32105">
        <ele>1769.7</ele>
        <time>2017-08-26T07:01:42Z</time>
      </trkpt>
      <trkpt lat="44.11182" lon="7.32106">
        <ele>1769.8</ele>
        <time>2017-08-26T07:01:43Z</time>
      </trkpt>
      <trkpt lat="44.11194" lon="7.32114">
        <ele>1773.2</ele>
        <time>2017-08-26T07:01:55Z</time>
      </trkpt>
      <trkpt lat="44.11195" lon="7.32117">
        <ele>1773.8</ele>
        <time>2017-08-26T07:02:07Z</time>
      </trkpt>
      <trkpt lat="44.11201" lon="7.32124">
        <ele>1776.5</ele>
        <time>2017-08-26T07:02:21Z</time>
      </trkpt>
      <trkpt lat="44.11203" lon="7.32129">
        <ele>1777.8</ele>
        <time>2017-08-26T07:02:33Z</time>
      </trkpt>
      <trkpt lat="44.11208" lon="7.32135">
        <ele>1780.3</ele>
        <time>2017-08-26T07:02:45Z</time>
      </trkpt>
      <trkpt lat="44.1121" lon="7.32148">
        <ele>1782.7</ele>
        <time>2017-08-26T07:02:59Z</time>
      </trkpt>
      <trkpt lat="44.11208" lon="7.32158">
        <ele>1783.3</ele>
        <time>2017-08-26T07:03:16Z</time>
      </trkpt>
      <trkpt lat="44.11211" lon="7.32169">
        <ele>1785.6</ele>
        <time>2017-08-26T07:03:28Z</time>
      </trkpt>
      <trkpt lat="44.11218" lon="7.3217">
        <ele>1787.9</ele>
        <time>2017-08-26T07:03:42Z</time>
      </trkpt>
      <trkpt lat="44.11222" lon="7.32167">
        <ele>1789</ele>
        <time>2017-08-26T07:03:53Z</time>
      </trkpt>
      <trkpt lat="44.11222" lon="7.3217">
        <ele>1789.2</ele>
        <time>2017-08-26T07:04:08Z</time>
      </trkpt>
      <trkpt lat="44.11229" lon="7.32179">
        <ele>1793</ele>
        <time>2017-08-26T07:04:24Z</time>
      </trkpt>
      <trkpt lat="44.11232" lon="7.3219">
        <ele>1795</ele>
        <time>2017-08-26T07:04:40Z</time>
      </trkpt>
      <trkpt lat="44.11234" lon="7.32203">
        <ele>1796.4</ele>
        <time>2017-08-26T07:04:53Z</time>
      </trkpt>
      <trkpt lat="44.11243" lon="7.322">
        <ele>1800.1</ele>
        <time>2017-08-26T07:05:06Z</time>
      </trkpt>
      <trkpt lat="44.11243" lon="7.32199">
        <ele>1800.1</ele>
        <time>2017-08-26T07:05:17Z</time>
      </trkpt>
      <trkpt lat="44.11246" lon="7.32196">
        <ele>1801.3</ele>
        <time>2017-08-26T07:05:30Z</time>
      </trkpt>
      <trkpt lat="44.11248" lon="7.32186">
        <ele>1801.8</ele>
        <time>2017-08-26T07:05:42Z</time>
      </trkpt>
      <trkpt lat="44.1125" lon="7.32182">
        <ele>1802.6</ele>
        <time>2017-08-26T07:05:54Z</time>
      </trkpt>
      <trkpt lat="44.11256" lon="7.32174">
        <ele>1805.2</ele>
        <time>2017-08-26T07:06:05Z</time>
      </trkpt>
      <trkpt lat="44.11261" lon="7.32175">
        <ele>1807.7</ele>
        <time>2017-08-26T07:06:18Z</time>
      </trkpt>
      <trkpt lat="44.11269" lon="7.32176">
        <ele>1811.7</ele>
        <time>2017-08-26T07:06:31Z</time>
      </trkpt>
      <trkpt lat="44.1127" lon="7.32177">
        <ele>1812.2</ele>
        <time>2017-08-26T07:06:46Z</time>
      </trkpt>
      <trkpt lat="44.1127" lon="7.32177">
        <ele>1812.2</ele>
        <time>2017-08-26T07:07:00Z</time>
      </trkpt>
      <trkpt lat="44.1127" lon="7.32177">
        <ele>1812.2</ele>
        <time>2017-08-26T07:07:14Z</time>
      </trkpt>
      <trkpt lat="44.11276" lon="7.32181">
        <ele>1815.1</ele>
        <time>2017-08-26T07:07:28Z</time>
      </trkpt>
      <trkpt lat="44.11305" lon="7.32178">
        <ele>1824.8</ele>
        <time>2017-08-26T07:07:41Z</time>
      </trkpt>
      <trkpt lat="44.11324" lon="7.32185">
        <ele>1827.4</ele>
        <time>2017-08-26T07:07:55Z</time>
      </trkpt>
      <trkpt lat="44.1133" lon="7.32188">
        <ele>1828.3</ele>
        <time>2017-08-26T07:08:00Z</time>
      </trkpt>
      <trkpt lat="44.11345" lon="7.32202">
        <ele>1829.1</ele>
        <time>2017-08-26T07:08:17Z</time>
      </trkpt>
      <trkpt lat="44.1135" lon="7.32206">
        <ele>1829.3</ele>
        <time>2017-08-26T07:08:35Z</time>
      </trkpt>
      <trkpt lat="44.11358" lon="7.32213">
        <ele>1830</ele>
        <time>2017-08-26T07:08:54Z</time>
      </trkpt>
      <trkpt lat="44.11371" lon="7.32222">
        <ele>1830.3</ele>
        <time>2017-08-26T07:09:07Z</time>
      </trkpt>
      <trkpt lat="44.11379" lon="7.32232">
        <ele>1831.1</ele>
        <time>2017-08-26T07:09:21Z</time>
      </trkpt>
      <trkpt lat="44.1138" lon="7.32234">
        <ele>1831.3</ele>
        <time>2017-08-26T07:09:23Z</time>
      </trkpt>
      <trkpt lat="44.11383" lon="7.32245">
        <ele>1832.7</ele>
        <time>2017-08-26T07:09:30Z</time>
      </trkpt>
      <trkpt lat="44.11388" lon="7.32265">
        <ele>1835.2</ele>
        <time>2017-08-26T07:09:44Z</time>
      </trkpt>
      <trkpt lat="44.11398" lon="7.32273">
        <ele>1835.4</ele>
        <time>2017-08-26T07:09:52Z</time>
      </trkpt>
      <trkpt lat="44.1141" lon="7.32288">
        <ele>1835.6</ele>
        <time>2017-08-26T07:10:04Z</time>
      </trkpt>
      <trkpt lat="44.11409" lon="7.32305">
        <ele>1837.3</ele>
        <time>2017-08-26T07:10:17Z</time>
      </trkpt>
      <trkpt lat="44.11409" lon="7.32312">
        <ele>1838.1</ele>
        <time>2017-08-26T07:10:23Z</time>
      </trkpt>
      <trkpt lat="44.11415" lon="7.32312">
        <ele>1837</ele>
        <time>2017-08-26T07:10:37Z</time>
      </trkpt>
      <trkpt lat="44.1142" lon="7.32318">
        <ele>1837.6</ele>
        <time>2017-08-26T07:10:51Z</time>
      </trkpt>
      <trkpt lat="44.11429" lon="7.32342">
        <ele>1840.3</ele>
        <time>2017-08-26T07:11:04Z</time>
      </trkpt>
      <trkpt lat="44.11434" lon="7.32347">
        <ele>1840.7</ele>
        <time>2017-08-26T07:11:20Z</time>
      </trkpt>
      <trkpt lat="44.11435" lon="7.32347">
        <ele>1840.7</ele>
        <time>2017-08-26T07:11:38Z</time>
      </trkpt>
      <trkpt lat="44.11442" lon="7.32352">
        <ele>1840.8</ele>
        <time>2017-08-26T07:12:01Z</time>
      </trkpt>
      <trkpt lat="44.11449" lon="7.32363">
        <ele>1842.1</ele>
        <time>2017-08-26T07:12:13Z</time>
      </trkpt>
      <trkpt lat="44.11449" lon="7.32364">
        <ele>1842.2</ele>
        <time>2017-08-26T07:12:37Z</time>
      </trkpt>
      <trkpt lat="44.11451" lon="7.32365">
        <ele>1842.7</ele>
        <time>2017-08-26T07:12:56Z</time>
      </trkpt>
      <trkpt lat="44.11452" lon="7.32367">
        <ele>1843</ele>
        <time>2017-08-26T07:12:58Z</time>
      </trkpt>
      <trkpt lat="44.11458" lon="7.32388">
        <ele>1844.9</ele>
        <time>2017-08-26T07:13:12Z</time>
      </trkpt>
      <trkpt lat="44.11472" lon="7.32406">
        <ele>1846</ele>
        <time>2017-08-26T07:13:26Z</time>
      </trkpt>
      <trkpt lat="44.11478" lon="7.32417">
        <ele>1846.8</ele>
        <time>2017-08-26T07:13:37Z</time>
      </trkpt>
      <trkpt lat="44.11485" lon="7.32427">
        <ele>1847.9</ele>
        <time>2017-08-26T07:13:45Z</time>
      </trkpt>
      <trkpt lat="44.11487" lon="7.32444">
        <ele>1848</ele>
        <time>2017-08-26T07:13:52Z</time>
      </trkpt>
      <trkpt lat="44.11495" lon="7.32452">
        <ele>1848.2</ele>
        <time>2017-08-26T07:13:59Z</time>
      </trkpt>
      <trkpt lat="44.11498" lon="7.32454">
        <ele>1848.1</ele>
        <time>2017-08-26T07:14:01Z</time>
      </trkpt>
      <trkpt lat="44.11508" lon="7.32465">
        <ele>1848.8</ele>
        <time>2017-08-26T07:14:13Z</time>
      </trkpt>
      <trkpt lat="44.11513" lon="7.32469">
        <ele>1849.1</ele>
        <time>2017-08-26T07:14:18Z</time>
      </trkpt>
      <trkpt lat="44.11515" lon="7.32471">
        <ele>1849.2</ele>
        <time>2017-08-26T07:14:20Z</time>
      </trkpt>
      <trkpt lat="44.11522" lon="7.32476">
        <ele>1849.6</ele>
        <time>2017-08-26T07:14:26Z</time>
      </trkpt>
      <trkpt lat="44.11534" lon="7.32483">
        <ele>1850.8</ele>
        <time>2017-08-26T07:14:39Z</time>
      </trkpt>
      <trkpt lat="44.11546" lon="7.32495">
        <ele>1852</ele>
        <time>2017-08-26T07:14:52Z</time>
      </trkpt>
      <trkpt lat="44.11558" lon="7.32511">
        <ele>1853.3</ele>
        <time>2017-08-26T07:15:07Z</time>
      </trkpt>
      <trkpt lat="44.11563" lon="7.32533">
        <ele>1853.9</ele>
        <time>2017-08-26T07:15:20Z</time>
      </trkpt>
      <trkpt lat="44.11573" lon="7.32534">
        <ele>1857.1</ele>
        <time>2017-08-26T07:15:32Z</time>
      </trkpt>
      <trkpt lat="44.11574" lon="7.32543">
        <ele>1857.1</ele>
        <time>2017-08-26T07:15:40Z</time>
      </trkpt>
      <trkpt lat="44.1158" lon="7.32563">
        <ele>1857.7</ele>
        <time>2017-08-26T07:15:54Z</time>
      </trkpt>
      <trkpt lat="44.11589" lon="7.32569">
        <ele>1860.3</ele>
        <time>2017-08-26T07:16:07Z</time>
      </trkpt>
      <trkpt lat="44.11591" lon="7.32573">
        <ele>1860.8</ele>
        <time>2017-08-26T07:16:12Z</time>
      </trkpt>
      <trkpt lat="44.11589" lon="7.32579">
        <ele>1859.8</ele>
        <time>2017-08-26T07:16:17Z</time>
      </trkpt>
      <trkpt lat="44.11593" lon="7.32591">
        <ele>1861</ele>
        <time>2017-08-26T07:16:30Z</time>
      </trkpt>
      <trkpt lat="44.11595" lon="7.32599">
        <ele>1861.8</ele>
        <time>2017-08-26T07:16:44Z</time>
      </trkpt>
      <trkpt lat="44.11597" lon="7.32615">
        <ele>1862.5</ele>
        <time>2017-08-26T07:16:57Z</time>
      </trkpt>
      <trkpt lat="44.11597" lon="7.32621">
        <ele>1862.5</ele>
        <time>2017-08-26T07:17:09Z</time>
      </trkpt>
      <trkpt lat="44.11598" lon="7.32624">
        <ele>1862.6</ele>
        <time>2017-08-26T07:17:11Z</time>
      </trkpt>
      <trkpt lat="44.11604" lon="7.32631">
        <ele>1863</ele>
        <time>2017-08-26T07:17:17Z</time>
      </trkpt>
      <trkpt lat="44.11611" lon="7.32645">
        <ele>1863</ele>
        <time>2017-08-26T07:17:32Z</time>
      </trkpt>
      <trkpt lat="44.11619" lon="7.32664">
        <ele>1864.8</ele>
        <time>2017-08-26T07:17:46Z</time>
      </trkpt>
      <trkpt lat="44.11622" lon="7.32675">
        <ele>1865.5</ele>
        <time>2017-08-26T07:17:59Z</time>
      </trkpt>
      <trkpt lat="44.11624" lon="7.32681">
        <ele>1865.9</ele>
        <time>2017-08-26T07:18:03Z</time>
      </trkpt>
      <trkpt lat="44.11625" lon="7.32691">
        <ele>1866</ele>
        <time>2017-08-26T07:18:06Z</time>
      </trkpt>
      <trkpt lat="44.11633" lon="7.32707">
        <ele>1866.9</ele>
        <time>2017-08-26T07:18:22Z</time>
      </trkpt>
      <trkpt lat="44.11638" lon="7.32724">
        <ele>1867.2</ele>
        <time>2017-08-26T07:18:34Z</time>
      </trkpt>
      <trkpt lat="44.11648" lon="7.3274">
        <ele>1868.8</ele>
        <time>2017-08-26T07:18:50Z</time>
      </trkpt>
      <trkpt lat="44.11663" lon="7.32737">
        <ele>1869.7</ele>
        <time>2017-08-26T07:18:57Z</time>
      </trkpt>
      <trkpt lat="44.1168" lon="7.32741">
        <ele>1871.8</ele>
        <time>2017-08-26T07:19:09Z</time>
      </trkpt>
      <trkpt lat="44.11689" lon="7.32748">
        <ele>1872.5</ele>
        <time>2017-08-26T07:19:17Z</time>
      </trkpt>
      <trkpt lat="44.11691" lon="7.32749">
        <ele>1872.7</ele>
        <time>2017-08-26T07:19:18Z</time>
      </trkpt>
      <trkpt lat="44.11697" lon="7.32753">
        <ele>1873.6</ele>
        <time>2017-08-26T07:19:31Z</time>
      </trkpt>
      <trkpt lat="44.11699" lon="7.32764">
        <ele>1874.3</ele>
        <time>2017-08-26T07:19:43Z</time>
      </trkpt>
      <trkpt lat="44.11704" lon="7.3277">
        <ele>1875.3</ele>
        <time>2017-08-26T07:19:56Z</time>
      </trkpt>
      <trkpt lat="44.11703" lon="7.3278">
        <ele>1875.3</ele>
        <time>2017-08-26T07:20:06Z</time>
      </trkpt>
      <trkpt lat="44.11705" lon="7.32795">
        <ele>1875.9</ele>
        <time>2017-08-26T07:20:19Z</time>
      </trkpt>
      <trkpt lat="44.11705" lon="7.32796">
        <ele>1875.9</ele>
        <time>2017-08-26T07:20:20Z</time>
      </trkpt>
      <trkpt lat="44.11706" lon="7.32804">
        <ele>1876.2</ele>
        <time>2017-08-26T07:20:29Z</time>
      </trkpt>
      <trkpt lat="44.11709" lon="7.32803">
        <ele>1876.5</ele>
        <time>2017-08-26T07:20:39Z</time>
      </trkpt>
      <trkpt lat="44.11724" lon="7.32809">
        <ele>1878.4</ele>
        <time>2017-08-26T07:20:53Z</time>
      </trkpt>
      <trkpt lat="44.11739" lon="7.32816">
        <ele>1880.8</ele>
        <time>2017-08-26T07:21:05Z</time>
      </trkpt>
      <trkpt lat="44.11746" lon="7.32819">
        <ele>1881.9</ele>
        <time>2017-08-26T07:21:17Z</time>
      </trkpt>
      <trkpt lat="44.11762" lon="7.32827">
        <ele>1884.7</ele>
        <time>2017-08-26T07:21:31Z</time>
      </trkpt>
      <trkpt lat="44.1177" lon="7.32833">
        <ele>1885.9</ele>
        <time>2017-08-26T07:21:49Z</time>
      </trkpt>
      <trkpt lat="44.11784" lon="7.32845">
        <ele>1888</ele>
        <time>2017-08-26T07:22:03Z</time>
      </trkpt>
      <trkpt lat="44.1179" lon="7.32848">
        <ele>1889</ele>
        <time>2017-08-26T07:22:13Z</time>
      </trkpt>
      <trkpt lat="44.11796" lon="7.32855">
        <ele>1889.8</ele>
        <time>2017-08-26T07:22:27Z</time>
      </trkpt>
      <trkpt lat="44.11796" lon="7.32856">
        <ele>1889.7</ele>
        <time>2017-08-26T07:22:43Z</time>
      </trkpt>
      <trkpt lat="44.11796" lon="7.32856">
        <ele>1889.7</ele>
        <time>2017-08-26T07:23:01Z</time>
      </trkpt>
      <trkpt lat="44.11805" lon="7.3286">
        <ele>1891</ele>
        <time>2017-08-26T07:23:16Z</time>
      </trkpt>
      <trkpt lat="44.1182" lon="7.32864">
        <ele>1894.1</ele>
        <time>2017-08-26T07:23:28Z</time>
      </trkpt>
      <trkpt lat="44.11834" lon="7.32869">
        <ele>1896.9</ele>
        <time>2017-08-26T07:23:37Z</time>
      </trkpt>
      <trkpt lat="44.11842" lon="7.32874">
        <ele>1898.9</ele>
        <time>2017-08-26T07:23:42Z</time>
      </trkpt>
      <trkpt lat="44.11854" lon="7.32881">
        <ele>1901.7</ele>
        <time>2017-08-26T07:23:54Z</time>
      </trkpt>
      <trkpt lat="44.11865" lon="7.32882">
        <ele>1904.4</ele>
        <time>2017-08-26T07:24:07Z</time>
      </trkpt>
      <trkpt lat="44.11878" lon="7.32887">
        <ele>1906.9</ele>
        <time>2017-08-26T07:24:19Z</time>
      </trkpt>
      <trkpt lat="44.11892" lon="7.32894">
        <ele>1908.9</ele>
        <time>2017-08-26T07:24:32Z</time>
      </trkpt>
      <trkpt lat="44.119" lon="7.32902">
        <ele>1909.3</ele>
        <time>2017-08-26T07:24:47Z</time>
      </trkpt>
      <trkpt lat="44.119" lon="7.32902">
        <ele>1909.3</ele>
        <time>2017-08-26T07:25:07Z</time>
      </trkpt>
      <trkpt lat="44.11902" lon="7.32901">
        <ele>1909.9</ele>
        <time>2017-08-26T07:25:26Z</time>
      </trkpt>
      <trkpt lat="44.11905" lon="7.32906">
        <ele>1909.7</ele>
        <time>2017-08-26T07:25:31Z</time>
      </trkpt>
      <trkpt lat="44.11907" lon="7.3291">
        <ele>1909.4</ele>
        <time>2017-08-26T07:25:34Z</time>
      </trkpt>
      <trkpt lat="44.11912" lon="7.32913">
        <ele>1909.8</ele>
        <time>2017-08-26T07:25:38Z</time>
      </trkpt>
      <trkpt lat="44.11917" lon="7.32924">
        <ele>1909</ele>
        <time>2017-08-26T07:25:52Z</time>
      </trkpt>
      <trkpt lat="44.11925" lon="7.32927">
        <ele>1909.7</ele>
        <time>2017-08-26T07:26:05Z</time>
      </trkpt>
      <trkpt lat="44.11936" lon="7.32927">
        <ele>1911.3</ele>
        <time>2017-08-26T07:26:16Z</time>
      </trkpt>
      <trkpt lat="44.11946" lon="7.32937">
        <ele>1911.4</ele>
        <time>2017-08-26T07:26:30Z</time>
      </trkpt>
      <trkpt lat="44.11954" lon="7.32946">
        <ele>1912</ele>
        <time>2017-08-26T07:26:42Z</time>
      </trkpt>
      <trkpt lat="44.11957" lon="7.32949">
        <ele>1912.5</ele>
        <time>2017-08-26T07:26:47Z</time>
      </trkpt>
      <trkpt lat="44.11958" lon="7.32959">
        <ele>1912.4</ele>
        <time>2017-08-26T07:26:55Z</time>
      </trkpt>
      <trkpt lat="44.11966" lon="7.32973">
        <ele>1913.7</ele>
        <time>2017-08-26T07:27:08Z</time>
      </trkpt>
      <trkpt lat="44.11975" lon="7.32982">
        <ele>1916.1</ele>
        <time>2017-08-26T07:27:23Z</time>
      </trkpt>
      <trkpt lat="44.11983" lon="7.3299">
        <ele>1918.4</ele>
        <time>2017-08-26T07:27:35Z</time>
      </trkpt>
      <trkpt lat="44.11991" lon="7.32997">
        <ele>1920.6</ele>
        <time>2017-08-26T07:27:48Z</time>
      </trkpt>
      <trkpt lat="44.11992" lon="7.33005">
        <ele>1921.1</ele>
        <time>2017-08-26T07:27:56Z</time>
      </trkpt>
      <trkpt lat="44.11996" lon="7.33009">
        <ele>1922.1</ele>
        <time>2017-08-26T07:28:01Z</time>
      </trkpt>
      <trkpt lat="44.12008" lon="7.33026">
        <ele>1925</ele>
        <time>2017-08-26T07:28:16Z</time>
      </trkpt>
      <trkpt lat="44.12011" lon="7.33029">
        <ele>1925.8</ele>
        <time>2017-08-26T07:28:21Z</time>
      </trkpt>
      <trkpt lat="44.12014" lon="7.33048">
        <ele>1926.9</ele>
        <time>2017-08-26T07:28:35Z</time>
      </trkpt>
      <trkpt lat="44.12015" lon="7.33053">
        <ele>1927.2</ele>
        <time>2017-08-26T07:28:48Z</time>
      </trkpt>
      <trkpt lat="44.12011" lon="7.33064">
        <ele>1927.3</ele>
        <time>2017-08-26T07:29:04Z</time>
      </trkpt>
      <trkpt lat="44.12009" lon="7.33067">
        <ele>1927.2</ele>
        <time>2017-08-26T07:29:06Z</time>
      </trkpt>
      <trkpt lat="44.12006" lon="7.33088">
        <ele>1929.1</ele>
        <time>2017-08-26T07:29:17Z</time>
      </trkpt>
      <trkpt lat="44.12004" lon="7.3309">
        <ele>1929</ele>
        <time>2017-08-26T07:29:19Z</time>
      </trkpt>
      <trkpt lat="44.12004" lon="7.33106">
        <ele>1931.7</ele>
        <time>2017-08-26T07:29:33Z</time>
      </trkpt>
      <trkpt lat="44.11995" lon="7.33108">
        <ele>1931.1</ele>
        <time>2017-08-26T07:29:49Z</time>
      </trkpt>
      <trkpt lat="44.11993" lon="7.33108">
        <ele>1930.9</ele>
        <time>2017-08-26T07:29:53Z</time>
      </trkpt>
      <trkpt lat="44.11987" lon="7.33106">
        <ele>1930.1</ele>
        <time>2017-08-26T07:29:59Z</time>
      </trkpt>
      <trkpt lat="44.11979" lon="7.33095">
        <ele>1927.1</ele>
        <time>2017-08-26T07:30:08Z</time>
      </trkpt>
      <trkpt lat="44.11969" lon="7.33081">
        <ele>1923.6</ele>
        <time>2017-08-26T07:30:22Z</time>
      </trkpt>
      <trkpt lat="44.11966" lon="7.33071">
        <ele>1922</ele>
        <time>2017-08-26T07:30:36Z</time>
      </trkpt>
      <trkpt lat="44.11953" lon="7.33065">
        <ele>1920.4</ele>
        <time>2017-08-26T07:30:52Z</time>
      </trkpt>
      <trkpt lat="44.1194" lon="7.33055">
        <ele>1917.9</ele>
        <time>2017-08-26T07:31:07Z</time>
      </trkpt>
      <trkpt lat="44.11927" lon="7.33048">
        <ele>1916.6</ele>
        <time>2017-08-26T07:31:23Z</time>
      </trkpt>
      <trkpt lat="44.11919" lon="7.33053">
        <ele>1917.5</ele>
        <time>2017-08-26T07:31:36Z</time>
      </trkpt>
      <trkpt lat="44.1191" lon="7.33052">
        <ele>1917.4</ele>
        <time>2017-08-26T07:31:46Z</time>
      </trkpt>
      <trkpt lat="44.11901" lon="7.33061">
        <ele>1920.2</ele>
        <time>2017-08-26T07:31:56Z</time>
      </trkpt>
      <trkpt lat="44.11888" lon="7.33074">
        <ele>1925</ele>
        <time>2017-08-26T07:32:11Z</time>
      </trkpt>
      <trkpt lat="44.11884" lon="7.33082">
        <ele>1927.9</ele>
        <time>2017-08-26T07:32:17Z</time>
      </trkpt>
      <trkpt lat="44.11878" lon="7.33105">
        <ele>1936.1</ele>
        <time>2017-08-26T07:32:32Z</time>
      </trkpt>
      <trkpt lat="44.11868" lon="7.3311">
        <ele>1938.9</ele>
        <time>2017-08-26T07:32:51Z</time>
      </trkpt>
      <trkpt lat="44.11854" lon="7.33108">
        <ele>1939.4</ele>
        <time>2017-08-26T07:33:09Z</time>
      </trkpt>
      <trkpt lat="44.11843" lon="7.33109">
        <ele>1940.6</ele>
        <time>2017-08-26T07:33:25Z</time>
      </trkpt>
      <trkpt lat="44.11827" lon="7.33118">
        <ele>1944.1</ele>
        <time>2017-08-26T07:33:43Z</time>
      </trkpt>
      <trkpt lat="44.1181" lon="7.33108">
        <ele>1941.9</ele>
        <time>2017-08-26T07:34:01Z</time>
      </trkpt>
      <trkpt lat="44.11805" lon="7.33108">
        <ele>1942</ele>
        <time>2017-08-26T07:34:08Z</time>
      </trkpt>
      <trkpt lat="44.11801" lon="7.33117">
        <ele>1943.6</ele>
        <time>2017-08-26T07:34:22Z</time>
      </trkpt>
      <trkpt lat="44.11801" lon="7.33133">
        <ele>1947.1</ele>
        <time>2017-08-26T07:34:36Z</time>
      </trkpt>
      <trkpt lat="44.11803" lon="7.33142">
        <ele>1949.4</ele>
        <time>2017-08-26T07:34:47Z</time>
      </trkpt>
      <trkpt lat="44.11807" lon="7.33154">
        <ele>1952.9</ele>
        <time>2017-08-26T07:35:00Z</time>
      </trkpt>
      <trkpt lat="44.11813" lon="7.33164">
        <ele>1956.1</ele>
        <time>2017-08-26T07:35:15Z</time>
      </trkpt>
      <trkpt lat="44.11815" lon="7.33177">
        <ele>1959.5</ele>
        <time>2017-08-26T07:35:27Z</time>
      </trkpt>
      <trkpt lat="44.1181" lon="7.33188">
        <ele>1961.3</ele>
        <time>2017-08-26T07:35:40Z</time>
      </trkpt>
      <trkpt lat="44.11812" lon="7.33199">
        <ele>1964.4</ele>
        <time>2017-08-26T07:35:53Z</time>
      </trkpt>
      <trkpt lat="44.11811" lon="7.33212">
        <ele>1967.7</ele>
        <time>2017-08-26T07:36:06Z</time>
      </trkpt>
      <trkpt lat="44.11809" lon="7.33216">
        <ele>1968.2</ele>
        <time>2017-08-26T07:36:10Z</time>
      </trkpt>
      <trkpt lat="44.11803" lon="7.33236">
        <ele>1971.1</ele>
        <time>2017-08-26T07:36:26Z</time>
      </trkpt>
      <trkpt lat="44.11794" lon="7.33248">
        <ele>1970.4</ele>
        <time>2017-08-26T07:36:41Z</time>
      </trkpt>
      <trkpt lat="44.11796" lon="7.33264">
        <ele>1975.1</ele>
        <time>2017-08-26T07:36:56Z</time>
      </trkpt>
      <trkpt lat="44.11793" lon="7.33264">
        <ele>1974</ele>
        <time>2017-08-26T07:37:13Z</time>
      </trkpt>
      <trkpt lat="44.118" lon="7.33281">
        <ele>1980.7</ele>
        <time>2017-08-26T07:37:30Z</time>
      </trkpt>
      <trkpt lat="44.11801" lon="7.33291">
        <ele>1983.3</ele>
        <time>2017-08-26T07:37:45Z</time>
      </trkpt>
      <trkpt lat="44.11802" lon="7.33293">
        <ele>1984.1</ele>
        <time>2017-08-26T07:37:55Z</time>
      </trkpt>
      <trkpt lat="44.11802" lon="7.33293">
        <ele>1984.1</ele>
        <time>2017-08-26T07:37:56Z</time>
      </trkpt>
      <trkpt lat="44.11811" lon="7.33296">
        <ele>1987.4</ele>
        <time>2017-08-26T07:38:12Z</time>
      </trkpt>
      <trkpt lat="44.11815" lon="7.33295">
        <ele>1988.2</ele>
        <time>2017-08-26T07:38:27Z</time>
      </trkpt>
      <trkpt lat="44.11807" lon="7.33301">
        <ele>1987.4</ele>
        <time>2017-08-26T07:38:43Z</time>
      </trkpt>
      <trkpt lat="44.11804" lon="7.33316">
        <ele>1989.8</ele>
        <time>2017-08-26T07:39:01Z</time>
      </trkpt>
      <trkpt lat="44.11799" lon="7.33324">
        <ele>1989.9</ele>
        <time>2017-08-26T07:39:17Z</time>
      </trkpt>
      <trkpt lat="44.11798" lon="7.33334">
        <ele>1991.7</ele>
        <time>2017-08-26T07:39:34Z</time>
      </trkpt>
      <trkpt lat="44.118" lon="7.33342">
        <ele>1994.1</ele>
        <time>2017-08-26T07:39:49Z</time>
      </trkpt>
      <trkpt lat="44.118" lon="7.33352">
        <ele>1996.2</ele>
        <time>2017-08-26T07:39:58Z</time>
      </trkpt>
      <trkpt lat="44.118" lon="7.33354">
        <ele>1996.7</ele>
        <time>2017-08-26T07:39:59Z</time>
      </trkpt>
      <trkpt lat="44.11798" lon="7.33361">
        <ele>1997.5</ele>
        <time>2017-08-26T07:40:06Z</time>
      </trkpt>
      <trkpt lat="44.11799" lon="7.33374">
        <ele>2000.9</ele>
        <time>2017-08-26T07:40:21Z</time>
      </trkpt>
      <trkpt lat="44.11798" lon="7.33391">
        <ele>2004.5</ele>
        <time>2017-08-26T07:40:34Z</time>
      </trkpt>
      <trkpt lat="44.11798" lon="7.33408">
        <ele>2008.4</ele>
        <time>2017-08-26T07:40:51Z</time>
      </trkpt>
      <trkpt lat="44.11796" lon="7.33418">
        <ele>2009.8</ele>
        <time>2017-08-26T07:41:05Z</time>
      </trkpt>
      <trkpt lat="44.11791" lon="7.33428">
        <ele>2009.8</ele>
        <time>2017-08-26T07:41:18Z</time>
      </trkpt>
      <trkpt lat="44.1179" lon="7.33448">
        <ele>2014</ele>
        <time>2017-08-26T07:41:34Z</time>
      </trkpt>
      <trkpt lat="44.11794" lon="7.33467">
        <ele>2020.4</ele>
        <time>2017-08-26T07:41:49Z</time>
      </trkpt>
      <trkpt lat="44.11796" lon="7.33468">
        <ele>2021.6</ele>
        <time>2017-08-26T07:42:05Z</time>
      </trkpt>
      <trkpt lat="44.11796" lon="7.33486">
        <ele>2026.3</ele>
        <time>2017-08-26T07:42:19Z</time>
      </trkpt>
      <trkpt lat="44.11798" lon="7.33494">
        <ele>2029.5</ele>
        <time>2017-08-26T07:42:35Z</time>
      </trkpt>
      <trkpt lat="44.11792" lon="7.33501">
        <ele>2028.5</ele>
        <time>2017-08-26T07:42:52Z</time>
      </trkpt>
      <trkpt lat="44.11792" lon="7.33504">
        <ele>2029.5</ele>
        <time>2017-08-26T07:43:06Z</time>
      </trkpt>
      <trkpt lat="44.11795" lon="7.33534">
        <ele>2040.8</ele>
        <time>2017-08-26T07:43:23Z</time>
      </trkpt>
      <trkpt lat="44.11798" lon="7.33544">
        <ele>2045.6</ele>
        <time>2017-08-26T07:43:38Z</time>
      </trkpt>
      <trkpt lat="44.11798" lon="7.33544">
        <ele>2045.6</ele>
        <time>2017-08-26T07:44:06Z</time>
      </trkpt>
      <trkpt lat="44.11801" lon="7.33544">
        <ele>2047.1</ele>
        <time>2017-08-26T07:44:40Z</time>
      </trkpt>
      <trkpt lat="44.11801" lon="7.33546">
        <ele>2047.7</ele>
        <time>2017-08-26T07:45:00Z</time>
      </trkpt>
      <trkpt lat="44.11802" lon="7.33546">
        <ele>2048.2</ele>
        <time>2017-08-26T07:45:22Z</time>
      </trkpt>
      <trkpt lat="44.11802" lon="7.33546">
        <ele>2048.2</ele>
        <time>2017-08-26T07:45:55Z</time>
      </trkpt>
      <trkpt lat="44.11802" lon="7.33545">
        <ele>2047.9</ele>
        <time>2017-08-26T07:46:31Z</time>
      </trkpt>
      <trkpt lat="44.11804" lon="7.33544">
        <ele>2048.5</ele>
        <time>2017-08-26T07:47:17Z</time>
      </trkpt>
      <trkpt lat="44.11803" lon="7.33544">
        <ele>2048</ele>
        <time>2017-08-26T07:47:53Z</time>
      </trkpt>
      <trkpt lat="44.11803" lon="7.33544">
        <ele>2048</ele>
        <time>2017-08-26T07:48:22Z</time>
      </trkpt>
      <trkpt lat="44.11803" lon="7.33544">
        <ele>2048</ele>
        <time>2017-08-26T07:48:51Z</time>
      </trkpt>
      <trkpt lat="44.11803" lon="7.33544">
        <ele>2048</ele>
        <time>2017-08-26T07:49:20Z</time>
      </trkpt>
      <trkpt lat="44.11802" lon="7.33545">
        <ele>2047.9</ele>
        <time>2017-08-26T07:49:49Z</time>
      </trkpt>
      <trkpt lat="44.11802" lon="7.33544">
        <ele>2047.5</ele>
        <time>2017-08-26T07:50:27Z</time>
      </trkpt>
      <trkpt lat="44.11802" lon="7.33545">
        <ele>2047.9</ele>
        <time>2017-08-26T07:51:03Z</time>
      </trkpt>
      <trkpt lat="44.11801" lon="7.33545">
        <ele>2047.4</ele>
        <time>2017-08-26T07:51:26Z</time>
      </trkpt>
      <trkpt lat="44.11803" lon="7.33557">
        <ele>2052.3</ele>
        <time>2017-08-26T07:51:42Z</time>
      </trkpt>
      <trkpt lat="44.11795" lon="7.33563">
        <ele>2050.4</ele>
        <time>2017-08-26T07:51:53Z</time>
      </trkpt>
      <trkpt lat="44.11795" lon="7.33577">
        <ele>2054.7</ele>
        <time>2017-08-26T07:52:06Z</time>
      </trkpt>
      <trkpt lat="44.11791" lon="7.33589">
        <ele>2056.3</ele>
        <time>2017-08-26T07:52:22Z</time>
      </trkpt>
      <trkpt lat="44.11787" lon="7.33601">
        <ele>2057.5</ele>
        <time>2017-08-26T07:52:36Z</time>
      </trkpt>
      <trkpt lat="44.11785" lon="7.33618">
        <ele>2061.8</ele>
        <time>2017-08-26T07:52:50Z</time>
      </trkpt>
      <trkpt lat="44.11782" lon="7.33628">
        <ele>2063.9</ele>
        <time>2017-08-26T07:53:04Z</time>
      </trkpt>
      <trkpt lat="44.11792" lon="7.33634">
        <ele>2071.4</ele>
        <time>2017-08-26T07:53:21Z</time>
      </trkpt>
      <trkpt lat="44.11797" lon="7.33639">
        <ele>2075.7</ele>
        <time>2017-08-26T07:53:35Z</time>
      </trkpt>
      <trkpt lat="44.11795" lon="7.33646">
        <ele>2076.8</ele>
        <time>2017-08-26T07:53:51Z</time>
      </trkpt>
      <trkpt lat="44.1179" lon="7.33655">
        <ele>2077.2</ele>
        <time>2017-08-26T07:54:07Z</time>
      </trkpt>
      <trkpt lat="44.11797" lon="7.33663">
        <ele>2082.6</ele>
        <time>2017-08-26T07:54:19Z</time>
      </trkpt>
      <trkpt lat="44.11804" lon="7.33664">
        <ele>2085.7</ele>
        <time>2017-08-26T07:54:35Z</time>
      </trkpt>
      <trkpt lat="44.11799" lon="7.33673">
        <ele>2086.3</ele>
        <time>2017-08-26T07:54:50Z</time>
      </trkpt>
      <trkpt lat="44.11796" lon="7.33682">
        <ele>2088</ele>
        <time>2017-08-26T07:55:03Z</time>
      </trkpt>
      <trkpt lat="44.11789" lon="7.33689">
        <ele>2087.8</ele>
        <time>2017-08-26T07:55:15Z</time>
      </trkpt>
      <trkpt lat="44.11786" lon="7.33701">
        <ele>2090.6</ele>
        <time>2017-08-26T07:55:26Z</time>
      </trkpt>
      <trkpt lat="44.11783" lon="7.3371">
        <ele>2092.5</ele>
        <time>2017-08-26T07:55:38Z</time>
      </trkpt>
      <trkpt lat="44.11777" lon="7.33721">
        <ele>2094.4</ele>
        <time>2017-08-26T07:55:53Z</time>
      </trkpt>
      <trkpt lat="44.11773" lon="7.33734">
        <ele>2097.4</ele>
        <time>2017-08-26T07:56:07Z</time>
      </trkpt>
      <trkpt lat="44.11774" lon="7.33743">
        <ele>2100</ele>
        <time>2017-08-26T07:56:19Z</time>
      </trkpt>
      <trkpt lat="44.11773" lon="7.33751">
        <ele>2102.3</ele>
        <time>2017-08-26T07:56:31Z</time>
      </trkpt>
      <trkpt lat="44.11779" lon="7.3376">
        <ele>2105.2</ele>
        <time>2017-08-26T07:56:47Z</time>
      </trkpt>
      <trkpt lat="44.11784" lon="7.33768">
        <ele>2108.5</ele>
        <time>2017-08-26T07:56:59Z</time>
      </trkpt>
      <trkpt lat="44.11786" lon="7.33771">
        <ele>2109.7</ele>
        <time>2017-08-26T07:57:12Z</time>
      </trkpt>
      <trkpt lat="44.11786" lon="7.33782">
        <ele>2112.9</ele>
        <time>2017-08-26T07:57:25Z</time>
      </trkpt>
      <trkpt lat="44.11785" lon="7.33791">
        <ele>2115.7</ele>
        <time>2017-08-26T07:57:39Z</time>
      </trkpt>
      <trkpt lat="44.11778" lon="7.33795">
        <ele>2116.2</ele>
        <time>2017-08-26T07:57:53Z</time>
      </trkpt>
      <trkpt lat="44.11771" lon="7.33799">
        <ele>2118.1</ele>
        <time>2017-08-26T07:58:06Z</time>
      </trkpt>
      <trkpt lat="44.11767" lon="7.33798">
        <ele>2118</ele>
        <time>2017-08-26T07:58:10Z</time>
      </trkpt>
      <trkpt lat="44.11758" lon="7.33802">
        <ele>2119.7</ele>
        <time>2017-08-26T07:58:25Z</time>
      </trkpt>
      <trkpt lat="44.11757" lon="7.33811">
        <ele>2123.1</ele>
        <time>2017-08-26T07:58:39Z</time>
      </trkpt>
      <trkpt lat="44.1176" lon="7.33819">
        <ele>2126.6</ele>
        <time>2017-08-26T07:58:51Z</time>
      </trkpt>
      <trkpt lat="44.11754" lon="7.33822">
        <ele>2128</ele>
        <time>2017-08-26T07:59:04Z</time>
      </trkpt>
      <trkpt lat="44.1175" lon="7.33822">
        <ele>2128.1</ele>
        <time>2017-08-26T07:59:10Z</time>
      </trkpt>
      <trkpt lat="44.11741" lon="7.33825">
        <ele>2132.7</ele>
        <time>2017-08-26T07:59:24Z</time>
      </trkpt>
      <trkpt lat="44.11738" lon="7.33832">
        <ele>2136</ele>
        <time>2017-08-26T07:59:36Z</time>
      </trkpt>
      <trkpt lat="44.11734" lon="7.33835">
        <ele>2138.2</ele>
        <time>2017-08-26T07:59:47Z</time>
      </trkpt>
      <trkpt lat="44.11728" lon="7.33842">
        <ele>2141.9</ele>
        <time>2017-08-26T08:00:00Z</time>
      </trkpt>
      <trkpt lat="44.11724" lon="7.33849">
        <ele>2144.3</ele>
        <time>2017-08-26T08:00:11Z</time>
      </trkpt>
      <trkpt lat="44.11719" lon="7.33857">
        <ele>2147</ele>
        <time>2017-08-26T08:00:22Z</time>
      </trkpt>
      <trkpt lat="44.11718" lon="7.33865">
        <ele>2149.3</ele>
        <time>2017-08-26T08:00:36Z</time>
      </trkpt>
      <trkpt lat="44.11713" lon="7.33871">
        <ele>2151.7</ele>
        <time>2017-08-26T08:00:48Z</time>
      </trkpt>
      <trkpt lat="44.1171" lon="7.33873">
        <ele>2152.3</ele>
        <time>2017-08-26T08:00:55Z</time>
      </trkpt>
      <trkpt lat="44.11704" lon="7.33887">
        <ele>2153.9</ele>
        <time>2017-08-26T08:01:07Z</time>
      </trkpt>
      <trkpt lat="44.11702" lon="7.33891">
        <ele>2153.9</ele>
        <time>2017-08-26T08:01:13Z</time>
      </trkpt>
      <trkpt lat="44.11699" lon="7.33895">
        <ele>2153.6</ele>
        <time>2017-08-26T08:01:17Z</time>
      </trkpt>
      <trkpt lat="44.11696" lon="7.33905">
        <ele>2153.6</ele>
        <time>2017-08-26T08:01:25Z</time>
      </trkpt>
      <trkpt lat="44.11691" lon="7.33917">
        <ele>2154.5</ele>
        <time>2017-08-26T08:01:38Z</time>
      </trkpt>
      <trkpt lat="44.11689" lon="7.3393">
        <ele>2155.5</ele>
        <time>2017-08-26T08:01:53Z</time>
      </trkpt>
      <trkpt lat="44.11689" lon="7.33933">
        <ele>2155.6</ele>
        <time>2017-08-26T08:02:09Z</time>
      </trkpt>
      <trkpt lat="44.11689" lon="7.33933">
        <ele>2155.6</ele>
        <time>2017-08-26T08:02:41Z</time>
      </trkpt>
      <trkpt lat="44.1169" lon="7.33934">
        <ele>2155.7</ele>
        <time>2017-08-26T08:03:15Z</time>
      </trkpt>
      <trkpt lat="44.1169" lon="7.33934">
        <ele>2155.7</ele>
        <time>2017-08-26T08:03:57Z</time>
      </trkpt>
      <trkpt lat="44.1169" lon="7.33934">
        <ele>2155.7</ele>
        <time>2017-08-26T08:04:30Z</time>
      </trkpt>
      <trkpt lat="44.1169" lon="7.33935">
        <ele>2155.8</ele>
        <time>2017-08-26T08:05:04Z</time>
      </trkpt>
      <trkpt lat="44.1169" lon="7.33936">
        <ele>2155.8</ele>
        <time>2017-08-26T08:05:44Z</time>
      </trkpt>
      <trkpt lat="44.11691" lon="7.33949">
        <ele>2156.9</ele>
        <time>2017-08-26T08:05:55Z</time>
      </trkpt>
      <trkpt lat="44.11687" lon="7.33968">
        <ele>2157.8</ele>
        <time>2017-08-26T08:06:11Z</time>
      </trkpt>
      <trkpt lat="44.11683" lon="7.33978">
        <ele>2157.7</ele>
        <time>2017-08-26T08:06:20Z</time>
      </trkpt>
      <trkpt lat="44.1168" lon="7.33985">
        <ele>2157.7</ele>
        <time>2017-08-26T08:06:26Z</time>
      </trkpt>
      <trkpt lat="44.11677" lon="7.3399">
        <ele>2157.5</ele>
        <time>2017-08-26T08:06:31Z</time>
      </trkpt>
      <trkpt lat="44.11671" lon="7.34006">
        <ele>2157.6</ele>
        <time>2017-08-26T08:06:44Z</time>
      </trkpt>
      <trkpt lat="44.11668" lon="7.34016">
        <ele>2157.5</ele>
        <time>2017-08-26T08:06:51Z</time>
      </trkpt>
      <trkpt lat="44.11665" lon="7.34019">
        <ele>2157</ele>
        <time>2017-08-26T08:06:54Z</time>
      </trkpt>
      <trkpt lat="44.11662" lon="7.34036">
        <ele>2157.4</ele>
        <time>2017-08-26T08:07:04Z</time>
      </trkpt>
      <trkpt lat="44.11661" lon="7.34038">
        <ele>2157.3</ele>
        <time>2017-08-26T08:07:06Z</time>
      </trkpt>
      <trkpt lat="44.1166" lon="7.34043">
        <ele>2157.4</ele>
        <time>2017-08-26T08:07:09Z</time>
      </trkpt>
      <trkpt lat="44.11658" lon="7.34054">
        <ele>2157.7</ele>
        <time>2017-08-26T08:07:16Z</time>
      </trkpt>
      <trkpt lat="44.11657" lon="7.3406">
        <ele>2157.9</ele>
        <time>2017-08-26T08:07:20Z</time>
      </trkpt>
      <trkpt lat="44.11654" lon="7.34072">
        <ele>2158</ele>
        <time>2017-08-26T08:07:29Z</time>
      </trkpt>
      <trkpt lat="44.11642" lon="7.34082">
        <ele>2154.9</ele>
        <time>2017-08-26T08:07:43Z</time>
      </trkpt>
      <trkpt lat="44.11637" lon="7.3409">
        <ele>2153.6</ele>
        <time>2017-08-26T08:07:49Z</time>
      </trkpt>
      <trkpt lat="44.11636" lon="7.34092">
        <ele>2153.4</ele>
        <time>2017-08-26T08:07:51Z</time>
      </trkpt>
      <trkpt lat="44.11634" lon="7.34099">
        <ele>2153</ele>
        <time>2017-08-26T08:07:56Z</time>
      </trkpt>
      <trkpt lat="44.11633" lon="7.34103">
        <ele>2152.9</ele>
        <time>2017-08-26T08:07:59Z</time>
      </trkpt>
      <trkpt lat="44.11626" lon="7.34124">
        <ele>2152.9</ele>
        <time>2017-08-26T08:08:14Z</time>
      </trkpt>
      <trkpt lat="44.11622" lon="7.34137">
        <ele>2153.2</ele>
        <time>2017-08-26T08:08:25Z</time>
      </trkpt>
      <trkpt lat="44.11614" lon="7.34139">
        <ele>2151.6</ele>
        <time>2017-08-26T08:08:37Z</time>
      </trkpt>
      <trkpt lat="44.11614" lon="7.34139">
        <ele>2151.6</ele>
        <time>2017-08-26T08:08:57Z</time>
      </trkpt>
      <trkpt lat="44.11611" lon="7.34141">
        <ele>2151.3</ele>
        <time>2017-08-26T08:09:12Z</time>
      </trkpt>
      <trkpt lat="44.11609" lon="7.34148">
        <ele>2152</ele>
        <time>2017-08-26T08:09:17Z</time>
      </trkpt>
      <trkpt lat="44.11602" lon="7.34166">
        <ele>2153.3</ele>
        <time>2017-08-26T08:09:33Z</time>
      </trkpt>
      <trkpt lat="44.11599" lon="7.34177">
        <ele>2155.2</ele>
        <time>2017-08-26T08:09:44Z</time>
      </trkpt>
      <trkpt lat="44.11596" lon="7.34185">
        <ele>2156.6</ele>
        <time>2017-08-26T08:09:56Z</time>
      </trkpt>
      <trkpt lat="44.11594" lon="7.34187">
        <ele>2156.8</ele>
        <time>2017-08-26T08:10:08Z</time>
      </trkpt>
      <trkpt lat="44.11598" lon="7.34193">
        <ele>2158.8</ele>
        <time>2017-08-26T08:10:20Z</time>
      </trkpt>
      <trkpt lat="44.11595" lon="7.34198">
        <ele>2159.4</ele>
        <time>2017-08-26T08:10:32Z</time>
      </trkpt>
      <trkpt lat="44.11593" lon="7.342">
        <ele>2159.6</ele>
        <time>2017-08-26T08:10:35Z</time>
      </trkpt>
      <trkpt lat="44.11587" lon="7.34197">
        <ele>2158.1</ele>
        <time>2017-08-26T08:10:45Z</time>
      </trkpt>
      <trkpt lat="44.11576" lon="7.34198">
        <ele>2157.2</ele>
        <time>2017-08-26T08:10:57Z</time>
      </trkpt>
      <trkpt lat="44.11575" lon="7.34199">
        <ele>2157.4</ele>
        <time>2017-08-26T08:10:58Z</time>
      </trkpt>
      <trkpt lat="44.11568" lon="7.34215">
        <ele>2160.3</ele>
        <time>2017-08-26T08:11:13Z</time>
      </trkpt>
      <trkpt lat="44.11566" lon="7.34228">
        <ele>2162.5</ele>
        <time>2017-08-26T08:11:23Z</time>
      </trkpt>
      <trkpt lat="44.11566" lon="7.34228">
        <ele>2162.5</ele>
        <time>2017-08-26T08:11:51Z</time>
      </trkpt>
      <trkpt lat="44.11568" lon="7.34233">
        <ele>2163.3</ele>
        <time>2017-08-26T08:12:00Z</time>
      </trkpt>
      <trkpt lat="44.11567" lon="7.34251">
        <ele>2165.6</ele>
        <time>2017-08-26T08:12:14Z</time>
      </trkpt>
      <trkpt lat="44.11563" lon="7.34264">
        <ele>2167.9</ele>
        <time>2017-08-26T08:12:28Z</time>
      </trkpt>
      <trkpt lat="44.11553" lon="7.34278">
        <ele>2170.1</ele>
        <time>2017-08-26T08:12:44Z</time>
      </trkpt>
      <trkpt lat="44.11547" lon="7.34287">
        <ele>2171.9</ele>
        <time>2017-08-26T08:12:55Z</time>
      </trkpt>
      <trkpt lat="44.1154" lon="7.34296">
        <ele>2173.5</ele>
        <time>2017-08-26T08:13:08Z</time>
      </trkpt>
      <trkpt lat="44.11535" lon="7.343">
        <ele>2174.1</ele>
        <time>2017-08-26T08:13:18Z</time>
      </trkpt>
      <trkpt lat="44.11531" lon="7.34312">
        <ele>2176.6</ele>
        <time>2017-08-26T08:13:32Z</time>
      </trkpt>
      <trkpt lat="44.11525" lon="7.34323">
        <ele>2179.4</ele>
        <time>2017-08-26T08:13:46Z</time>
      </trkpt>
      <trkpt lat="44.11518" lon="7.34335">
        <ele>2182.4</ele>
        <time>2017-08-26T08:14:01Z</time>
      </trkpt>
      <trkpt lat="44.11508" lon="7.34339">
        <ele>2183.6</ele>
        <time>2017-08-26T08:14:14Z</time>
      </trkpt>
      <trkpt lat="44.11504" lon="7.34338">
        <ele>2183.3</ele>
        <time>2017-08-26T08:14:18Z</time>
      </trkpt>
      <trkpt lat="44.11496" lon="7.34351">
        <ele>2186.9</ele>
        <time>2017-08-26T08:14:33Z</time>
      </trkpt>
      <trkpt lat="44.11491" lon="7.34358">
        <ele>2188.5</ele>
        <time>2017-08-26T08:14:48Z</time>
      </trkpt>
      <trkpt lat="44.1149" lon="7.34365">
        <ele>2189.9</ele>
        <time>2017-08-26T08:15:11Z</time>
      </trkpt>
      <trkpt lat="44.11487" lon="7.34375">
        <ele>2191.3</ele>
        <time>2017-08-26T08:15:26Z</time>
      </trkpt>
      <trkpt lat="44.11487" lon="7.34375">
        <ele>2191.3</ele>
        <time>2017-08-26T08:15:41Z</time>
      </trkpt>
      <trkpt lat="44.11488" lon="7.34376">
        <ele>2191.6</ele>
        <time>2017-08-26T08:16:15Z</time>
      </trkpt>
      <trkpt lat="44.11488" lon="7.34376">
        <ele>2191.6</ele>
        <time>2017-08-26T08:16:51Z</time>
      </trkpt>
      <trkpt lat="44.11488" lon="7.34376">
        <ele>2191.6</ele>
        <time>2017-08-26T08:17:19Z</time>
      </trkpt>
      <trkpt lat="44.11487" lon="7.34381">
        <ele>2192.3</ele>
        <time>2017-08-26T08:17:55Z</time>
      </trkpt>
      <trkpt lat="44.11484" lon="7.34397">
        <ele>2194.9</ele>
        <time>2017-08-26T08:18:09Z</time>
      </trkpt>
      <trkpt lat="44.1148" lon="7.34406">
        <ele>2196.1</ele>
        <time>2017-08-26T08:18:20Z</time>
      </trkpt>
      <trkpt lat="44.1148" lon="7.34418">
        <ele>2198.4</ele>
        <time>2017-08-26T08:18:34Z</time>
      </trkpt>
      <trkpt lat="44.11476" lon="7.34426">
        <ele>2199.6</ele>
        <time>2017-08-26T08:18:48Z</time>
      </trkpt>
      <trkpt lat="44.1147" lon="7.34438">
        <ele>2201.5</ele>
        <time>2017-08-26T08:19:03Z</time>
      </trkpt>
      <trkpt lat="44.11463" lon="7.34444">
        <ele>2202.6</ele>
        <time>2017-08-26T08:19:15Z</time>
      </trkpt>
      <trkpt lat="44.11463" lon="7.34448">
        <ele>2203.7</ele>
        <time>2017-08-26T08:19:18Z</time>
      </trkpt>
      <trkpt lat="44.11455" lon="7.3446">
        <ele>2206.9</ele>
        <time>2017-08-26T08:19:31Z</time>
      </trkpt>
      <trkpt lat="44.11452" lon="7.3447">
        <ele>2209.6</ele>
        <time>2017-08-26T08:19:43Z</time>
      </trkpt>
      <trkpt lat="44.11447" lon="7.34479">
        <ele>2212.6</ele>
        <time>2017-08-26T08:19:56Z</time>
      </trkpt>
      <trkpt lat="44.11444" lon="7.34485">
        <ele>2214.7</ele>
        <time>2017-08-26T08:20:09Z</time>
      </trkpt>
      <trkpt lat="44.11441" lon="7.34491">
        <ele>2217.3</ele>
        <time>2017-08-26T08:20:23Z</time>
      </trkpt>
      <trkpt lat="44.1144" lon="7.3449">
        <ele>2217.1</ele>
        <time>2017-08-26T08:20:27Z</time>
      </trkpt>
      <trkpt lat="44.11438" lon="7.34491">
        <ele>2217.8</ele>
        <time>2017-08-26T08:20:30Z</time>
      </trkpt>
      <trkpt lat="44.11431" lon="7.34494">
        <ele>2219.7</ele>
        <time>2017-08-26T08:20:44Z</time>
      </trkpt>
      <trkpt lat="44.11424" lon="7.34501">
        <ele>2222.3</ele>
        <time>2017-08-26T08:20:55Z</time>
      </trkpt>
      <trkpt lat="44.11423" lon="7.34504">
        <ele>2222.8</ele>
        <time>2017-08-26T08:20:58Z</time>
      </trkpt>
      <trkpt lat="44.11418" lon="7.34523">
        <ele>2224.8</ele>
        <time>2017-08-26T08:21:13Z</time>
      </trkpt>
      <trkpt lat="44.11417" lon="7.34527">
        <ele>2225</ele>
        <time>2017-08-26T08:21:16Z</time>
      </trkpt>
      <trkpt lat="44.11412" lon="7.34542">
        <ele>2225.9</ele>
        <time>2017-08-26T08:21:28Z</time>
      </trkpt>
      <trkpt lat="44.11406" lon="7.34553">
        <ele>2226.5</ele>
        <time>2017-08-26T08:21:37Z</time>
      </trkpt>
      <trkpt lat="44.11399" lon="7.34568">
        <ele>2226.7</ele>
        <time>2017-08-26T08:21:51Z</time>
      </trkpt>
      <trkpt lat="44.11391" lon="7.3458">
        <ele>2225.5</ele>
        <time>2017-08-26T08:22:03Z</time>
      </trkpt>
      <trkpt lat="44.1139" lon="7.34605">
        <ele>2223.8</ele>
        <time>2017-08-26T08:22:19Z</time>
      </trkpt>
      <trkpt lat="44.11391" lon="7.34606">
        <ele>2224.1</ele>
        <time>2017-08-26T08:22:20Z</time>
      </trkpt>
      <trkpt lat="44.11395" lon="7.34621">
        <ele>2226</ele>
        <time>2017-08-26T08:22:31Z</time>
      </trkpt>
      <trkpt lat="44.11397" lon="7.34625">
        <ele>2227.1</ele>
        <time>2017-08-26T08:22:37Z</time>
      </trkpt>
      <trkpt lat="44.11395" lon="7.34635">
        <ele>2227.1</ele>
        <time>2017-08-26T08:22:51Z</time>
      </trkpt>
      <trkpt lat="44.114" lon="7.34651">
        <ele>2231.5</ele>
        <time>2017-08-26T08:23:02Z</time>
      </trkpt>
      <trkpt lat="44.11392" lon="7.34657">
        <ele>2229.9</ele>
        <time>2017-08-26T08:23:11Z</time>
      </trkpt>
      <trkpt lat="44.11387" lon="7.34659">
        <ele>2229</ele>
        <time>2017-08-26T08:23:18Z</time>
      </trkpt>
      <trkpt lat="44.11386" lon="7.34659">
        <ele>2228.7</ele>
        <time>2017-08-26T08:23:20Z</time>
      </trkpt>
      <trkpt lat="44.11384" lon="7.34662">
        <ele>2229</ele>
        <time>2017-08-26T08:23:23Z</time>
      </trkpt>
      <trkpt lat="44.11384" lon="7.34667">
        <ele>2230.1</ele>
        <time>2017-08-26T08:23:27Z</time>
      </trkpt>
      <trkpt lat="44.11376" lon="7.34681">
        <ele>2232.9</ele>
        <time>2017-08-26T08:23:45Z</time>
      </trkpt>
      <trkpt lat="44.11368" lon="7.34684">
        <ele>2232.1</ele>
        <time>2017-08-26T08:23:58Z</time>
      </trkpt>
      <trkpt lat="44.11363" lon="7.34694">
        <ele>2234.3</ele>
        <time>2017-08-26T08:24:11Z</time>
      </trkpt>
      <trkpt lat="44.11359" lon="7.34702">
        <ele>2235.1</ele>
        <time>2017-08-26T08:24:25Z</time>
      </trkpt>
      <trkpt lat="44.11354" lon="7.34715">
        <ele>2236.8</ele>
        <time>2017-08-26T08:24:37Z</time>
      </trkpt>
      <trkpt lat="44.11349" lon="7.34726">
        <ele>2238</ele>
        <time>2017-08-26T08:24:47Z</time>
      </trkpt>
      <trkpt lat="44.11352" lon="7.34733">
        <ele>2239.8</ele>
        <time>2017-08-26T08:24:50Z</time>
      </trkpt>
      <trkpt lat="44.11348" lon="7.34747">
        <ele>2241.6</ele>
        <time>2017-08-26T08:25:04Z</time>
      </trkpt>
      <trkpt lat="44.11346" lon="7.34753">
        <ele>2242.3</ele>
        <time>2017-08-26T08:25:11Z</time>
      </trkpt>
      <trkpt lat="44.11346" lon="7.34766">
        <ele>2244.4</ele>
        <time>2017-08-26T08:25:23Z</time>
      </trkpt>
      <trkpt lat="44.11346" lon="7.34774">
        <ele>2245.8</ele>
        <time>2017-08-26T08:25:34Z</time>
      </trkpt>
      <trkpt lat="44.11346" lon="7.34774">
        <ele>2245.8</ele>
        <time>2017-08-26T08:25:35Z</time>
      </trkpt>
      <trkpt lat="44.11347" lon="7.34789">
        <ele>2248.9</ele>
        <time>2017-08-26T08:25:47Z</time>
      </trkpt>
      <trkpt lat="44.11346" lon="7.34803">
        <ele>2251.8</ele>
        <time>2017-08-26T08:26:01Z</time>
      </trkpt>
      <trkpt lat="44.11345" lon="7.34812">
        <ele>2253.6</ele>
        <time>2017-08-26T08:26:13Z</time>
      </trkpt>
      <trkpt lat="44.11345" lon="7.34816">
        <ele>2254.4</ele>
        <time>2017-08-26T08:26:25Z</time>
      </trkpt>
      <trkpt lat="44.11345" lon="7.34829">
        <ele>2257.1</ele>
        <time>2017-08-26T08:26:37Z</time>
      </trkpt>
      <trkpt lat="44.11343" lon="7.34843">
        <ele>2259.7</ele>
        <time>2017-08-26T08:26:50Z</time>
      </trkpt>
      <trkpt lat="44.11339" lon="7.34848">
        <ele>2260.6</ele>
        <time>2017-08-26T08:26:56Z</time>
      </trkpt>
      <trkpt lat="44.11337" lon="7.34857">
        <ele>2262.3</ele>
        <time>2017-08-26T08:27:09Z</time>
      </trkpt>
      <trkpt lat="44.11337" lon="7.34857">
        <ele>2262.3</ele>
        <time>2017-08-26T08:27:21Z</time>
      </trkpt>
      <trkpt lat="44.11336" lon="7.34871">
        <ele>2264.4</ele>
        <time>2017-08-26T08:27:32Z</time>
      </trkpt>
      <trkpt lat="44.11334" lon="7.34878">
        <ele>2265.4</ele>
        <time>2017-08-26T08:27:38Z</time>
      </trkpt>
      <trkpt lat="44.11334" lon="7.349">
        <ele>2268.9</ele>
        <time>2017-08-26T08:27:52Z</time>
      </trkpt>
      <trkpt lat="44.11334" lon="7.34902">
        <ele>2269.3</ele>
        <time>2017-08-26T08:27:53Z</time>
      </trkpt>
      <trkpt lat="44.11332" lon="7.34916">
        <ele>2272.2</ele>
        <time>2017-08-26T08:28:06Z</time>
      </trkpt>
      <trkpt lat="44.11329" lon="7.34929">
        <ele>2274.9</ele>
        <time>2017-08-26T08:28:19Z</time>
      </trkpt>
      <trkpt lat="44.11323" lon="7.34938">
        <ele>2278</ele>
        <time>2017-08-26T08:28:33Z</time>
      </trkpt>
      <trkpt lat="44.11319" lon="7.34932">
        <ele>2278.1</ele>
        <time>2017-08-26T08:28:47Z</time>
      </trkpt>
      <trkpt lat="44.11311" lon="7.34929">
        <ele>2279.8</ele>
        <time>2017-08-26T08:28:58Z</time>
      </trkpt>
      <trkpt lat="44.11304" lon="7.3493">
        <ele>2281.9</ele>
        <time>2017-08-26T08:29:10Z</time>
      </trkpt>
      <trkpt lat="44.113" lon="7.34934">
        <ele>2283.6</ele>
        <time>2017-08-26T08:29:23Z</time>
      </trkpt>
      <trkpt lat="44.11302" lon="7.34939">
        <ele>2283.8</ele>
        <time>2017-08-26T08:29:26Z</time>
      </trkpt>
      <trkpt lat="44.11301" lon="7.34947">
        <ele>2285.5</ele>
        <time>2017-08-26T08:29:38Z</time>
      </trkpt>
      <trkpt lat="44.11295" lon="7.34954">
        <ele>2288.4</ele>
        <time>2017-08-26T08:29:51Z</time>
      </trkpt>
      <trkpt lat="44.113" lon="7.34965">
        <ele>2290.3</ele>
        <time>2017-08-26T08:30:03Z</time>
      </trkpt>
      <trkpt lat="44.11296" lon="7.34966">
        <ele>2291.4</ele>
        <time>2017-08-26T08:30:16Z</time>
      </trkpt>
      <trkpt lat="44.11295" lon="7.3497">
        <ele>2292.7</ele>
        <time>2017-08-26T08:30:25Z</time>
      </trkpt>
      <trkpt lat="44.113" lon="7.34983">
        <ele>2296.3</ele>
        <time>2017-08-26T08:30:39Z</time>
      </trkpt>
      <trkpt lat="44.11299" lon="7.34987">
        <ele>2298.1</ele>
        <time>2017-08-26T08:30:52Z</time>
      </trkpt>
      <trkpt lat="44.11299" lon="7.34987">
        <ele>2298.1</ele>
        <time>2017-08-26T08:31:09Z</time>
      </trkpt>
      <trkpt lat="44.11299" lon="7.34989">
        <ele>2298.9</ele>
        <time>2017-08-26T08:31:36Z</time>
      </trkpt>
      <trkpt lat="44.113" lon="7.34993">
        <ele>2300.1</ele>
        <time>2017-08-26T08:32:17Z</time>
      </trkpt>
      <trkpt lat="44.1129" lon="7.34985">
        <ele>2299.7</ele>
        <time>2017-08-26T08:32:31Z</time>
      </trkpt>
      <trkpt lat="44.11291" lon="7.34997">
        <ele>2304.5</ele>
        <time>2017-08-26T08:32:46Z</time>
      </trkpt>
      <trkpt lat="44.1129" lon="7.35">
        <ele>2306</ele>
        <time>2017-08-26T08:32:58Z</time>
      </trkpt>
      <trkpt lat="44.11285" lon="7.35002">
        <ele>2308.4</ele>
        <time>2017-08-26T08:33:10Z</time>
      </trkpt>
      <trkpt lat="44.11273" lon="7.35002">
        <ele>2311.5</ele>
        <time>2017-08-26T08:33:27Z</time>
      </trkpt>
      <trkpt lat="44.11274" lon="7.3501">
        <ele>2314.5</ele>
        <time>2017-08-26T08:33:41Z</time>
      </trkpt>
      <trkpt lat="44.11266" lon="7.35012">
        <ele>2316.4</ele>
        <time>2017-08-26T08:33:56Z</time>
      </trkpt>
      <trkpt lat="44.1126" lon="7.35013">
        <ele>2317.7</ele>
        <time>2017-08-26T08:34:08Z</time>
      </trkpt>
      <trkpt lat="44.11258" lon="7.35014">
        <ele>2318.4</ele>
        <time>2017-08-26T08:34:12Z</time>
      </trkpt>
      <trkpt lat="44.1126" lon="7.35021">
        <ele>2320.9</ele>
        <time>2017-08-26T08:34:23Z</time>
      </trkpt>
      <trkpt lat="44.11252" lon="7.35021">
        <ele>2322</ele>
        <time>2017-08-26T08:34:36Z</time>
      </trkpt>
      <trkpt lat="44.11243" lon="7.35027">
        <ele>2324.7</ele>
        <time>2017-08-26T08:34:50Z</time>
      </trkpt>
      <trkpt lat="44.11242" lon="7.35039">
        <ele>2329</ele>
        <time>2017-08-26T08:35:02Z</time>
      </trkpt>
      <trkpt lat="44.11249" lon="7.35054">
        <ele>2333.6</ele>
        <time>2017-08-26T08:35:16Z</time>
      </trkpt>
      <trkpt lat="44.1125" lon="7.35058">
        <ele>2335</ele>
        <time>2017-08-26T08:35:19Z</time>
      </trkpt>
      <trkpt lat="44.1125" lon="7.35061">
        <ele>2336.2</ele>
        <time>2017-08-26T08:35:21Z</time>
      </trkpt>
      <trkpt lat="44.11253" lon="7.35065">
        <ele>2337.2</ele>
        <time>2017-08-26T08:35:33Z</time>
      </trkpt>
      <trkpt lat="44.11265" lon="7.35061">
        <ele>2333.7</ele>
        <time>2017-08-26T08:35:43Z</time>
      </trkpt>
      <trkpt lat="44.11272" lon="7.35068">
        <ele>2334.7</ele>
        <time>2017-08-26T08:35:56Z</time>
      </trkpt>
      <trkpt lat="44.11278" lon="7.35074">
        <ele>2335.2</ele>
        <time>2017-08-26T08:36:05Z</time>
      </trkpt>
      <trkpt lat="44.1128" lon="7.35084">
        <ele>2337.6</ele>
        <time>2017-08-26T08:36:17Z</time>
      </trkpt>
      <trkpt lat="44.11287" lon="7.35087">
        <ele>2336.8</ele>
        <time>2017-08-26T08:36:31Z</time>
      </trkpt>
      <trkpt lat="44.1128" lon="7.35089">
        <ele>2339.4</ele>
        <time>2017-08-26T08:36:44Z</time>
      </trkpt>
      <trkpt lat="44.11279" lon="7.35095">
        <ele>2341.9</ele>
        <time>2017-08-26T08:36:55Z</time>
      </trkpt>
      <trkpt lat="44.11279" lon="7.35103">
        <ele>2344.8</ele>
        <time>2017-08-26T08:37:08Z</time>
      </trkpt>
      <trkpt lat="44.11275" lon="7.35111">
        <ele>2349.1</ele>
        <time>2017-08-26T08:37:24Z</time>
      </trkpt>
      <trkpt lat="44.11272" lon="7.35115">
        <ele>2352.1</ele>
        <time>2017-08-26T08:37:38Z</time>
      </trkpt>
      <trkpt lat="44.11273" lon="7.35122">
        <ele>2355.1</ele>
        <time>2017-08-26T08:37:50Z</time>
      </trkpt>
      <trkpt lat="44.1128" lon="7.3513">
        <ele>2357</ele>
        <time>2017-08-26T08:38:04Z</time>
      </trkpt>
      <trkpt lat="44.11282" lon="7.35129">
        <ele>2356</ele>
        <time>2017-08-26T08:38:18Z</time>
      </trkpt>
      <trkpt lat="44.11282" lon="7.35129">
        <ele>2356</ele>
        <time>2017-08-26T08:38:57Z</time>
      </trkpt>
      <trkpt lat="44.11282" lon="7.35129">
        <ele>2356</ele>
        <time>2017-08-26T08:39:31Z</time>
      </trkpt>
      <trkpt lat="44.11282" lon="7.35129">
        <ele>2356</ele>
        <time>2017-08-26T08:40:09Z</time>
      </trkpt>
      <trkpt lat="44.11282" lon="7.35128">
        <ele>2355.5</ele>
        <time>2017-08-26T08:40:28Z</time>
      </trkpt>
      <trkpt lat="44.11283" lon="7.35128">
        <ele>2355.3</ele>
        <time>2017-08-26T08:41:05Z</time>
      </trkpt>
      <trkpt lat="44.11283" lon="7.35128">
        <ele>2355.3</ele>
        <time>2017-08-26T08:41:34Z</time>
      </trkpt>
      <trkpt lat="44.11282" lon="7.35126">
        <ele>2354.5</ele>
        <time>2017-08-26T08:42:04Z</time>
      </trkpt>
      <trkpt lat="44.11282" lon="7.35126">
        <ele>2354.5</ele>
        <time>2017-08-26T08:42:15Z</time>
      </trkpt>
      <trkpt lat="44.11287" lon="7.35134">
        <ele>2357.3</ele>
        <time>2017-08-26T08:42:29Z</time>
      </trkpt>
      <trkpt lat="44.11293" lon="7.35142">
        <ele>2359.6</ele>
        <time>2017-08-26T08:42:42Z</time>
      </trkpt>
      <trkpt lat="44.11292" lon="7.35141">
        <ele>2359.4</ele>
        <time>2017-08-26T08:42:53Z</time>
      </trkpt>
      <trkpt lat="44.11289" lon="7.3514">
        <ele>2359.7</ele>
        <time>2017-08-26T08:43:07Z</time>
      </trkpt>
      <trkpt lat="44.11283" lon="7.3514">
        <ele>2361.2</ele>
        <time>2017-08-26T08:43:19Z</time>
      </trkpt>
      <trkpt lat="44.11277" lon="7.35139">
        <ele>2362.2</ele>
        <time>2017-08-26T08:43:32Z</time>
      </trkpt>
      <trkpt lat="44.11274" lon="7.3515">
        <ele>2368.1</ele>
        <time>2017-08-26T08:43:44Z</time>
      </trkpt>
      <trkpt lat="44.11274" lon="7.3516">
        <ele>2372.7</ele>
        <time>2017-08-26T08:43:55Z</time>
      </trkpt>
      <trkpt lat="44.11273" lon="7.35164">
        <ele>2374.8</ele>
        <time>2017-08-26T08:44:07Z</time>
      </trkpt>
      <trkpt lat="44.11273" lon="7.35173">
        <ele>2377.9</ele>
        <time>2017-08-26T08:44:21Z</time>
      </trkpt>
      <trkpt lat="44.11276" lon="7.35182">
        <ele>2379.5</ele>
        <time>2017-08-26T08:44:33Z</time>
      </trkpt>
      <trkpt lat="44.11278" lon="7.35191">
        <ele>2381</ele>
        <time>2017-08-26T08:44:46Z</time>
      </trkpt>
      <trkpt lat="44.11278" lon="7.35193">
        <ele>2381.5</ele>
        <time>2017-08-26T08:45:01Z</time>
      </trkpt>
      <trkpt lat="44.11278" lon="7.35196">
        <ele>2382.3</ele>
        <time>2017-08-26T08:45:15Z</time>
      </trkpt>
      <trkpt lat="44.11273" lon="7.35199">
        <ele>2385.3</ele>
        <time>2017-08-26T08:45:28Z</time>
      </trkpt>
      <trkpt lat="44.11274" lon="7.35207">
        <ele>2387.1</ele>
        <time>2017-08-26T08:45:37Z</time>
      </trkpt>
      <trkpt lat="44.11273" lon="7.3522">
        <ele>2391.1</ele>
        <time>2017-08-26T08:45:52Z</time>
      </trkpt>
      <trkpt lat="44.11273" lon="7.35222">
        <ele>2391.7</ele>
        <time>2017-08-26T08:46:04Z</time>
      </trkpt>
      <trkpt lat="44.11277" lon="7.35224">
        <ele>2391.2</ele>
        <time>2017-08-26T08:46:17Z</time>
      </trkpt>
      <trkpt lat="44.11274" lon="7.35225">
        <ele>2392.9</ele>
        <time>2017-08-26T08:46:29Z</time>
      </trkpt>
      <trkpt lat="44.11273" lon="7.3523">
        <ele>2396.2</ele>
        <time>2017-08-26T08:46:45Z</time>
      </trkpt>
      <trkpt lat="44.1127" lon="7.35234">
        <ele>2399.8</ele>
        <time>2017-08-26T08:47:00Z</time>
      </trkpt>
      <trkpt lat="44.11264" lon="7.35235">
        <ele>2403</ele>
        <time>2017-08-26T08:47:16Z</time>
      </trkpt>
      <trkpt lat="44.11262" lon="7.35241">
        <ele>2407.7</ele>
        <time>2017-08-26T08:47:29Z</time>
      </trkpt>
      <trkpt lat="44.11255" lon="7.35243">
        <ele>2412.5</ele>
        <time>2017-08-26T08:47:46Z</time>
      </trkpt>
      <trkpt lat="44.11256" lon="7.35254">
        <ele>2418.8</ele>
        <time>2017-08-26T08:47:59Z</time>
      </trkpt>
      <trkpt lat="44.11258" lon="7.35257">
        <ele>2419.4</ele>
        <time>2017-08-26T08:48:12Z</time>
      </trkpt>
      <trkpt lat="44.11257" lon="7.35256">
        <ele>2419.4</ele>
        <time>2017-08-26T08:48:24Z</time>
      </trkpt>
      <trkpt lat="44.11257" lon="7.35264">
        <ele>2423.5</ele>
        <time>2017-08-26T08:48:38Z</time>
      </trkpt>
      <trkpt lat="44.11258" lon="7.35268">
        <ele>2425.2</ele>
        <time>2017-08-26T08:48:52Z</time>
      </trkpt>
      <trkpt lat="44.11257" lon="7.35267">
        <ele>2425.1</ele>
        <time>2017-08-26T08:49:05Z</time>
      </trkpt>
      <trkpt lat="44.11255" lon="7.35278">
        <ele>2431.5</ele>
        <time>2017-08-26T08:49:19Z</time>
      </trkpt>
      <trkpt lat="44.11253" lon="7.35282">
        <ele>2433.7</ele>
        <time>2017-08-26T08:49:32Z</time>
      </trkpt>
      <trkpt lat="44.11254" lon="7.3529">
        <ele>2436.9</ele>
        <time>2017-08-26T08:49:46Z</time>
      </trkpt>
      <trkpt lat="44.11254" lon="7.35291">
        <ele>2437.3</ele>
        <time>2017-08-26T08:49:58Z</time>
      </trkpt>
      <trkpt lat="44.11252" lon="7.35297">
        <ele>2439.9</ele>
        <time>2017-08-26T08:50:09Z</time>
      </trkpt>
      <trkpt lat="44.11251" lon="7.35305">
        <ele>2442.9</ele>
        <time>2017-08-26T08:50:24Z</time>
      </trkpt>
      <trkpt lat="44.11253" lon="7.35315">
        <ele>2442</ele>
        <time>2017-08-26T08:50:37Z</time>
      </trkpt>
      <trkpt lat="44.11253" lon="7.35315">
        <ele>2442</ele>
        <time>2017-08-26T08:50:55Z</time>
      </trkpt>
      <trkpt lat="44.11254" lon="7.35315">
        <ele>2442.2</ele>
        <time>2017-08-26T08:51:06Z</time>
      </trkpt>
      <trkpt lat="44.11254" lon="7.35315">
        <ele>2442.2</ele>
        <time>2017-08-26T08:51:16Z</time>
      </trkpt>
      <trkpt lat="44.11254" lon="7.35316">
        <ele>2442.1</ele>
        <time>2017-08-26T08:51:26Z</time>
      </trkpt>
      <trkpt lat="44.11254" lon="7.35316">
        <ele>2442.1</ele>
        <time>2017-08-26T08:51:34Z</time>
      </trkpt>
      <trkpt lat="44.11256" lon="7.35316">
        <ele>2442.6</ele>
        <time>2017-08-26T09:38:14Z</time>
      </trkpt>
      <trkpt lat="44.11256" lon="7.35316">
        <ele>2442.6</ele>
        <time>2017-08-26T09:38:16Z</time>
      </trkpt>
      <trkpt lat="44.11257" lon="7.35316">
        <ele>2442.8</ele>
        <time>2017-08-26T09:38:18Z</time>
      </trkpt>
      <trkpt lat="44.11257" lon="7.35317">
        <ele>2442.7</ele>
        <time>2017-08-26T09:38:20Z</time>
      </trkpt>
      <trkpt lat="44.11256" lon="7.35317">
        <ele>2442.5</ele>
        <time>2017-08-26T09:38:22Z</time>
      </trkpt>
      <trkpt lat="44.11256" lon="7.35316">
        <ele>2442.6</ele>
        <time>2017-08-26T09:38:24Z</time>
      </trkpt>
      <trkpt lat="44.11256" lon="7.35317">
        <ele>2442.5</ele>
        <time>2017-08-26T09:38:26Z</time>
      </trkpt>
      <trkpt lat="44.11255" lon="7.35317">
        <ele>2442.2</ele>
        <time>2017-08-26T09:38:28Z</time>
      </trkpt>
      <trkpt lat="44.11255" lon="7.35317">
        <ele>2442.2</ele>
        <time>2017-08-26T09:38:30Z</time>
      </trkpt>
      <trkpt lat="44.11254" lon="7.35317">
        <ele>2442</ele>
        <time>2017-08-26T09:38:32Z</time>
      </trkpt>
      <trkpt lat="44.11254" lon="7.35317">
        <ele>2442</ele>
        <time>2017-08-26T09:38:35Z</time>
      </trkpt>
      <trkpt lat="44.11254" lon="7.35317">
        <ele>2442</ele>
        <time>2017-08-26T09:38:36Z</time>
      </trkpt>
      <trkpt lat="44.11255" lon="7.35317">
        <ele>2442.2</ele>
        <time>2017-08-26T09:38:39Z</time>
      </trkpt>
      <trkpt lat="44.11255" lon="7.35318">
        <ele>2442.1</ele>
        <time>2017-08-26T09:38:42Z</time>
      </trkpt>
      <trkpt lat="44.11255" lon="7.35318">
        <ele>2442.1</ele>
        <time>2017-08-26T09:38:45Z</time>
      </trkpt>
      <trkpt lat="44.11256" lon="7.35317">
        <ele>2442.5</ele>
        <time>2017-08-26T09:38:49Z</time>
      </trkpt>
      <trkpt lat="44.11255" lon="7.35316">
        <ele>2442.3</ele>
        <time>2017-08-26T09:38:53Z</time>
      </trkpt>
      <trkpt lat="44.11255" lon="7.35316">
        <ele>2442.3</ele>
        <time>2017-08-26T09:38:58Z</time>
      </trkpt>
      <trkpt lat="44.11255" lon="7.35317">
        <ele>2442.2</ele>
        <time>2017-08-26T09:39:04Z</time>
      </trkpt>
      <trkpt lat="44.11256" lon="7.35318">
        <ele>2442.4</ele>
        <time>2017-08-26T09:39:12Z</time>
      </trkpt>
      <trkpt lat="44.11256" lon="7.35318">
        <ele>2442.4</ele>
        <time>2017-08-26T09:39:17Z</time>
      </trkpt>
      <trkpt lat="44.11257" lon="7.35319">
        <ele>2442.6</ele>
        <time>2017-08-26T09:39:30Z</time>
      </trkpt>
      <trkpt lat="44.11255" lon="7.35318">
        <ele>2442.1</ele>
        <time>2017-08-26T09:39:59Z</time>
      </trkpt>
      <trkpt lat="44.11255" lon="7.35317">
        <ele>2442.2</ele>
        <time>2017-08-26T09:40:12Z</time>
      </trkpt>
      <trkpt lat="44.11253" lon="7.35318">
        <ele>2441.6</ele>
        <time>2017-08-26T09:40:29Z</time>
      </trkpt>
      <trkpt lat="44.11252" lon="7.35317">
        <ele>2441.5</ele>
        <time>2017-08-26T09:40:30Z</time>
      </trkpt>
      <trkpt lat="44.11248" lon="7.35316">
        <ele>2440.4</ele>
        <time>2017-08-26T09:40:34Z</time>
      </trkpt>
      <trkpt lat="44.11246" lon="7.35315">
        <ele>2439.9</ele>
        <time>2017-08-26T09:40:36Z</time>
      </trkpt>
      <trkpt lat="44.11243" lon="7.35316">
        <ele>2438.5</ele>
        <time>2017-08-26T09:40:39Z</time>
      </trkpt>
      <trkpt lat="44.11237" lon="7.35317">
        <ele>2436</ele>
        <time>2017-08-26T09:40:47Z</time>
      </trkpt>
      <trkpt lat="44.11235" lon="7.35317">
        <ele>2435.3</ele>
        <time>2017-08-26T09:40:50Z</time>
      </trkpt>
      <trkpt lat="44.1123" lon="7.35315">
        <ele>2434.1</ele>
        <time>2017-08-26T09:41:00Z</time>
      </trkpt>
      <trkpt lat="44.11222" lon="7.3531">
        <ele>2433.1</ele>
        <time>2017-08-26T09:41:11Z</time>
      </trkpt>
      <trkpt lat="44.11222" lon="7.35315">
        <ele>2431.1</ele>
        <time>2017-08-26T09:41:17Z</time>
      </trkpt>
      <trkpt lat="44.11222" lon="7.35316">
        <ele>2430.7</ele>
        <time>2017-08-26T09:41:20Z</time>
      </trkpt>
      <trkpt lat="44.11221" lon="7.35323">
        <ele>2427.4</ele>
        <time>2017-08-26T09:41:32Z</time>
      </trkpt>
      <trkpt lat="44.11221" lon="7.35326">
        <ele>2426.2</ele>
        <time>2017-08-26T09:41:36Z</time>
      </trkpt>
      <trkpt lat="44.11225" lon="7.35342">
        <ele>2423</ele>
        <time>2017-08-26T09:41:48Z</time>
      </trkpt>
      <trkpt lat="44.11223" lon="7.35343">
        <ele>2421.6</ele>
        <time>2017-08-26T09:41:55Z</time>
      </trkpt>
      <trkpt lat="44.11217" lon="7.35337">
        <ele>2420.2</ele>
        <time>2017-08-26T09:42:09Z</time>
      </trkpt>
      <trkpt lat="44.11211" lon="7.35339">
        <ele>2416.6</ele>
        <time>2017-08-26T09:42:23Z</time>
      </trkpt>
      <trkpt lat="44.11208" lon="7.35341">
        <ele>2414.7</ele>
        <time>2017-08-26T09:42:35Z</time>
      </trkpt>
      <trkpt lat="44.11206" lon="7.35341">
        <ele>2413.7</ele>
        <time>2017-08-26T09:42:40Z</time>
      </trkpt>
      <trkpt lat="44.11204" lon="7.35343">
        <ele>2412.3</ele>
        <time>2017-08-26T09:42:44Z</time>
      </trkpt>
      <trkpt lat="44.11203" lon="7.35358">
        <ele>2409</ele>
        <time>2017-08-26T09:42:57Z</time>
      </trkpt>
      <trkpt lat="44.11202" lon="7.35364">
        <ele>2407.9</ele>
        <time>2017-08-26T09:43:03Z</time>
      </trkpt>
      <trkpt lat="44.112" lon="7.35363">
        <ele>2407.1</ele>
        <time>2017-08-26T09:43:05Z</time>
      </trkpt>
      <trkpt lat="44.11193" lon="7.35351">
        <ele>2405.8</ele>
        <time>2017-08-26T09:43:16Z</time>
      </trkpt>
      <trkpt lat="44.11189" lon="7.3535">
        <ele>2404</ele>
        <time>2017-08-26T09:43:21Z</time>
      </trkpt>
      <trkpt lat="44.1119" lon="7.35371">
        <ele>2402</ele>
        <time>2017-08-26T09:43:36Z</time>
      </trkpt>
      <trkpt lat="44.1119" lon="7.35377">
        <ele>2401.6</ele>
        <time>2017-08-26T09:43:40Z</time>
      </trkpt>
      <trkpt lat="44.11187" lon="7.35375">
        <ele>2400.2</ele>
        <time>2017-08-26T09:43:47Z</time>
      </trkpt>
      <trkpt lat="44.11184" lon="7.35383">
        <ele>2398.2</ele>
        <time>2017-08-26T09:43:59Z</time>
      </trkpt>
      <trkpt lat="44.11183" lon="7.35391">
        <ele>2397.5</ele>
        <time>2017-08-26T09:44:11Z</time>
      </trkpt>
      <trkpt lat="44.11179" lon="7.35387">
        <ele>2395.4</ele>
        <time>2017-08-26T09:44:17Z</time>
      </trkpt>
      <trkpt lat="44.11174" lon="7.35388">
        <ele>2392.8</ele>
        <time>2017-08-26T09:44:29Z</time>
      </trkpt>
      <trkpt lat="44.11171" lon="7.35387">
        <ele>2391.3</ele>
        <time>2017-08-26T09:44:39Z</time>
      </trkpt>
      <trkpt lat="44.11164" lon="7.35393">
        <ele>2388.7</ele>
        <time>2017-08-26T09:44:53Z</time>
      </trkpt>
      <trkpt lat="44.11157" lon="7.35392">
        <ele>2386.5</ele>
        <time>2017-08-26T09:45:05Z</time>
      </trkpt>
      <trkpt lat="44.11156" lon="7.35391">
        <ele>2386.1</ele>
        <time>2017-08-26T09:45:06Z</time>
      </trkpt>
      <trkpt lat="44.11141" lon="7.35394">
        <ele>2382</ele>
        <time>2017-08-26T09:45:19Z</time>
      </trkpt>
      <trkpt lat="44.1114" lon="7.35395">
        <ele>2381.8</ele>
        <time>2017-08-26T09:45:20Z</time>
      </trkpt>
      <trkpt lat="44.11137" lon="7.354">
        <ele>2381.4</ele>
        <time>2017-08-26T09:45:24Z</time>
      </trkpt>
      <trkpt lat="44.11135" lon="7.35406">
        <ele>2381.3</ele>
        <time>2017-08-26T09:45:37Z</time>
      </trkpt>
      <trkpt lat="44.11134" lon="7.35406">
        <ele>2381.1</ele>
        <time>2017-08-26T09:45:39Z</time>
      </trkpt>
      <trkpt lat="44.11125" lon="7.35407">
        <ele>2379</ele>
        <time>2017-08-26T09:45:52Z</time>
      </trkpt>
      <trkpt lat="44.11123" lon="7.35405">
        <ele>2378.4</ele>
        <time>2017-08-26T09:45:54Z</time>
      </trkpt>
      <trkpt lat="44.11118" lon="7.35405">
        <ele>2377.2</ele>
        <time>2017-08-26T09:45:59Z</time>
      </trkpt>
      <trkpt lat="44.11116" lon="7.35406">
        <ele>2376.8</ele>
        <time>2017-08-26T09:46:01Z</time>
      </trkpt>
      <trkpt lat="44.11103" lon="7.35406">
        <ele>2373.9</ele>
        <time>2017-08-26T09:46:15Z</time>
      </trkpt>
      <trkpt lat="44.11087" lon="7.35396">
        <ele>2369.6</ele>
        <time>2017-08-26T09:46:29Z</time>
      </trkpt>
      <trkpt lat="44.11084" lon="7.35396">
        <ele>2368.9</ele>
        <time>2017-08-26T09:46:32Z</time>
      </trkpt>
      <trkpt lat="44.11081" lon="7.354">
        <ele>2368.8</ele>
        <time>2017-08-26T09:46:36Z</time>
      </trkpt>
      <trkpt lat="44.11077" lon="7.35399">
        <ele>2368</ele>
        <time>2017-08-26T09:46:40Z</time>
      </trkpt>
      <trkpt lat="44.11071" lon="7.35399">
        <ele>2367</ele>
        <time>2017-08-26T09:46:47Z</time>
      </trkpt>
      <trkpt lat="44.11064" lon="7.35397">
        <ele>2365.6</ele>
        <time>2017-08-26T09:46:54Z</time>
      </trkpt>
      <trkpt lat="44.11049" lon="7.35401">
        <ele>2363.7</ele>
        <time>2017-08-26T09:47:09Z</time>
      </trkpt>
      <trkpt lat="44.11048" lon="7.35402">
        <ele>2363.7</ele>
        <time>2017-08-26T09:47:10Z</time>
      </trkpt>
      <trkpt lat="44.11037" lon="7.35407">
        <ele>2362.7</ele>
        <time>2017-08-26T09:47:24Z</time>
      </trkpt>
      <trkpt lat="44.11037" lon="7.35407">
        <ele>2362.7</ele>
        <time>2017-08-26T09:47:28Z</time>
      </trkpt>
      <trkpt lat="44.11036" lon="7.35412">
        <ele>2363.4</ele>
        <time>2017-08-26T09:47:33Z</time>
      </trkpt>
      <trkpt lat="44.11031" lon="7.3542">
        <ele>2364.2</ele>
        <time>2017-08-26T09:47:40Z</time>
      </trkpt>
      <trkpt lat="44.11029" lon="7.35422">
        <ele>2364.3</ele>
        <time>2017-08-26T09:47:43Z</time>
      </trkpt>
      <trkpt lat="44.11024" lon="7.35424">
        <ele>2363.7</ele>
        <time>2017-08-26T09:47:48Z</time>
      </trkpt>
      <trkpt lat="44.11021" lon="7.35427">
        <ele>2363.7</ele>
        <time>2017-08-26T09:47:52Z</time>
      </trkpt>
      <trkpt lat="44.11019" lon="7.35432">
        <ele>2364.2</ele>
        <time>2017-08-26T09:47:58Z</time>
      </trkpt>
      <trkpt lat="44.11012" lon="7.35426">
        <ele>2361.4</ele>
        <time>2017-08-26T09:48:13Z</time>
      </trkpt>
      <trkpt lat="44.1101" lon="7.35432">
        <ele>2362.1</ele>
        <time>2017-08-26T09:48:26Z</time>
      </trkpt>
      <trkpt lat="44.11009" lon="7.35433">
        <ele>2362.1</ele>
        <time>2017-08-26T09:48:34Z</time>
      </trkpt>
      <trkpt lat="44.11002" lon="7.35435">
        <ele>2360.8</ele>
        <time>2017-08-26T09:48:46Z</time>
      </trkpt>
      <trkpt lat="44.11" lon="7.35429">
        <ele>2359.2</ele>
        <time>2017-08-26T09:48:58Z</time>
      </trkpt>
      <trkpt lat="44.10998" lon="7.3542">
        <ele>2356.9</ele>
        <time>2017-08-26T09:49:10Z</time>
      </trkpt>
      <trkpt lat="44.1099" lon="7.3542">
        <ele>2354.2</ele>
        <time>2017-08-26T09:49:21Z</time>
      </trkpt>
      <trkpt lat="44.10989" lon="7.35419">
        <ele>2353.8</ele>
        <time>2017-08-26T09:49:22Z</time>
      </trkpt>
      <trkpt lat="44.10987" lon="7.35417">
        <ele>2352.8</ele>
        <time>2017-08-26T09:49:25Z</time>
      </trkpt>
      <trkpt lat="44.10979" lon="7.35416">
        <ele>2350.1</ele>
        <time>2017-08-26T09:49:40Z</time>
      </trkpt>
      <trkpt lat="44.10972" lon="7.35422">
        <ele>2348.3</ele>
        <time>2017-08-26T09:49:53Z</time>
      </trkpt>
      <trkpt lat="44.10965" lon="7.35427">
        <ele>2346.3</ele>
        <time>2017-08-26T09:50:05Z</time>
      </trkpt>
      <trkpt lat="44.10962" lon="7.35426">
        <ele>2345.2</ele>
        <time>2017-08-26T09:50:10Z</time>
      </trkpt>
      <trkpt lat="44.10961" lon="7.35428">
        <ele>2344.9</ele>
        <time>2017-08-26T09:50:12Z</time>
      </trkpt>
      <trkpt lat="44.10957" lon="7.35423">
        <ele>2343.6</ele>
        <time>2017-08-26T09:50:25Z</time>
      </trkpt>
      <trkpt lat="44.10952" lon="7.3543">
        <ele>2341.7</ele>
        <time>2017-08-26T09:50:37Z</time>
      </trkpt>
      <trkpt lat="44.10952" lon="7.3543">
        <ele>2341.7</ele>
        <time>2017-08-26T09:50:42Z</time>
      </trkpt>
      <trkpt lat="44.10948" lon="7.35434">
        <ele>2340.1</ele>
        <time>2017-08-26T09:50:54Z</time>
      </trkpt>
      <trkpt lat="44.10947" lon="7.35439">
        <ele>2339.4</ele>
        <time>2017-08-26T09:51:05Z</time>
      </trkpt>
      <trkpt lat="44.10943" lon="7.35432">
        <ele>2338.4</ele>
        <time>2017-08-26T09:51:16Z</time>
      </trkpt>
      <trkpt lat="44.10941" lon="7.35431">
        <ele>2337.7</ele>
        <time>2017-08-26T09:51:26Z</time>
      </trkpt>
      <trkpt lat="44.10932" lon="7.35443">
        <ele>2332.8</ele>
        <time>2017-08-26T09:51:42Z</time>
      </trkpt>
      <trkpt lat="44.10928" lon="7.35444">
        <ele>2331</ele>
        <time>2017-08-26T09:51:52Z</time>
      </trkpt>
      <trkpt lat="44.10924" lon="7.35444">
        <ele>2329.2</ele>
        <time>2017-08-26T09:51:57Z</time>
      </trkpt>
      <trkpt lat="44.10923" lon="7.35453">
        <ele>2328.6</ele>
        <time>2017-08-26T09:52:10Z</time>
      </trkpt>
      <trkpt lat="44.10917" lon="7.35457">
        <ele>2325.7</ele>
        <time>2017-08-26T09:52:22Z</time>
      </trkpt>
      <trkpt lat="44.10913" lon="7.35468">
        <ele>2323.6</ele>
        <time>2017-08-26T09:52:31Z</time>
      </trkpt>
      <trkpt lat="44.10912" lon="7.35468">
        <ele>2323.2</ele>
        <time>2017-08-26T09:52:32Z</time>
      </trkpt>
      <trkpt lat="44.10906" lon="7.35474">
        <ele>2320.4</ele>
        <time>2017-08-26T09:52:42Z</time>
      </trkpt>
      <trkpt lat="44.10905" lon="7.35475">
        <ele>2320</ele>
        <time>2017-08-26T09:52:43Z</time>
      </trkpt>
      <trkpt lat="44.10897" lon="7.35475">
        <ele>2316.5</ele>
        <time>2017-08-26T09:52:54Z</time>
      </trkpt>
      <trkpt lat="44.10896" lon="7.35477">
        <ele>2316</ele>
        <time>2017-08-26T09:52:57Z</time>
      </trkpt>
      <trkpt lat="44.10888" lon="7.35481">
        <ele>2312.3</ele>
        <time>2017-08-26T09:53:10Z</time>
      </trkpt>
      <trkpt lat="44.10886" lon="7.3548">
        <ele>2311.4</ele>
        <time>2017-08-26T09:53:13Z</time>
      </trkpt>
      <trkpt lat="44.10878" lon="7.35478">
        <ele>2307.8</ele>
        <time>2017-08-26T09:53:26Z</time>
      </trkpt>
      <trkpt lat="44.10876" lon="7.35478">
        <ele>2306.9</ele>
        <time>2017-08-26T09:53:30Z</time>
      </trkpt>
      <trkpt lat="44.10875" lon="7.3548">
        <ele>2306.3</ele>
        <time>2017-08-26T09:53:36Z</time>
      </trkpt>
      <trkpt lat="44.10874" lon="7.35486">
        <ele>2305.3</ele>
        <time>2017-08-26T09:53:41Z</time>
      </trkpt>
      <trkpt lat="44.10875" lon="7.35494">
        <ele>2305</ele>
        <time>2017-08-26T09:53:51Z</time>
      </trkpt>
      <trkpt lat="44.10875" lon="7.35501">
        <ele>2304.1</ele>
        <time>2017-08-26T09:54:04Z</time>
      </trkpt>
      <trkpt lat="44.10869" lon="7.35502">
        <ele>2300.4</ele>
        <time>2017-08-26T09:54:15Z</time>
      </trkpt>
      <trkpt lat="44.10865" lon="7.35508">
        <ele>2295.7</ele>
        <time>2017-08-26T09:54:28Z</time>
      </trkpt>
      <trkpt lat="44.10859" lon="7.355">
        <ele>2295.9</ele>
        <time>2017-08-26T09:54:40Z</time>
      </trkpt>
      <trkpt lat="44.10853" lon="7.35486">
        <ele>2294.9</ele>
        <time>2017-08-26T09:54:54Z</time>
      </trkpt>
      <trkpt lat="44.10849" lon="7.35484">
        <ele>2293.3</ele>
        <time>2017-08-26T09:55:01Z</time>
      </trkpt>
      <trkpt lat="44.10849" lon="7.35488">
        <ele>2292.6</ele>
        <time>2017-08-26T09:55:05Z</time>
      </trkpt>
      <trkpt lat="44.1084" lon="7.35496">
        <ele>2286.4</ele>
        <time>2017-08-26T09:55:20Z</time>
      </trkpt>
      <trkpt lat="44.10838" lon="7.35502">
        <ele>2284.2</ele>
        <time>2017-08-26T09:55:32Z</time>
      </trkpt>
      <trkpt lat="44.10836" lon="7.35505">
        <ele>2282.7</ele>
        <time>2017-08-26T09:55:40Z</time>
      </trkpt>
      <trkpt lat="44.10835" lon="7.355">
        <ele>2282.9</ele>
        <time>2017-08-26T09:55:43Z</time>
      </trkpt>
      <trkpt lat="44.10831" lon="7.3551">
        <ele>2279.6</ele>
        <time>2017-08-26T09:55:55Z</time>
      </trkpt>
      <trkpt lat="44.10831" lon="7.35513">
        <ele>2279.3</ele>
        <time>2017-08-26T09:56:01Z</time>
      </trkpt>
      <trkpt lat="44.10828" lon="7.35517">
        <ele>2277.2</ele>
        <time>2017-08-26T09:56:10Z</time>
      </trkpt>
      <trkpt lat="44.10827" lon="7.35513">
        <ele>2277.1</ele>
        <time>2017-08-26T09:56:13Z</time>
      </trkpt>
      <trkpt lat="44.10826" lon="7.35509">
        <ele>2277</ele>
        <time>2017-08-26T09:56:17Z</time>
      </trkpt>
      <trkpt lat="44.10822" lon="7.35516">
        <ele>2273.9</ele>
        <time>2017-08-26T09:56:28Z</time>
      </trkpt>
      <trkpt lat="44.10818" lon="7.35517">
        <ele>2271.5</ele>
        <time>2017-08-26T09:56:42Z</time>
      </trkpt>
      <trkpt lat="44.10814" lon="7.35511">
        <ele>2270.1</ele>
        <time>2017-08-26T09:56:55Z</time>
      </trkpt>
      <trkpt lat="44.1081" lon="7.35517">
        <ele>2267</ele>
        <time>2017-08-26T09:57:07Z</time>
      </trkpt>
      <trkpt lat="44.10808" lon="7.35522">
        <ele>2265.2</ele>
        <time>2017-08-26T09:57:19Z</time>
      </trkpt>
      <trkpt lat="44.10807" lon="7.35519">
        <ele>2265.1</ele>
        <time>2017-08-26T09:57:34Z</time>
      </trkpt>
      <trkpt lat="44.10804" lon="7.35512">
        <ele>2264.3</ele>
        <time>2017-08-26T09:57:46Z</time>
      </trkpt>
      <trkpt lat="44.10798" lon="7.35509">
        <ele>2261.3</ele>
        <time>2017-08-26T09:57:59Z</time>
      </trkpt>
      <trkpt lat="44.10797" lon="7.35522">
        <ele>2258.2</ele>
        <time>2017-08-26T09:58:16Z</time>
      </trkpt>
      <trkpt lat="44.10795" lon="7.35525">
        <ele>2256.3</ele>
        <time>2017-08-26T09:58:29Z</time>
      </trkpt>
      <trkpt lat="44.10793" lon="7.35521">
        <ele>2255.8</ele>
        <time>2017-08-26T09:58:42Z</time>
      </trkpt>
      <trkpt lat="44.10789" lon="7.35525">
        <ele>2252.3</ele>
        <time>2017-08-26T09:58:55Z</time>
      </trkpt>
      <trkpt lat="44.10787" lon="7.35535">
        <ele>2246.2</ele>
        <time>2017-08-26T09:59:06Z</time>
      </trkpt>
      <trkpt lat="44.10784" lon="7.3553">
        <ele>2247</ele>
        <time>2017-08-26T09:59:23Z</time>
      </trkpt>
      <trkpt lat="44.10781" lon="7.35521">
        <ele>2248</ele>
        <time>2017-08-26T09:59:39Z</time>
      </trkpt>
      <trkpt lat="44.10779" lon="7.35516">
        <ele>2248.2</ele>
        <time>2017-08-26T09:59:51Z</time>
      </trkpt>
      <trkpt lat="44.10776" lon="7.35512">
        <ele>2248.2</ele>
        <time>2017-08-26T09:59:59Z</time>
      </trkpt>
      <trkpt lat="44.10771" lon="7.3551">
        <ele>2247.8</ele>
        <time>2017-08-26T10:00:05Z</time>
      </trkpt>
      <trkpt lat="44.10769" lon="7.3551">
        <ele>2247.4</ele>
        <time>2017-08-26T10:00:07Z</time>
      </trkpt>
      <trkpt lat="44.10755" lon="7.35508">
        <ele>2245.5</ele>
        <time>2017-08-26T10:00:20Z</time>
      </trkpt>
      <trkpt lat="44.10748" lon="7.35505">
        <ele>2245.8</ele>
        <time>2017-08-26T10:00:25Z</time>
      </trkpt>
      <trkpt lat="44.10744" lon="7.35506">
        <ele>2245.4</ele>
        <time>2017-08-26T10:00:28Z</time>
      </trkpt>
      <trkpt lat="44.10732" lon="7.35513">
        <ele>2242.1</ele>
        <time>2017-08-26T10:00:43Z</time>
      </trkpt>
      <trkpt lat="44.10731" lon="7.35513">
        <ele>2242.1</ele>
        <time>2017-08-26T10:00:44Z</time>
      </trkpt>
      <trkpt lat="44.10728" lon="7.35513">
        <ele>2242</ele>
        <time>2017-08-26T10:00:48Z</time>
      </trkpt>
      <trkpt lat="44.10719" lon="7.35513">
        <ele>2241.9</ele>
        <time>2017-08-26T10:00:56Z</time>
      </trkpt>
      <trkpt lat="44.10705" lon="7.35512">
        <ele>2242.4</ele>
        <time>2017-08-26T10:01:10Z</time>
      </trkpt>
      <trkpt lat="44.107" lon="7.35513">
        <ele>2241.9</ele>
        <time>2017-08-26T10:01:14Z</time>
      </trkpt>
      <trkpt lat="44.10687" lon="7.35512">
        <ele>2243.2</ele>
        <time>2017-08-26T10:01:28Z</time>
      </trkpt>
      <trkpt lat="44.10677" lon="7.35517">
        <ele>2241.9</ele>
        <time>2017-08-26T10:01:40Z</time>
      </trkpt>
      <trkpt lat="44.10674" lon="7.35515">
        <ele>2243.2</ele>
        <time>2017-08-26T10:01:52Z</time>
      </trkpt>
      <trkpt lat="44.10668" lon="7.35514">
        <ele>2244.3</ele>
        <time>2017-08-26T10:02:04Z</time>
      </trkpt>
      <trkpt lat="44.10661" lon="7.35516">
        <ele>2243.9</ele>
        <time>2017-08-26T10:02:12Z</time>
      </trkpt>
      <trkpt lat="44.10656" lon="7.35517">
        <ele>2243.8</ele>
        <time>2017-08-26T10:02:17Z</time>
      </trkpt>
      <trkpt lat="44.10642" lon="7.35521">
        <ele>2242.9</ele>
        <time>2017-08-26T10:02:31Z</time>
      </trkpt>
      <trkpt lat="44.10634" lon="7.3552">
        <ele>2243.8</ele>
        <time>2017-08-26T10:02:40Z</time>
      </trkpt>
      <trkpt lat="44.10622" lon="7.35524">
        <ele>2242.3</ele>
        <time>2017-08-26T10:02:54Z</time>
      </trkpt>
      <trkpt lat="44.10613" lon="7.35524">
        <ele>2242.6</ele>
        <time>2017-08-26T10:03:05Z</time>
      </trkpt>
      <trkpt lat="44.10605" lon="7.35523">
        <ele>2243.5</ele>
        <time>2017-08-26T10:03:16Z</time>
      </trkpt>
      <trkpt lat="44.10602" lon="7.35522">
        <ele>2244.1</ele>
        <time>2017-08-26T10:03:24Z</time>
      </trkpt>
      <trkpt lat="44.10591" lon="7.35522">
        <ele>2244.8</ele>
        <time>2017-08-26T10:03:37Z</time>
      </trkpt>
      <trkpt lat="44.1059" lon="7.35522">
        <ele>2244.9</ele>
        <time>2017-08-26T10:03:38Z</time>
      </trkpt>
      <trkpt lat="44.10585" lon="7.35522">
        <ele>2245.2</ele>
        <time>2017-08-26T10:03:42Z</time>
      </trkpt>
      <trkpt lat="44.10579" lon="7.35525">
        <ele>2244.3</ele>
        <time>2017-08-26T10:03:47Z</time>
      </trkpt>
      <trkpt lat="44.10576" lon="7.35526">
        <ele>2244</ele>
        <time>2017-08-26T10:03:49Z</time>
      </trkpt>
      <trkpt lat="44.10571" lon="7.35523">
        <ele>2245.3</ele>
        <time>2017-08-26T10:04:02Z</time>
      </trkpt>
      <trkpt lat="44.10564" lon="7.35522">
        <ele>2246</ele>
        <time>2017-08-26T10:04:12Z</time>
      </trkpt>
      <trkpt lat="44.10554" lon="7.35525">
        <ele>2245.3</ele>
        <time>2017-08-26T10:04:24Z</time>
      </trkpt>
      <trkpt lat="44.10546" lon="7.35531">
        <ele>2244.3</ele>
        <time>2017-08-26T10:04:36Z</time>
      </trkpt>
      <trkpt lat="44.10541" lon="7.35537">
        <ele>2243.1</ele>
        <time>2017-08-26T10:04:48Z</time>
      </trkpt>
      <trkpt lat="44.10535" lon="7.35544">
        <ele>2241.7</ele>
        <time>2017-08-26T10:05:00Z</time>
      </trkpt>
      <trkpt lat="44.10534" lon="7.35545">
        <ele>2241.5</ele>
        <time>2017-08-26T10:05:03Z</time>
      </trkpt>
      <trkpt lat="44.10533" lon="7.35548">
        <ele>2240.7</ele>
        <time>2017-08-26T10:05:16Z</time>
      </trkpt>
      <trkpt lat="44.10524" lon="7.35558">
        <ele>2239.1</ele>
        <time>2017-08-26T10:05:30Z</time>
      </trkpt>
      <trkpt lat="44.10511" lon="7.35571">
        <ele>2237.9</ele>
        <time>2017-08-26T10:05:45Z</time>
      </trkpt>
      <trkpt lat="44.10504" lon="7.35584">
        <ele>2235</ele>
        <time>2017-08-26T10:05:58Z</time>
      </trkpt>
      <trkpt lat="44.10503" lon="7.35585">
        <ele>2234.8</ele>
        <time>2017-08-26T10:05:59Z</time>
      </trkpt>
      <trkpt lat="44.10494" lon="7.35591">
        <ele>2233.4</ele>
        <time>2017-08-26T10:06:07Z</time>
      </trkpt>
      <trkpt lat="44.10493" lon="7.35594">
        <ele>2231.8</ele>
        <time>2017-08-26T10:06:09Z</time>
      </trkpt>
      <trkpt lat="44.10481" lon="7.35601">
        <ele>2230.5</ele>
        <time>2017-08-26T10:06:27Z</time>
      </trkpt>
      <trkpt lat="44.10471" lon="7.35606">
        <ele>2230.3</ele>
        <time>2017-08-26T10:06:42Z</time>
      </trkpt>
      <trkpt lat="44.10458" lon="7.35613">
        <ele>2230</ele>
        <time>2017-08-26T10:06:55Z</time>
      </trkpt>
      <trkpt lat="44.10448" lon="7.35624">
        <ele>2226.1</ele>
        <time>2017-08-26T10:07:08Z</time>
      </trkpt>
      <trkpt lat="44.10435" lon="7.35638">
        <ele>2221.3</ele>
        <time>2017-08-26T10:07:21Z</time>
      </trkpt>
      <trkpt lat="44.10425" lon="7.35647">
        <ele>2218.8</ele>
        <time>2017-08-26T10:07:33Z</time>
      </trkpt>
      <trkpt lat="44.10415" lon="7.35656">
        <ele>2216.2</ele>
        <time>2017-08-26T10:07:46Z</time>
      </trkpt>
      <trkpt lat="44.10408" lon="7.35665">
        <ele>2213.4</ele>
        <time>2017-08-26T10:08:00Z</time>
      </trkpt>
      <trkpt lat="44.104" lon="7.35675">
        <ele>2211.2</ele>
        <time>2017-08-26T10:08:14Z</time>
      </trkpt>
      <trkpt lat="44.10393" lon="7.35686">
        <ele>2208</ele>
        <time>2017-08-26T10:08:28Z</time>
      </trkpt>
      <trkpt lat="44.10391" lon="7.35692">
        <ele>2205.6</ele>
        <time>2017-08-26T10:08:40Z</time>
      </trkpt>
      <trkpt lat="44.10389" lon="7.35699">
        <ele>2202.3</ele>
        <time>2017-08-26T10:08:54Z</time>
      </trkpt>
      <trkpt lat="44.10387" lon="7.35701">
        <ele>2201.9</ele>
        <time>2017-08-26T10:09:08Z</time>
      </trkpt>
      <trkpt lat="44.10388" lon="7.35704">
        <ele>2199.8</ele>
        <time>2017-08-26T10:09:23Z</time>
      </trkpt>
      <trkpt lat="44.10386" lon="7.35706">
        <ele>2199.3</ele>
        <time>2017-08-26T10:09:39Z</time>
      </trkpt>
      <trkpt lat="44.10387" lon="7.35707">
        <ele>2198.4</ele>
        <time>2017-08-26T10:09:52Z</time>
      </trkpt>
      <trkpt lat="44.10389" lon="7.35709">
        <ele>2196.6</ele>
        <time>2017-08-26T10:10:05Z</time>
      </trkpt>
      <trkpt lat="44.10389" lon="7.35711">
        <ele>2195.4</ele>
        <time>2017-08-26T10:10:17Z</time>
      </trkpt>
      <trkpt lat="44.10389" lon="7.35716">
        <ele>2192.6</ele>
        <time>2017-08-26T10:10:32Z</time>
      </trkpt>
      <trkpt lat="44.1039" lon="7.35725">
        <ele>2187.4</ele>
        <time>2017-08-26T10:10:46Z</time>
      </trkpt>
      <trkpt lat="44.1039" lon="7.35725">
        <ele>2187.4</ele>
        <time>2017-08-26T10:10:47Z</time>
      </trkpt>
      <trkpt lat="44.10391" lon="7.3573">
        <ele>2184.7</ele>
        <time>2017-08-26T10:11:00Z</time>
      </trkpt>
      <trkpt lat="44.10392" lon="7.35732">
        <ele>2183.6</ele>
        <time>2017-08-26T10:11:17Z</time>
      </trkpt>
      <trkpt lat="44.10392" lon="7.35733">
        <ele>2183.1</ele>
        <time>2017-08-26T10:11:24Z</time>
      </trkpt>
      <trkpt lat="44.10381" lon="7.35742">
        <ele>2179.8</ele>
        <time>2017-08-26T10:11:38Z</time>
      </trkpt>
      <trkpt lat="44.10367" lon="7.35749">
        <ele>2176.5</ele>
        <time>2017-08-26T10:11:53Z</time>
      </trkpt>
      <trkpt lat="44.10363" lon="7.35752">
        <ele>2175</ele>
        <time>2017-08-26T10:11:58Z</time>
      </trkpt>
      <trkpt lat="44.10352" lon="7.35761">
        <ele>2173.5</ele>
        <time>2017-08-26T10:12:12Z</time>
      </trkpt>
      <trkpt lat="44.10347" lon="7.35775">
        <ele>2168.4</ele>
        <time>2017-08-26T10:12:29Z</time>
      </trkpt>
      <trkpt lat="44.10342" lon="7.35787">
        <ele>2164.7</ele>
        <time>2017-08-26T10:12:44Z</time>
      </trkpt>
      <trkpt lat="44.1034" lon="7.35791">
        <ele>2163.6</ele>
        <time>2017-08-26T10:12:49Z</time>
      </trkpt>
      <trkpt lat="44.10332" lon="7.35802">
        <ele>2160.7</ele>
        <time>2017-08-26T10:13:02Z</time>
      </trkpt>
      <trkpt lat="44.1033" lon="7.35804">
        <ele>2160.2</ele>
        <time>2017-08-26T10:13:05Z</time>
      </trkpt>
      <trkpt lat="44.10335" lon="7.35807">
        <ele>2158</ele>
        <time>2017-08-26T10:13:11Z</time>
      </trkpt>
      <trkpt lat="44.10336" lon="7.35808">
        <ele>2157.4</ele>
        <time>2017-08-26T10:13:19Z</time>
      </trkpt>
      <trkpt lat="44.10339" lon="7.3581">
        <ele>2156</ele>
        <time>2017-08-26T10:13:22Z</time>
      </trkpt>
      <trkpt lat="44.10342" lon="7.3581">
        <ele>2155.4</ele>
        <time>2017-08-26T10:13:27Z</time>
      </trkpt>
      <trkpt lat="44.10345" lon="7.35813">
        <ele>2153.6</ele>
        <time>2017-08-26T10:13:39Z</time>
      </trkpt>
      <trkpt lat="44.10344" lon="7.35819">
        <ele>2151.4</ele>
        <time>2017-08-26T10:13:46Z</time>
      </trkpt>
      <trkpt lat="44.10343" lon="7.35844">
        <ele>2141.7</ele>
        <time>2017-08-26T10:14:02Z</time>
      </trkpt>
      <trkpt lat="44.10339" lon="7.35853">
        <ele>2138.3</ele>
        <time>2017-08-26T10:14:11Z</time>
      </trkpt>
      <trkpt lat="44.1034" lon="7.35859">
        <ele>2135.9</ele>
        <time>2017-08-26T10:14:20Z</time>
      </trkpt>
      <trkpt lat="44.10341" lon="7.35862">
        <ele>2134.8</ele>
        <time>2017-08-26T10:14:26Z</time>
      </trkpt>
      <trkpt lat="44.1034" lon="7.35866">
        <ele>2133.8</ele>
        <time>2017-08-26T10:14:37Z</time>
      </trkpt>
      <trkpt lat="44.10338" lon="7.35874">
        <ele>2131.6</ele>
        <time>2017-08-26T10:14:50Z</time>
      </trkpt>
      <trkpt lat="44.10339" lon="7.35877">
        <ele>2130.9</ele>
        <time>2017-08-26T10:15:05Z</time>
      </trkpt>
      <trkpt lat="44.10335" lon="7.35883">
        <ele>2128.9</ele>
        <time>2017-08-26T10:15:16Z</time>
      </trkpt>
      <trkpt lat="44.1034" lon="7.3589">
        <ele>2127.9</ele>
        <time>2017-08-26T10:15:27Z</time>
      </trkpt>
      <trkpt lat="44.10338" lon="7.35892">
        <ele>2127.4</ele>
        <time>2017-08-26T10:15:39Z</time>
      </trkpt>
      <trkpt lat="44.10334" lon="7.35892">
        <ele>2126.8</ele>
        <time>2017-08-26T10:15:54Z</time>
      </trkpt>
      <trkpt lat="44.1033" lon="7.35892">
        <ele>2126</ele>
        <time>2017-08-26T10:16:08Z</time>
      </trkpt>
      <trkpt lat="44.10329" lon="7.35892">
        <ele>2125.8</ele>
        <time>2017-08-26T10:16:20Z</time>
      </trkpt>
      <trkpt lat="44.10328" lon="7.35892">
        <ele>2125.6</ele>
        <time>2017-08-26T10:16:24Z</time>
      </trkpt>
      <trkpt lat="44.10318" lon="7.35892">
        <ele>2123.6</ele>
        <time>2017-08-26T10:16:39Z</time>
      </trkpt>
      <trkpt lat="44.10319" lon="7.35895">
        <ele>2123.2</ele>
        <time>2017-08-26T10:16:47Z</time>
      </trkpt>
      <trkpt lat="44.10325" lon="7.359">
        <ele>2123.7</ele>
        <time>2017-08-26T10:16:59Z</time>
      </trkpt>
      <trkpt lat="44.10324" lon="7.35904">
        <ele>2122.8</ele>
        <time>2017-08-26T10:17:16Z</time>
      </trkpt>
      <trkpt lat="44.10321" lon="7.35905">
        <ele>2121.8</ele>
        <time>2017-08-26T10:17:28Z</time>
      </trkpt>
      <trkpt lat="44.10319" lon="7.35908">
        <ele>2120.6</ele>
        <time>2017-08-26T10:17:39Z</time>
      </trkpt>
      <trkpt lat="44.10316" lon="7.35909">
        <ele>2119.4</ele>
        <time>2017-08-26T10:17:53Z</time>
      </trkpt>
      <trkpt lat="44.10311" lon="7.3591">
        <ele>2117.6</ele>
        <time>2017-08-26T10:18:04Z</time>
      </trkpt>
      <trkpt lat="44.1031" lon="7.3591">
        <ele>2117.3</ele>
        <time>2017-08-26T10:18:24Z</time>
      </trkpt>
      <trkpt lat="44.1031" lon="7.3591">
        <ele>2117.3</ele>
        <time>2017-08-26T10:18:46Z</time>
      </trkpt>
      <trkpt lat="44.1031" lon="7.3591">
        <ele>2117.3</ele>
        <time>2017-08-26T10:19:05Z</time>
      </trkpt>
      <trkpt lat="44.1031" lon="7.3591">
        <ele>2117.3</ele>
        <time>2017-08-26T10:19:24Z</time>
      </trkpt>
      <trkpt lat="44.10306" lon="7.35912">
        <ele>2115.5</ele>
        <time>2017-08-26T10:19:38Z</time>
      </trkpt>
      <trkpt lat="44.10298" lon="7.35915">
        <ele>2111.8</ele>
        <time>2017-08-26T10:19:50Z</time>
      </trkpt>
      <trkpt lat="44.10292" lon="7.35914">
        <ele>2110.1</ele>
        <time>2017-08-26T10:20:02Z</time>
      </trkpt>
      <trkpt lat="44.10287" lon="7.35914">
        <ele>2108.4</ele>
        <time>2017-08-26T10:20:17Z</time>
      </trkpt>
      <trkpt lat="44.10282" lon="7.35917">
        <ele>2105.5</ele>
        <time>2017-08-26T10:20:27Z</time>
      </trkpt>
      <trkpt lat="44.10278" lon="7.35915">
        <ele>2104.9</ele>
        <time>2017-08-26T10:20:34Z</time>
      </trkpt>
      <trkpt lat="44.10278" lon="7.35915">
        <ele>2104.9</ele>
        <time>2017-08-26T10:20:35Z</time>
      </trkpt>
      <trkpt lat="44.10276" lon="7.35918">
        <ele>2103.5</ele>
        <time>2017-08-26T10:20:43Z</time>
      </trkpt>
      <trkpt lat="44.10269" lon="7.35915">
        <ele>2102.6</ele>
        <time>2017-08-26T10:20:55Z</time>
      </trkpt>
      <trkpt lat="44.10265" lon="7.35914">
        <ele>2102.1</ele>
        <time>2017-08-26T10:21:04Z</time>
      </trkpt>
      <trkpt lat="44.10263" lon="7.35915">
        <ele>2101.1</ele>
        <time>2017-08-26T10:21:10Z</time>
      </trkpt>
      <trkpt lat="44.10264" lon="7.35921">
        <ele>2099.8</ele>
        <time>2017-08-26T10:21:23Z</time>
      </trkpt>
      <trkpt lat="44.10258" lon="7.35923">
        <ele>2097.7</ele>
        <time>2017-08-26T10:21:36Z</time>
      </trkpt>
      <trkpt lat="44.10251" lon="7.3592">
        <ele>2096.3</ele>
        <time>2017-08-26T10:21:51Z</time>
      </trkpt>
      <trkpt lat="44.1025" lon="7.35919">
        <ele>2096.3</ele>
        <time>2017-08-26T10:21:52Z</time>
      </trkpt>
      <trkpt lat="44.10247" lon="7.35918">
        <ele>2096.1</ele>
        <time>2017-08-26T10:21:55Z</time>
      </trkpt>
      <trkpt lat="44.1024" lon="7.35916">
        <ele>2095.6</ele>
        <time>2017-08-26T10:22:02Z</time>
      </trkpt>
      <trkpt lat="44.10223" lon="7.35919">
        <ele>2091.1</ele>
        <time>2017-08-26T10:22:16Z</time>
      </trkpt>
      <trkpt lat="44.10217" lon="7.35921">
        <ele>2090</ele>
        <time>2017-08-26T10:22:21Z</time>
      </trkpt>
      <trkpt lat="44.10205" lon="7.35922">
        <ele>2089.6</ele>
        <time>2017-08-26T10:22:35Z</time>
      </trkpt>
      <trkpt lat="44.10204" lon="7.35922">
        <ele>2089.7</ele>
        <time>2017-08-26T10:22:38Z</time>
      </trkpt>
      <trkpt lat="44.10198" lon="7.35923">
        <ele>2089.1</ele>
        <time>2017-08-26T10:22:51Z</time>
      </trkpt>
      <trkpt lat="44.1019" lon="7.35926">
        <ele>2087.4</ele>
        <time>2017-08-26T10:23:04Z</time>
      </trkpt>
      <trkpt lat="44.10184" lon="7.35933">
        <ele>2083.7</ele>
        <time>2017-08-26T10:23:15Z</time>
      </trkpt>
      <trkpt lat="44.10179" lon="7.35938">
        <ele>2081.5</ele>
        <time>2017-08-26T10:23:21Z</time>
      </trkpt>
      <trkpt lat="44.10176" lon="7.35942">
        <ele>2079.9</ele>
        <time>2017-08-26T10:23:27Z</time>
      </trkpt>
      <trkpt lat="44.10172" lon="7.35949">
        <ele>2077.5</ele>
        <time>2017-08-26T10:23:40Z</time>
      </trkpt>
      <trkpt lat="44.10164" lon="7.35961">
        <ele>2073.3</ele>
        <time>2017-08-26T10:23:54Z</time>
      </trkpt>
      <trkpt lat="44.1016" lon="7.3597">
        <ele>2069.8</ele>
        <time>2017-08-26T10:24:06Z</time>
      </trkpt>
      <trkpt lat="44.10159" lon="7.35973">
        <ele>2068.7</ele>
        <time>2017-08-26T10:24:16Z</time>
      </trkpt>
      <trkpt lat="44.10152" lon="7.35979">
        <ele>2066.7</ele>
        <time>2017-08-26T10:24:30Z</time>
      </trkpt>
      <trkpt lat="44.10148" lon="7.35983">
        <ele>2065.6</ele>
        <time>2017-08-26T10:24:44Z</time>
      </trkpt>
      <trkpt lat="44.10148" lon="7.35983">
        <ele>2065.6</ele>
        <time>2017-08-26T10:24:59Z</time>
      </trkpt>
      <trkpt lat="44.10146" lon="7.35984">
        <ele>2065.5</ele>
        <time>2017-08-26T10:25:24Z</time>
      </trkpt>
      <trkpt lat="44.10142" lon="7.35984">
        <ele>2065.8</ele>
        <time>2017-08-26T10:25:37Z</time>
      </trkpt>
      <trkpt lat="44.10138" lon="7.35985">
        <ele>2065.7</ele>
        <time>2017-08-26T10:25:50Z</time>
      </trkpt>
      <trkpt lat="44.10131" lon="7.35984">
        <ele>2065</ele>
        <time>2017-08-26T10:26:02Z</time>
      </trkpt>
      <trkpt lat="44.10121" lon="7.35985">
        <ele>2063.5</ele>
        <time>2017-08-26T10:26:14Z</time>
      </trkpt>
      <trkpt lat="44.10113" lon="7.35986">
        <ele>2062.3</ele>
        <time>2017-08-26T10:26:29Z</time>
      </trkpt>
      <trkpt lat="44.10109" lon="7.35988">
        <ele>2061.1</ele>
        <time>2017-08-26T10:26:34Z</time>
      </trkpt>
      <trkpt lat="44.10106" lon="7.35993">
        <ele>2059.5</ele>
        <time>2017-08-26T10:26:40Z</time>
      </trkpt>
      <trkpt lat="44.10103" lon="7.35997">
        <ele>2058.1</ele>
        <time>2017-08-26T10:26:49Z</time>
      </trkpt>
      <trkpt lat="44.101" lon="7.36007">
        <ele>2056</ele>
        <time>2017-08-26T10:27:03Z</time>
      </trkpt>
      <trkpt lat="44.10091" lon="7.36011">
        <ele>2053.8</ele>
        <time>2017-08-26T10:27:17Z</time>
      </trkpt>
      <trkpt lat="44.10085" lon="7.36009">
        <ele>2053</ele>
        <time>2017-08-26T10:27:26Z</time>
      </trkpt>
      <trkpt lat="44.10081" lon="7.36006">
        <ele>2052.5</ele>
        <time>2017-08-26T10:27:32Z</time>
      </trkpt>
      <trkpt lat="44.10071" lon="7.36003">
        <ele>2050.4</ele>
        <time>2017-08-26T10:27:42Z</time>
      </trkpt>
      <trkpt lat="44.10064" lon="7.36003">
        <ele>2048.6</ele>
        <time>2017-08-26T10:27:47Z</time>
      </trkpt>
      <trkpt lat="44.10062" lon="7.36001">
        <ele>2048.5</ele>
        <time>2017-08-26T10:27:49Z</time>
      </trkpt>
      <trkpt lat="44.10059" lon="7.36006">
        <ele>2046.8</ele>
        <time>2017-08-26T10:27:58Z</time>
      </trkpt>
      <trkpt lat="44.10058" lon="7.36013">
        <ele>2045.3</ele>
        <time>2017-08-26T10:28:04Z</time>
      </trkpt>
      <trkpt lat="44.10051" lon="7.36018">
        <ele>2043.2</ele>
        <time>2017-08-26T10:28:18Z</time>
      </trkpt>
      <trkpt lat="44.10047" lon="7.36022">
        <ele>2042.1</ele>
        <time>2017-08-26T10:28:25Z</time>
      </trkpt>
      <trkpt lat="44.10036" lon="7.36021">
        <ele>2040.9</ele>
        <time>2017-08-26T10:28:39Z</time>
      </trkpt>
      <trkpt lat="44.1002" lon="7.36019">
        <ele>2038.7</ele>
        <time>2017-08-26T10:28:54Z</time>
      </trkpt>
      <trkpt lat="44.10017" lon="7.36019">
        <ele>2038</ele>
        <time>2017-08-26T10:28:57Z</time>
      </trkpt>
      <trkpt lat="44.10004" lon="7.36016">
        <ele>2036.2</ele>
        <time>2017-08-26T10:29:12Z</time>
      </trkpt>
      <trkpt lat="44.1" lon="7.36016">
        <ele>2035.4</ele>
        <time>2017-08-26T10:29:18Z</time>
      </trkpt>
      <trkpt lat="44.09993" lon="7.36013">
        <ele>2034.2</ele>
        <time>2017-08-26T10:29:31Z</time>
      </trkpt>
      <trkpt lat="44.09989" lon="7.36009">
        <ele>2034.2</ele>
        <time>2017-08-26T10:29:37Z</time>
      </trkpt>
      <trkpt lat="44.09984" lon="7.36003">
        <ele>2034.5</ele>
        <time>2017-08-26T10:29:50Z</time>
      </trkpt>
      <trkpt lat="44.09978" lon="7.36003">
        <ele>2032.8</ele>
        <time>2017-08-26T10:30:02Z</time>
      </trkpt>
      <trkpt lat="44.09975" lon="7.36002">
        <ele>2032.2</ele>
        <time>2017-08-26T10:30:06Z</time>
      </trkpt>
      <trkpt lat="44.0997" lon="7.36">
        <ele>2031.4</ele>
        <time>2017-08-26T10:30:14Z</time>
      </trkpt>
      <trkpt lat="44.09961" lon="7.35997">
        <ele>2030</ele>
        <time>2017-08-26T10:30:27Z</time>
      </trkpt>
      <trkpt lat="44.09954" lon="7.35996">
        <ele>2028.5</ele>
        <time>2017-08-26T10:30:38Z</time>
      </trkpt>
      <trkpt lat="44.09942" lon="7.3599">
        <ele>2026.8</ele>
        <time>2017-08-26T10:30:52Z</time>
      </trkpt>
      <trkpt lat="44.09942" lon="7.3599">
        <ele>2026.8</ele>
        <time>2017-08-26T10:30:54Z</time>
      </trkpt>
      <trkpt lat="44.09931" lon="7.35981">
        <ele>2025.8</ele>
        <time>2017-08-26T10:31:09Z</time>
      </trkpt>
      <trkpt lat="44.09924" lon="7.35977">
        <ele>2024.8</ele>
        <time>2017-08-26T10:31:21Z</time>
      </trkpt>
      <trkpt lat="44.09917" lon="7.35974">
        <ele>2023.6</ele>
        <time>2017-08-26T10:31:35Z</time>
      </trkpt>
      <trkpt lat="44.0991" lon="7.3597">
        <ele>2022.1</ele>
        <time>2017-08-26T10:31:48Z</time>
      </trkpt>
      <trkpt lat="44.09905" lon="7.35967">
        <ele>2021.1</ele>
        <time>2017-08-26T10:31:58Z</time>
      </trkpt>
      <trkpt lat="44.09895" lon="7.35962">
        <ele>2019.2</ele>
        <time>2017-08-26T10:32:12Z</time>
      </trkpt>
      <trkpt lat="44.09893" lon="7.35961">
        <ele>2018.9</ele>
        <time>2017-08-26T10:32:13Z</time>
      </trkpt>
      <trkpt lat="44.0988" lon="7.35958">
        <ele>2014.5</ele>
        <time>2017-08-26T10:32:28Z</time>
      </trkpt>
      <trkpt lat="44.09877" lon="7.35956">
        <ele>2013.9</ele>
        <time>2017-08-26T10:32:43Z</time>
      </trkpt>
      <trkpt lat="44.09873" lon="7.35952">
        <ele>2013.6</ele>
        <time>2017-08-26T10:32:55Z</time>
      </trkpt>
      <trkpt lat="44.09868" lon="7.35947">
        <ele>2013.2</ele>
        <time>2017-08-26T10:33:05Z</time>
      </trkpt>
      <trkpt lat="44.09866" lon="7.35943">
        <ele>2013.4</ele>
        <time>2017-08-26T10:33:08Z</time>
      </trkpt>
      <trkpt lat="44.09861" lon="7.35931">
        <ele>2011.9</ele>
        <time>2017-08-26T10:33:19Z</time>
      </trkpt>
      <trkpt lat="44.09861" lon="7.35928">
        <ele>2012.1</ele>
        <time>2017-08-26T10:33:24Z</time>
      </trkpt>
      <trkpt lat="44.09861" lon="7.35917">
        <ele>2012.9</ele>
        <time>2017-08-26T10:33:35Z</time>
      </trkpt>
      <trkpt lat="44.09862" lon="7.35914">
        <ele>2012.9</ele>
        <time>2017-08-26T10:33:38Z</time>
      </trkpt>
      <trkpt lat="44.0987" lon="7.35894">
        <ele>2012.6</ele>
        <time>2017-08-26T10:33:53Z</time>
      </trkpt>
      <trkpt lat="44.09873" lon="7.35888">
        <ele>2012.8</ele>
        <time>2017-08-26T10:33:58Z</time>
      </trkpt>
      <trkpt lat="44.09879" lon="7.35878">
        <ele>2013.2</ele>
        <time>2017-08-26T10:34:10Z</time>
      </trkpt>
      <trkpt lat="44.0988" lon="7.35862">
        <ele>2009.4</ele>
        <time>2017-08-26T10:34:22Z</time>
      </trkpt>
      <trkpt lat="44.0987" lon="7.35851">
        <ele>2006.7</ele>
        <time>2017-08-26T10:34:35Z</time>
      </trkpt>
      <trkpt lat="44.09861" lon="7.35845">
        <ele>2003.9</ele>
        <time>2017-08-26T10:34:47Z</time>
      </trkpt>
      <trkpt lat="44.09859" lon="7.35843">
        <ele>2003.4</ele>
        <time>2017-08-26T10:34:52Z</time>
      </trkpt>
      <trkpt lat="44.09856" lon="7.35841">
        <ele>2002.5</ele>
        <time>2017-08-26T10:34:55Z</time>
      </trkpt>
      <trkpt lat="44.09849" lon="7.35835">
        <ele>2000.5</ele>
        <time>2017-08-26T10:35:10Z</time>
      </trkpt>
      <trkpt lat="44.09844" lon="7.35828">
        <ele>1999.7</ele>
        <time>2017-08-26T10:35:18Z</time>
      </trkpt>
      <trkpt lat="44.0984" lon="7.35824">
        <ele>1998.7</ele>
        <time>2017-08-26T10:35:21Z</time>
      </trkpt>
      <trkpt lat="44.09836" lon="7.35818">
        <ele>1998</ele>
        <time>2017-08-26T10:35:26Z</time>
      </trkpt>
      <trkpt lat="44.09831" lon="7.35824">
        <ele>1994.7</ele>
        <time>2017-08-26T10:35:32Z</time>
      </trkpt>
      <trkpt lat="44.09835" lon="7.35842">
        <ele>1993.5</ele>
        <time>2017-08-26T10:35:47Z</time>
      </trkpt>
      <trkpt lat="44.09841" lon="7.35855">
        <ele>1994</ele>
        <time>2017-08-26T10:35:59Z</time>
      </trkpt>
      <trkpt lat="44.09842" lon="7.35863">
        <ele>1993.7</ele>
        <time>2017-08-26T10:36:05Z</time>
      </trkpt>
      <trkpt lat="44.09836" lon="7.3586">
        <ele>1991.2</ele>
        <time>2017-08-26T10:36:19Z</time>
      </trkpt>
      <trkpt lat="44.09826" lon="7.35855">
        <ele>1988</ele>
        <time>2017-08-26T10:36:32Z</time>
      </trkpt>
      <trkpt lat="44.09823" lon="7.35853">
        <ele>1987.1</ele>
        <time>2017-08-26T10:36:40Z</time>
      </trkpt>
      <trkpt lat="44.09817" lon="7.35849">
        <ele>1985.3</ele>
        <time>2017-08-26T10:36:47Z</time>
      </trkpt>
      <trkpt lat="44.09816" lon="7.35846">
        <ele>1985.3</ele>
        <time>2017-08-26T10:36:49Z</time>
      </trkpt>
      <trkpt lat="44.09814" lon="7.35842">
        <ele>1985.1</ele>
        <time>2017-08-26T10:36:53Z</time>
      </trkpt>
      <trkpt lat="44.09807" lon="7.35829">
        <ele>1984.2</ele>
        <time>2017-08-26T10:37:09Z</time>
      </trkpt>
      <trkpt lat="44.09801" lon="7.3582">
        <ele>1983.1</ele>
        <time>2017-08-26T10:37:21Z</time>
      </trkpt>
      <trkpt lat="44.09794" lon="7.35809">
        <ele>1981.9</ele>
        <time>2017-08-26T10:37:33Z</time>
      </trkpt>
      <trkpt lat="44.09789" lon="7.35804">
        <ele>1980.4</ele>
        <time>2017-08-26T10:37:44Z</time>
      </trkpt>
      <trkpt lat="44.09782" lon="7.35804">
        <ele>1977.6</ele>
        <time>2017-08-26T10:37:56Z</time>
      </trkpt>
      <trkpt lat="44.09779" lon="7.35805">
        <ele>1976.4</ele>
        <time>2017-08-26T10:38:00Z</time>
      </trkpt>
      <trkpt lat="44.09775" lon="7.35809">
        <ele>1974.4</ele>
        <time>2017-08-26T10:38:07Z</time>
      </trkpt>
      <trkpt lat="44.09777" lon="7.35821">
        <ele>1973.5</ele>
        <time>2017-08-26T10:38:19Z</time>
      </trkpt>
      <trkpt lat="44.09778" lon="7.35831">
        <ele>1972.4</ele>
        <time>2017-08-26T10:38:32Z</time>
      </trkpt>
      <trkpt lat="44.09771" lon="7.35828">
        <ele>1970.3</ele>
        <time>2017-08-26T10:38:45Z</time>
      </trkpt>
      <trkpt lat="44.0976" lon="7.35823">
        <ele>1966.8</ele>
        <time>2017-08-26T10:39:00Z</time>
      </trkpt>
      <trkpt lat="44.09753" lon="7.35821">
        <ele>1964.5</ele>
        <time>2017-08-26T10:39:14Z</time>
      </trkpt>
      <trkpt lat="44.09744" lon="7.35814">
        <ele>1961.6</ele>
        <time>2017-08-26T10:39:26Z</time>
      </trkpt>
      <trkpt lat="44.0974" lon="7.35798">
        <ele>1960.8</ele>
        <time>2017-08-26T10:39:41Z</time>
      </trkpt>
      <trkpt lat="44.09737" lon="7.35781">
        <ele>1959.3</ele>
        <time>2017-08-26T10:39:53Z</time>
      </trkpt>
      <trkpt lat="44.09728" lon="7.35769">
        <ele>1956.9</ele>
        <time>2017-08-26T10:40:04Z</time>
      </trkpt>
      <trkpt lat="44.09724" lon="7.35762">
        <ele>1956</ele>
        <time>2017-08-26T10:40:09Z</time>
      </trkpt>
      <trkpt lat="44.09719" lon="7.35752">
        <ele>1955.1</ele>
        <time>2017-08-26T10:40:20Z</time>
      </trkpt>
      <trkpt lat="44.09716" lon="7.35745">
        <ele>1954.5</ele>
        <time>2017-08-26T10:40:26Z</time>
      </trkpt>
      <trkpt lat="44.09713" lon="7.35742">
        <ele>1953.9</ele>
        <time>2017-08-26T10:40:29Z</time>
      </trkpt>
      <trkpt lat="44.09706" lon="7.35725">
        <ele>1953</ele>
        <time>2017-08-26T10:40:43Z</time>
      </trkpt>
      <trkpt lat="44.09705" lon="7.35706">
        <ele>1950.9</ele>
        <time>2017-08-26T10:40:58Z</time>
      </trkpt>
      <trkpt lat="44.097" lon="7.35701">
        <ele>1949.6</ele>
        <time>2017-08-26T10:41:12Z</time>
      </trkpt>
      <trkpt lat="44.09689" lon="7.35695">
        <ele>1946.9</ele>
        <time>2017-08-26T10:41:27Z</time>
      </trkpt>
      <trkpt lat="44.09687" lon="7.35693">
        <ele>1946.2</ele>
        <time>2017-08-26T10:41:29Z</time>
      </trkpt>
      <trkpt lat="44.09673" lon="7.35687">
        <ele>1942.4</ele>
        <time>2017-08-26T10:41:44Z</time>
      </trkpt>
      <trkpt lat="44.09667" lon="7.35689">
        <ele>1941.5</ele>
        <time>2017-08-26T10:41:53Z</time>
      </trkpt>
      <trkpt lat="44.09661" lon="7.35699">
        <ele>1940</ele>
        <time>2017-08-26T10:42:07Z</time>
      </trkpt>
      <trkpt lat="44.09658" lon="7.35702">
        <ele>1938.9</ele>
        <time>2017-08-26T10:42:15Z</time>
      </trkpt>
      <trkpt lat="44.09652" lon="7.35712">
        <ele>1936.8</ele>
        <time>2017-08-26T10:42:28Z</time>
      </trkpt>
      <trkpt lat="44.09651" lon="7.35717">
        <ele>1936.5</ele>
        <time>2017-08-26T10:42:34Z</time>
      </trkpt>
      <trkpt lat="44.09648" lon="7.35721">
        <ele>1935.2</ele>
        <time>2017-08-26T10:42:41Z</time>
      </trkpt>
      <trkpt lat="44.09649" lon="7.35728">
        <ele>1935.2</ele>
        <time>2017-08-26T10:42:51Z</time>
      </trkpt>
      <trkpt lat="44.09652" lon="7.35737">
        <ele>1935.8</ele>
        <time>2017-08-26T10:42:59Z</time>
      </trkpt>
      <trkpt lat="44.09651" lon="7.35744">
        <ele>1934.8</ele>
        <time>2017-08-26T10:43:05Z</time>
      </trkpt>
      <trkpt lat="44.09648" lon="7.35752">
        <ele>1932.8</ele>
        <time>2017-08-26T10:43:14Z</time>
      </trkpt>
      <trkpt lat="44.09645" lon="7.35756">
        <ele>1931.3</ele>
        <time>2017-08-26T10:43:18Z</time>
      </trkpt>
      <trkpt lat="44.09643" lon="7.35758">
        <ele>1930.4</ele>
        <time>2017-08-26T10:43:20Z</time>
      </trkpt>
      <trkpt lat="44.09639" lon="7.35747">
        <ele>1929.3</ele>
        <time>2017-08-26T10:43:33Z</time>
      </trkpt>
      <trkpt lat="44.09638" lon="7.35743">
        <ele>1929</ele>
        <time>2017-08-26T10:43:36Z</time>
      </trkpt>
      <trkpt lat="44.09635" lon="7.35726">
        <ele>1928.5</ele>
        <time>2017-08-26T10:43:49Z</time>
      </trkpt>
      <trkpt lat="44.09631" lon="7.35716">
        <ele>1926.6</ele>
        <time>2017-08-26T10:44:02Z</time>
      </trkpt>
      <trkpt lat="44.09626" lon="7.35704">
        <ele>1924.5</ele>
        <time>2017-08-26T10:44:14Z</time>
      </trkpt>
      <trkpt lat="44.0962" lon="7.35692">
        <ele>1922.2</ele>
        <time>2017-08-26T10:44:29Z</time>
      </trkpt>
      <trkpt lat="44.09618" lon="7.35685">
        <ele>1921.5</ele>
        <time>2017-08-26T10:44:36Z</time>
      </trkpt>
      <trkpt lat="44.09612" lon="7.35671">
        <ele>1919.2</ele>
        <time>2017-08-26T10:44:49Z</time>
      </trkpt>
      <trkpt lat="44.09609" lon="7.35659">
        <ele>1918</ele>
        <time>2017-08-26T10:45:02Z</time>
      </trkpt>
      <trkpt lat="44.09608" lon="7.35656">
        <ele>1917.6</ele>
        <time>2017-08-26T10:45:06Z</time>
      </trkpt>
      <trkpt lat="44.09602" lon="7.35639">
        <ele>1915.4</ele>
        <time>2017-08-26T10:45:19Z</time>
      </trkpt>
      <trkpt lat="44.09598" lon="7.35641">
        <ele>1914.2</ele>
        <time>2017-08-26T10:45:32Z</time>
      </trkpt>
      <trkpt lat="44.09596" lon="7.35643">
        <ele>1913.6</ele>
        <time>2017-08-26T10:45:38Z</time>
      </trkpt>
      <trkpt lat="44.09595" lon="7.35645">
        <ele>1913.3</ele>
        <time>2017-08-26T10:45:40Z</time>
      </trkpt>
      <trkpt lat="44.09582" lon="7.35652">
        <ele>1909.2</ele>
        <time>2017-08-26T10:45:57Z</time>
      </trkpt>
      <trkpt lat="44.09579" lon="7.35652">
        <ele>1908.4</ele>
        <time>2017-08-26T10:46:08Z</time>
      </trkpt>
      <trkpt lat="44.09576" lon="7.35655">
        <ele>1907.4</ele>
        <time>2017-08-26T10:46:13Z</time>
      </trkpt>
      <trkpt lat="44.09575" lon="7.35659">
        <ele>1907</ele>
        <time>2017-08-26T10:46:17Z</time>
      </trkpt>
      <trkpt lat="44.09572" lon="7.3567">
        <ele>1905.4</ele>
        <time>2017-08-26T10:46:32Z</time>
      </trkpt>
      <trkpt lat="44.09571" lon="7.35671">
        <ele>1905.1</ele>
        <time>2017-08-26T10:46:43Z</time>
      </trkpt>
      <trkpt lat="44.09569" lon="7.3567">
        <ele>1904.6</ele>
        <time>2017-08-26T10:46:58Z</time>
      </trkpt>
      <trkpt lat="44.0957" lon="7.35669">
        <ele>1905</ele>
        <time>2017-08-26T10:47:17Z</time>
      </trkpt>
      <trkpt lat="44.09572" lon="7.35671">
        <ele>1905.4</ele>
        <time>2017-08-26T10:47:34Z</time>
      </trkpt>
      <trkpt lat="44.09572" lon="7.35672">
        <ele>1905.3</ele>
        <time>2017-08-26T10:47:54Z</time>
      </trkpt>
      <trkpt lat="44.09572" lon="7.35671">
        <ele>1905.4</ele>
        <time>2017-08-26T10:48:26Z</time>
      </trkpt>
      <trkpt lat="44.09572" lon="7.35671">
        <ele>1905.4</ele>
        <time>2017-08-26T10:48:51Z</time>
      </trkpt>
      <trkpt lat="44.09588" lon="7.35697">
        <ele>1908.6</ele>
        <time>2017-08-26T10:49:46Z</time>
      </trkpt>
      <trkpt lat="44.09586" lon="7.35674">
        <ele>1909.5</ele>
        <time>2017-08-26T10:50:16Z</time>
      </trkpt>
      <trkpt lat="44.0958" lon="7.35676">
        <ele>1907.3</ele>
        <time>2017-08-26T10:50:38Z</time>
      </trkpt>
      <trkpt lat="44.09575" lon="7.35679">
        <ele>1905.6</ele>
        <time>2017-08-26T10:51:03Z</time>
      </trkpt>
      <trkpt lat="44.09575" lon="7.35686">
        <ele>1905</ele>
        <time>2017-08-26T10:51:33Z</time>
      </trkpt>
      <trkpt lat="44.09575" lon="7.35686">
        <ele>1905</ele>
        <time>2017-08-26T10:52:04Z</time>
      </trkpt>
      <trkpt lat="44.09576" lon="7.35685">
        <ele>1905.4</ele>
        <time>2017-08-26T10:52:45Z</time>
      </trkpt>
      <trkpt lat="44.09576" lon="7.35685">
        <ele>1905.4</ele>
        <time>2017-08-26T10:53:16Z</time>
      </trkpt>
      <trkpt lat="44.09577" lon="7.35684">
        <ele>1905.8</ele>
        <time>2017-08-26T10:53:42Z</time>
      </trkpt>
      <trkpt lat="44.09577" lon="7.35683">
        <ele>1905.9</ele>
        <time>2017-08-26T10:54:12Z</time>
      </trkpt>
      <trkpt lat="44.0959" lon="7.35679">
        <ele>1910.6</ele>
        <time>2017-08-26T10:54:38Z</time>
      </trkpt>
      <trkpt lat="44.0959" lon="7.35679">
        <ele>1910.6</ele>
        <time>2017-08-26T10:55:06Z</time>
      </trkpt>
      <trkpt lat="44.09583" lon="7.35684">
        <ele>1907.6</ele>
        <time>2017-08-26T10:55:25Z</time>
      </trkpt>
      <trkpt lat="44.09583" lon="7.35684">
        <ele>1907.6</ele>
        <time>2017-08-26T10:55:50Z</time>
      </trkpt>
      <trkpt lat="44.09582" lon="7.35681">
        <ele>1907.6</ele>
        <time>2017-08-26T10:56:30Z</time>
      </trkpt>
      <trkpt lat="44.09581" lon="7.35681">
        <ele>1907.3</ele>
        <time>2017-08-26T10:57:04Z</time>
      </trkpt>
      <trkpt lat="44.09579" lon="7.35681">
        <ele>1906.6</ele>
        <time>2017-08-26T10:57:33Z</time>
      </trkpt>
      <trkpt lat="44.09581" lon="7.3568">
        <ele>1907.3</ele>
        <time>2017-08-26T10:57:48Z</time>
      </trkpt>
      <trkpt lat="44.09581" lon="7.3568">
        <ele>1907.3</ele>
        <time>2017-08-26T10:58:13Z</time>
      </trkpt>
      <trkpt lat="44.09581" lon="7.35679">
        <ele>1907.4</ele>
        <time>2017-08-26T10:58:41Z</time>
      </trkpt>
      <trkpt lat="44.09582" lon="7.35679">
        <ele>1907.7</ele>
        <time>2017-08-26T10:59:10Z</time>
      </trkpt>
      <trkpt lat="44.09582" lon="7.35678">
        <ele>1907.8</ele>
        <time>2017-08-26T10:59:30Z</time>
      </trkpt>
      <trkpt lat="44.09582" lon="7.35677">
        <ele>1907.9</ele>
        <time>2017-08-26T10:59:50Z</time>
      </trkpt>
      <trkpt lat="44.09574" lon="7.35677">
        <ele>1905.4</ele>
        <time>2017-08-26T11:00:08Z</time>
      </trkpt>
      <trkpt lat="44.09574" lon="7.35677">
        <ele>1905.4</ele>
        <time>2017-08-26T11:00:25Z</time>
      </trkpt>
      <trkpt lat="44.09573" lon="7.35676">
        <ele>1905.2</ele>
        <time>2017-08-26T11:00:44Z</time>
      </trkpt>
      <trkpt lat="44.09566" lon="7.35674">
        <ele>1903.3</ele>
        <time>2017-08-26T11:00:59Z</time>
      </trkpt>
      <trkpt lat="44.09569" lon="7.35687">
        <ele>1903</ele>
        <time>2017-08-26T11:01:10Z</time>
      </trkpt>
      <trkpt lat="44.09571" lon="7.35701">
        <ele>1902.2</ele>
        <time>2017-08-26T11:01:20Z</time>
      </trkpt>
      <trkpt lat="44.09576" lon="7.35717">
        <ele>1902</ele>
        <time>2017-08-26T11:01:35Z</time>
      </trkpt>
      <trkpt lat="44.09579" lon="7.35737">
        <ele>1899.8</ele>
        <time>2017-08-26T11:01:52Z</time>
      </trkpt>
      <trkpt lat="44.09583" lon="7.35748">
        <ele>1899.2</ele>
        <time>2017-08-26T11:02:05Z</time>
      </trkpt>
      <trkpt lat="44.09585" lon="7.35763">
        <ele>1897.6</ele>
        <time>2017-08-26T11:02:18Z</time>
      </trkpt>
      <trkpt lat="44.09582" lon="7.35774">
        <ele>1894</ele>
        <time>2017-08-26T11:02:32Z</time>
      </trkpt>
      <trkpt lat="44.09584" lon="7.35783">
        <ele>1894.1</ele>
        <time>2017-08-26T11:02:45Z</time>
      </trkpt>
      <trkpt lat="44.09583" lon="7.35795">
        <ele>1892.6</ele>
        <time>2017-08-26T11:02:57Z</time>
      </trkpt>
      <trkpt lat="44.09582" lon="7.35802">
        <ele>1891.5</ele>
        <time>2017-08-26T11:03:02Z</time>
      </trkpt>
      <trkpt lat="44.09578" lon="7.3582">
        <ele>1888.6</ele>
        <time>2017-08-26T11:03:16Z</time>
      </trkpt>
      <trkpt lat="44.09575" lon="7.35835">
        <ele>1886.6</ele>
        <time>2017-08-26T11:03:30Z</time>
      </trkpt>
      <trkpt lat="44.09577" lon="7.35849">
        <ele>1885.4</ele>
        <time>2017-08-26T11:03:39Z</time>
      </trkpt>
      <trkpt lat="44.0958" lon="7.35855">
        <ele>1885.7</ele>
        <time>2017-08-26T11:03:45Z</time>
      </trkpt>
      <trkpt lat="44.09581" lon="7.35862">
        <ele>1884.9</ele>
        <time>2017-08-26T11:03:50Z</time>
      </trkpt>
      <trkpt lat="44.09586" lon="7.35881">
        <ele>1883.3</ele>
        <time>2017-08-26T11:04:05Z</time>
      </trkpt>
      <trkpt lat="44.09593" lon="7.35894">
        <ele>1883.2</ele>
        <time>2017-08-26T11:04:20Z</time>
      </trkpt>
      <trkpt lat="44.09594" lon="7.35896">
        <ele>1883.3</ele>
        <time>2017-08-26T11:04:22Z</time>
      </trkpt>
      <trkpt lat="44.09595" lon="7.35901">
        <ele>1883.1</ele>
        <time>2017-08-26T11:04:28Z</time>
      </trkpt>
      <trkpt lat="44.09595" lon="7.35904">
        <ele>1882.7</ele>
        <time>2017-08-26T11:04:31Z</time>
      </trkpt>
      <trkpt lat="44.09594" lon="7.35907">
        <ele>1882.1</ele>
        <time>2017-08-26T11:04:47Z</time>
      </trkpt>
      <trkpt lat="44.09586" lon="7.35915">
        <ele>1878.9</ele>
        <time>2017-08-26T11:05:02Z</time>
      </trkpt>
      <trkpt lat="44.09581" lon="7.35926">
        <ele>1876.3</ele>
        <time>2017-08-26T11:05:16Z</time>
      </trkpt>
      <trkpt lat="44.09577" lon="7.35933">
        <ele>1874.5</ele>
        <time>2017-08-26T11:05:26Z</time>
      </trkpt>
      <trkpt lat="44.09577" lon="7.35935">
        <ele>1874.3</ele>
        <time>2017-08-26T11:05:28Z</time>
      </trkpt>
      <trkpt lat="44.09577" lon="7.35938">
        <ele>1874</ele>
        <time>2017-08-26T11:05:30Z</time>
      </trkpt>
      <trkpt lat="44.09573" lon="7.35949">
        <ele>1871.6</ele>
        <time>2017-08-26T11:05:40Z</time>
      </trkpt>
      <trkpt lat="44.0957" lon="7.3595">
        <ele>1870.7</ele>
        <time>2017-08-26T11:05:43Z</time>
      </trkpt>
      <trkpt lat="44.09569" lon="7.35954">
        <ele>1869.9</ele>
        <time>2017-08-26T11:05:46Z</time>
      </trkpt>
      <trkpt lat="44.09563" lon="7.35968">
        <ele>1866.7</ele>
        <time>2017-08-26T11:05:58Z</time>
      </trkpt>
      <trkpt lat="44.09562" lon="7.35973">
        <ele>1865.8</ele>
        <time>2017-08-26T11:06:01Z</time>
      </trkpt>
      <trkpt lat="44.0956" lon="7.35974">
        <ele>1865.4</ele>
        <time>2017-08-26T11:06:03Z</time>
      </trkpt>
      <trkpt lat="44.09561" lon="7.35977">
        <ele>1865.1</ele>
        <time>2017-08-26T11:06:06Z</time>
      </trkpt>
      <trkpt lat="44.09566" lon="7.35977">
        <ele>1865.8</ele>
        <time>2017-08-26T11:06:17Z</time>
      </trkpt>
      <trkpt lat="44.09565" lon="7.35979">
        <ele>1865.3</ele>
        <time>2017-08-26T11:06:19Z</time>
      </trkpt>
      <trkpt lat="44.09561" lon="7.35983">
        <ele>1864.2</ele>
        <time>2017-08-26T11:06:24Z</time>
      </trkpt>
      <trkpt lat="44.09556" lon="7.35984">
        <ele>1863.4</ele>
        <time>2017-08-26T11:06:30Z</time>
      </trkpt>
      <trkpt lat="44.09546" lon="7.35992">
        <ele>1861.5</ele>
        <time>2017-08-26T11:06:39Z</time>
      </trkpt>
      <trkpt lat="44.09541" lon="7.36002">
        <ele>1860.7</ele>
        <time>2017-08-26T11:06:47Z</time>
      </trkpt>
      <trkpt lat="44.09538" lon="7.36011">
        <ele>1861.6</ele>
        <time>2017-08-26T11:07:00Z</time>
      </trkpt>
      <trkpt lat="44.09536" lon="7.36012">
        <ele>1861.6</ele>
        <time>2017-08-26T11:07:23Z</time>
      </trkpt>
      <trkpt lat="44.09539" lon="7.36013">
        <ele>1861.8</ele>
        <time>2017-08-26T11:07:35Z</time>
      </trkpt>
      <trkpt lat="44.0954" lon="7.36012">
        <ele>1861.7</ele>
        <time>2017-08-26T11:07:44Z</time>
      </trkpt>
      <trkpt lat="44.09533" lon="7.36013">
        <ele>1861.6</ele>
        <time>2017-08-26T11:07:50Z</time>
      </trkpt>
      <trkpt lat="44.0953" lon="7.36014">
        <ele>1861.6</ele>
        <time>2017-08-26T11:07:53Z</time>
      </trkpt>
      <trkpt lat="44.09511" lon="7.36014">
        <ele>1862.4</ele>
        <time>2017-08-26T11:08:07Z</time>
      </trkpt>
      <trkpt lat="44.09496" lon="7.36022">
        <ele>1865.5</ele>
        <time>2017-08-26T11:08:19Z</time>
      </trkpt>
      <trkpt lat="44.09496" lon="7.36027">
        <ele>1866.6</ele>
        <time>2017-08-26T11:08:23Z</time>
      </trkpt>
      <trkpt lat="44.09506" lon="7.36039">
        <ele>1867.3</ele>
        <time>2017-08-26T11:08:38Z</time>
      </trkpt>
      <trkpt lat="44.09512" lon="7.36043">
        <ele>1867.2</ele>
        <time>2017-08-26T11:08:53Z</time>
      </trkpt>
      <trkpt lat="44.09515" lon="7.36042">
        <ele>1866.7</ele>
        <time>2017-08-26T11:09:06Z</time>
      </trkpt>
      <trkpt lat="44.09515" lon="7.36042">
        <ele>1866.7</ele>
        <time>2017-08-26T11:09:29Z</time>
      </trkpt>
      <trkpt lat="44.09515" lon="7.36042">
        <ele>1866.7</ele>
        <time>2017-08-26T11:10:01Z</time>
      </trkpt>
      <trkpt lat="44.09515" lon="7.36041">
        <ele>1866.5</ele>
        <time>2017-08-26T11:10:27Z</time>
      </trkpt>
      <trkpt lat="44.09515" lon="7.36041">
        <ele>1866.5</ele>
        <time>2017-08-26T11:10:47Z</time>
      </trkpt>
      <trkpt lat="44.09515" lon="7.36041">
        <ele>1866.5</ele>
        <time>2017-08-26T11:11:11Z</time>
      </trkpt>
      <trkpt lat="44.09515" lon="7.36041">
        <ele>1866.5</ele>
        <time>2017-08-26T11:11:32Z</time>
      </trkpt>
      <trkpt lat="44.09515" lon="7.36041">
        <ele>1866.5</ele>
        <time>2017-08-26T11:11:46Z</time>
      </trkpt>
      <trkpt lat="44.095" lon="7.3603">
        <ele>1866.4</ele>
        <time>2017-08-26T11:11:57Z</time>
      </trkpt>
      <trkpt lat="44.09498" lon="7.36028">
        <ele>1866.4</ele>
        <time>2017-08-26T11:11:59Z</time>
      </trkpt>
      <trkpt lat="44.09502" lon="7.36024">
        <ele>1865</ele>
        <time>2017-08-26T11:12:05Z</time>
      </trkpt>
      <trkpt lat="44.09521" lon="7.36022">
        <ele>1863</ele>
        <time>2017-08-26T11:12:22Z</time>
      </trkpt>
      <trkpt lat="44.09539" lon="7.36016">
        <ele>1862.1</ele>
        <time>2017-08-26T11:12:36Z</time>
      </trkpt>
      <trkpt lat="44.09541" lon="7.36014">
        <ele>1862</ele>
        <time>2017-08-26T11:12:42Z</time>
      </trkpt>
      <trkpt lat="44.09545" lon="7.36017">
        <ele>1862.5</ele>
        <time>2017-08-26T11:12:46Z</time>
      </trkpt>
      <trkpt lat="44.09548" lon="7.36018">
        <ele>1862.7</ele>
        <time>2017-08-26T11:12:49Z</time>
      </trkpt>
      <trkpt lat="44.09552" lon="7.36017">
        <ele>1862.7</ele>
        <time>2017-08-26T11:12:52Z</time>
      </trkpt>
      <trkpt lat="44.09559" lon="7.36022">
        <ele>1863.6</ele>
        <time>2017-08-26T11:13:02Z</time>
      </trkpt>
      <trkpt lat="44.0956" lon="7.36023">
        <ele>1863.7</ele>
        <time>2017-08-26T11:13:04Z</time>
      </trkpt>
      <trkpt lat="44.09567" lon="7.36025">
        <ele>1864.2</ele>
        <time>2017-08-26T11:13:11Z</time>
      </trkpt>
      <trkpt lat="44.09584" lon="7.36023">
        <ele>1864.9</ele>
        <time>2017-08-26T11:13:25Z</time>
      </trkpt>
      <trkpt lat="44.09586" lon="7.36023">
        <ele>1865.2</ele>
        <time>2017-08-26T11:13:28Z</time>
      </trkpt>
      <trkpt lat="44.09591" lon="7.3603">
        <ele>1866.2</ele>
        <time>2017-08-26T11:13:42Z</time>
      </trkpt>
      <trkpt lat="44.0959" lon="7.36036">
        <ele>1867.2</ele>
        <time>2017-08-26T11:13:49Z</time>
      </trkpt>
      <trkpt lat="44.09591" lon="7.36047">
        <ele>1869.2</ele>
        <time>2017-08-26T11:13:57Z</time>
      </trkpt>
      <trkpt lat="44.09594" lon="7.36052">
        <ele>1870</ele>
        <time>2017-08-26T11:14:01Z</time>
      </trkpt>
      <trkpt lat="44.09598" lon="7.36054">
        <ele>1870.3</ele>
        <time>2017-08-26T11:14:06Z</time>
      </trkpt>
      <trkpt lat="44.09599" lon="7.36056">
        <ele>1870.5</ele>
        <time>2017-08-26T11:14:08Z</time>
      </trkpt>
      <trkpt lat="44.09601" lon="7.36069">
        <ele>1872.2</ele>
        <time>2017-08-26T11:14:22Z</time>
      </trkpt>
      <trkpt lat="44.09605" lon="7.36079">
        <ele>1873.1</ele>
        <time>2017-08-26T11:14:31Z</time>
      </trkpt>
      <trkpt lat="44.09606" lon="7.36086">
        <ele>1873.9</ele>
        <time>2017-08-26T11:14:39Z</time>
      </trkpt>
      <trkpt lat="44.09606" lon="7.36098">
        <ele>1875.7</ele>
        <time>2017-08-26T11:14:51Z</time>
      </trkpt>
      <trkpt lat="44.09604" lon="7.36102">
        <ele>1876.5</ele>
        <time>2017-08-26T11:14:54Z</time>
      </trkpt>
      <trkpt lat="44.09604" lon="7.36112">
        <ele>1877.9</ele>
        <time>2017-08-26T11:15:00Z</time>
      </trkpt>
      <trkpt lat="44.09607" lon="7.36116">
        <ele>1878.3</ele>
        <time>2017-08-26T11:15:04Z</time>
      </trkpt>
      <trkpt lat="44.09609" lon="7.36118">
        <ele>1878.4</ele>
        <time>2017-08-26T11:15:07Z</time>
      </trkpt>
      <trkpt lat="44.09619" lon="7.36127">
        <ele>1879.3</ele>
        <time>2017-08-26T11:15:20Z</time>
      </trkpt>
      <trkpt lat="44.09622" lon="7.36134">
        <ele>1880.1</ele>
        <time>2017-08-26T11:15:26Z</time>
      </trkpt>
      <trkpt lat="44.09623" lon="7.36139">
        <ele>1880.7</ele>
        <time>2017-08-26T11:15:31Z</time>
      </trkpt>
      <trkpt lat="44.09624" lon="7.36146">
        <ele>1881.9</ele>
        <time>2017-08-26T11:15:39Z</time>
      </trkpt>
      <trkpt lat="44.09625" lon="7.36153">
        <ele>1883</ele>
        <time>2017-08-26T11:15:45Z</time>
      </trkpt>
      <trkpt lat="44.09627" lon="7.36156">
        <ele>1883.4</ele>
        <time>2017-08-26T11:15:47Z</time>
      </trkpt>
      <trkpt lat="44.09637" lon="7.36164">
        <ele>1883.7</ele>
        <time>2017-08-26T11:15:57Z</time>
      </trkpt>
      <trkpt lat="44.09642" lon="7.36166">
        <ele>1883.7</ele>
        <time>2017-08-26T11:16:02Z</time>
      </trkpt>
      <trkpt lat="44.09647" lon="7.36177">
        <ele>1885</ele>
        <time>2017-08-26T11:16:08Z</time>
      </trkpt>
      <trkpt lat="44.09661" lon="7.36193">
        <ele>1887</ele>
        <time>2017-08-26T11:16:23Z</time>
      </trkpt>
      <trkpt lat="44.09665" lon="7.36193">
        <ele>1886.8</ele>
        <time>2017-08-26T11:16:30Z</time>
      </trkpt>
      <trkpt lat="44.0967" lon="7.36198">
        <ele>1887.8</ele>
        <time>2017-08-26T11:16:35Z</time>
      </trkpt>
      <trkpt lat="44.09682" lon="7.36202">
        <ele>1889.1</ele>
        <time>2017-08-26T11:16:47Z</time>
      </trkpt>
      <trkpt lat="44.09688" lon="7.36204">
        <ele>1889.8</ele>
        <time>2017-08-26T11:16:54Z</time>
      </trkpt>
      <trkpt lat="44.09702" lon="7.36204">
        <ele>1891.3</ele>
        <time>2017-08-26T11:17:06Z</time>
      </trkpt>
      <trkpt lat="44.0971" lon="7.36205">
        <ele>1892.9</ele>
        <time>2017-08-26T11:17:13Z</time>
      </trkpt>
      <trkpt lat="44.09723" lon="7.36208">
        <ele>1896</ele>
        <time>2017-08-26T11:17:27Z</time>
      </trkpt>
      <trkpt lat="44.09733" lon="7.36212">
        <ele>1899</ele>
        <time>2017-08-26T11:17:39Z</time>
      </trkpt>
      <trkpt lat="44.09739" lon="7.36219">
        <ele>1902.1</ele>
        <time>2017-08-26T11:17:52Z</time>
      </trkpt>
      <trkpt lat="44.09748" lon="7.36225">
        <ele>1905.2</ele>
        <time>2017-08-26T11:18:07Z</time>
      </trkpt>
      <trkpt lat="44.09749" lon="7.36225">
        <ele>1905.4</ele>
        <time>2017-08-26T11:18:09Z</time>
      </trkpt>
      <trkpt lat="44.09752" lon="7.36225">
        <ele>1906</ele>
        <time>2017-08-26T11:18:13Z</time>
      </trkpt>
      <trkpt lat="44.09758" lon="7.3623">
        <ele>1908.6</ele>
        <time>2017-08-26T11:18:29Z</time>
      </trkpt>
      <trkpt lat="44.09767" lon="7.36227">
        <ele>1909.9</ele>
        <time>2017-08-26T11:18:42Z</time>
      </trkpt>
      <trkpt lat="44.09772" lon="7.3623">
        <ele>1911.9</ele>
        <time>2017-08-26T11:18:55Z</time>
      </trkpt>
      <trkpt lat="44.09777" lon="7.36229">
        <ele>1912.8</ele>
        <time>2017-08-26T11:19:07Z</time>
      </trkpt>
      <trkpt lat="44.09784" lon="7.36237">
        <ele>1916.6</ele>
        <time>2017-08-26T11:19:19Z</time>
      </trkpt>
      <trkpt lat="44.09791" lon="7.3624">
        <ele>1919.2</ele>
        <time>2017-08-26T11:19:31Z</time>
      </trkpt>
      <trkpt lat="44.098" lon="7.36244">
        <ele>1923</ele>
        <time>2017-08-26T11:19:41Z</time>
      </trkpt>
      <trkpt lat="44.09807" lon="7.3625">
        <ele>1927.3</ele>
        <time>2017-08-26T11:19:50Z</time>
      </trkpt>
      <trkpt lat="44.09813" lon="7.36255">
        <ele>1929.6</ele>
        <time>2017-08-26T11:19:58Z</time>
      </trkpt>
      <trkpt lat="44.09817" lon="7.36258">
        <ele>1931.1</ele>
        <time>2017-08-26T11:20:02Z</time>
      </trkpt>
      <trkpt lat="44.09827" lon="7.36262">
        <ele>1934.5</ele>
        <time>2017-08-26T11:20:14Z</time>
      </trkpt>
      <trkpt lat="44.09837" lon="7.36264">
        <ele>1937.5</ele>
        <time>2017-08-26T11:20:26Z</time>
      </trkpt>
      <trkpt lat="44.09845" lon="7.36268">
        <ele>1941</ele>
        <time>2017-08-26T11:20:39Z</time>
      </trkpt>
      <trkpt lat="44.09851" lon="7.36269">
        <ele>1943</ele>
        <time>2017-08-26T11:20:51Z</time>
      </trkpt>
      <trkpt lat="44.09854" lon="7.36272">
        <ele>1944.9</ele>
        <time>2017-08-26T11:20:56Z</time>
      </trkpt>
      <trkpt lat="44.09859" lon="7.3627">
        <ele>1945.6</ele>
        <time>2017-08-26T11:21:04Z</time>
      </trkpt>
      <trkpt lat="44.09861" lon="7.36269">
        <ele>1945.8</ele>
        <time>2017-08-26T11:21:07Z</time>
      </trkpt>
      <trkpt lat="44.09867" lon="7.36265">
        <ele>1946.1</ele>
        <time>2017-08-26T11:21:22Z</time>
      </trkpt>
      <trkpt lat="44.09871" lon="7.36269">
        <ele>1948.7</ele>
        <time>2017-08-26T11:21:33Z</time>
      </trkpt>
      <trkpt lat="44.09878" lon="7.36275">
        <ele>1952.9</ele>
        <time>2017-08-26T11:21:45Z</time>
      </trkpt>
      <trkpt lat="44.09883" lon="7.36274">
        <ele>1953.9</ele>
        <time>2017-08-26T11:21:57Z</time>
      </trkpt>
      <trkpt lat="44.09885" lon="7.36273">
        <ele>1954.2</ele>
        <time>2017-08-26T11:22:01Z</time>
      </trkpt>
      <trkpt lat="44.09892" lon="7.36278">
        <ele>1957.6</ele>
        <time>2017-08-26T11:22:13Z</time>
      </trkpt>
      <trkpt lat="44.09903" lon="7.36285">
        <ele>1961</ele>
        <time>2017-08-26T11:22:26Z</time>
      </trkpt>
      <trkpt lat="44.09907" lon="7.36284">
        <ele>1961.5</ele>
        <time>2017-08-26T11:22:29Z</time>
      </trkpt>
      <trkpt lat="44.0991" lon="7.36284">
        <ele>1962</ele>
        <time>2017-08-26T11:22:32Z</time>
      </trkpt>
      <trkpt lat="44.09923" lon="7.36284">
        <ele>1964.1</ele>
        <time>2017-08-26T11:22:46Z</time>
      </trkpt>
      <trkpt lat="44.09932" lon="7.36285">
        <ele>1965.7</ele>
        <time>2017-08-26T11:22:59Z</time>
      </trkpt>
      <trkpt lat="44.09943" lon="7.36275">
        <ele>1964.4</ele>
        <time>2017-08-26T11:23:12Z</time>
      </trkpt>
      <trkpt lat="44.09945" lon="7.36272">
        <ele>1963.2</ele>
        <time>2017-08-26T11:23:21Z</time>
      </trkpt>
      <trkpt lat="44.09948" lon="7.36269">
        <ele>1962</ele>
        <time>2017-08-26T11:23:36Z</time>
      </trkpt>
      <trkpt lat="44.09954" lon="7.36272">
        <ele>1964.3</ele>
        <time>2017-08-26T11:23:51Z</time>
      </trkpt>
      <trkpt lat="44.09959" lon="7.36274">
        <ele>1966</ele>
        <time>2017-08-26T11:24:05Z</time>
      </trkpt>
      <trkpt lat="44.09964" lon="7.36275">
        <ele>1967.3</ele>
        <time>2017-08-26T11:24:20Z</time>
      </trkpt>
      <trkpt lat="44.09968" lon="7.36282">
        <ele>1970.9</ele>
        <time>2017-08-26T11:24:33Z</time>
      </trkpt>
      <trkpt lat="44.09976" lon="7.36287">
        <ele>1974.2</ele>
        <time>2017-08-26T11:24:47Z</time>
      </trkpt>
      <trkpt lat="44.09978" lon="7.36292">
        <ele>1976.6</ele>
        <time>2017-08-26T11:25:01Z</time>
      </trkpt>
      <trkpt lat="44.09978" lon="7.36292">
        <ele>1976.6</ele>
        <time>2017-08-26T11:25:21Z</time>
      </trkpt>
      <trkpt lat="44.09979" lon="7.36289">
        <ele>1975.5</ele>
        <time>2017-08-26T11:25:34Z</time>
      </trkpt>
      <trkpt lat="44.0998" lon="7.3629">
        <ele>1976</ele>
        <time>2017-08-26T11:25:53Z</time>
      </trkpt>
      <trkpt lat="44.09989" lon="7.36295">
        <ele>1979.8</ele>
        <time>2017-08-26T11:26:07Z</time>
      </trkpt>
      <trkpt lat="44.09995" lon="7.36305">
        <ele>1985.7</ele>
        <time>2017-08-26T11:26:21Z</time>
      </trkpt>
      <trkpt lat="44.1" lon="7.36312">
        <ele>1988.6</ele>
        <time>2017-08-26T11:26:34Z</time>
      </trkpt>
      <trkpt lat="44.10002" lon="7.3632">
        <ele>1991</ele>
        <time>2017-08-26T11:26:48Z</time>
      </trkpt>
      <trkpt lat="44.10008" lon="7.36326">
        <ele>1993.7</ele>
        <time>2017-08-26T11:27:02Z</time>
      </trkpt>
      <trkpt lat="44.10007" lon="7.36336">
        <ele>1996.3</ele>
        <time>2017-08-26T11:27:17Z</time>
      </trkpt>
      <trkpt lat="44.10012" lon="7.36343">
        <ele>1999.2</ele>
        <time>2017-08-26T11:27:31Z</time>
      </trkpt>
      <trkpt lat="44.10018" lon="7.36348">
        <ele>2001.8</ele>
        <time>2017-08-26T11:27:48Z</time>
      </trkpt>
      <trkpt lat="44.10024" lon="7.36351">
        <ele>2003.7</ele>
        <time>2017-08-26T11:28:04Z</time>
      </trkpt>
      <trkpt lat="44.10034" lon="7.36351">
        <ele>2005.9</ele>
        <time>2017-08-26T11:28:19Z</time>
      </trkpt>
      <trkpt lat="44.1004" lon="7.36354">
        <ele>2008.3</ele>
        <time>2017-08-26T11:28:33Z</time>
      </trkpt>
      <trkpt lat="44.10049" lon="7.36351">
        <ele>2009.5</ele>
        <time>2017-08-26T11:28:46Z</time>
      </trkpt>
      <trkpt lat="44.10057" lon="7.36353">
        <ele>2011.8</ele>
        <time>2017-08-26T11:29:00Z</time>
      </trkpt>
      <trkpt lat="44.10061" lon="7.36355">
        <ele>2012.8</ele>
        <time>2017-08-26T11:29:17Z</time>
      </trkpt>
      <trkpt lat="44.10057" lon="7.36356">
        <ele>2013</ele>
        <time>2017-08-26T11:29:32Z</time>
      </trkpt>
      <trkpt lat="44.10052" lon="7.3636">
        <ele>2013.6</ele>
        <time>2017-08-26T11:29:46Z</time>
      </trkpt>
      <trkpt lat="44.10047" lon="7.36377">
        <ele>2016.9</ele>
        <time>2017-08-26T11:30:03Z</time>
      </trkpt>
      <trkpt lat="44.10051" lon="7.36389">
        <ele>2021</ele>
        <time>2017-08-26T11:30:15Z</time>
      </trkpt>
      <trkpt lat="44.10062" lon="7.36389">
        <ele>2022.7</ele>
        <time>2017-08-26T11:30:28Z</time>
      </trkpt>
      <trkpt lat="44.10073" lon="7.36392">
        <ele>2024.4</ele>
        <time>2017-08-26T11:30:43Z</time>
      </trkpt>
      <trkpt lat="44.10082" lon="7.36396">
        <ele>2026.1</ele>
        <time>2017-08-26T11:30:58Z</time>
      </trkpt>
      <trkpt lat="44.10087" lon="7.36401">
        <ele>2027.3</ele>
        <time>2017-08-26T11:31:07Z</time>
      </trkpt>
      <trkpt lat="44.10093" lon="7.3641">
        <ele>2029.3</ele>
        <time>2017-08-26T11:31:20Z</time>
      </trkpt>
      <trkpt lat="44.101" lon="7.36419">
        <ele>2031.5</ele>
        <time>2017-08-26T11:31:33Z</time>
      </trkpt>
      <trkpt lat="44.1011" lon="7.36428">
        <ele>2033.6</ele>
        <time>2017-08-26T11:31:49Z</time>
      </trkpt>
      <trkpt lat="44.10117" lon="7.36435">
        <ele>2034.8</ele>
        <time>2017-08-26T11:32:03Z</time>
      </trkpt>
      <trkpt lat="44.10126" lon="7.36441">
        <ele>2036.4</ele>
        <time>2017-08-26T11:32:15Z</time>
      </trkpt>
      <trkpt lat="44.10136" lon="7.36446">
        <ele>2038.2</ele>
        <time>2017-08-26T11:32:27Z</time>
      </trkpt>
      <trkpt lat="44.10148" lon="7.36449">
        <ele>2040.5</ele>
        <time>2017-08-26T11:32:41Z</time>
      </trkpt>
      <trkpt lat="44.10157" lon="7.3645">
        <ele>2042.1</ele>
        <time>2017-08-26T11:32:57Z</time>
      </trkpt>
      <trkpt lat="44.10164" lon="7.3645">
        <ele>2043.2</ele>
        <time>2017-08-26T11:33:08Z</time>
      </trkpt>
      <trkpt lat="44.10171" lon="7.36453">
        <ele>2045.2</ele>
        <time>2017-08-26T11:33:21Z</time>
      </trkpt>
      <trkpt lat="44.10178" lon="7.36443">
        <ele>2043.6</ele>
        <time>2017-08-26T11:33:33Z</time>
      </trkpt>
      <trkpt lat="44.10183" lon="7.36441">
        <ele>2043.8</ele>
        <time>2017-08-26T11:33:47Z</time>
      </trkpt>
      <trkpt lat="44.10182" lon="7.36452">
        <ele>2046.9</ele>
        <time>2017-08-26T11:34:01Z</time>
      </trkpt>
      <trkpt lat="44.10185" lon="7.36463">
        <ele>2050.6</ele>
        <time>2017-08-26T11:34:16Z</time>
      </trkpt>
      <trkpt lat="44.10189" lon="7.3647">
        <ele>2053.4</ele>
        <time>2017-08-26T11:34:30Z</time>
      </trkpt>
      <trkpt lat="44.1019" lon="7.3648">
        <ele>2056.2</ele>
        <time>2017-08-26T11:34:45Z</time>
      </trkpt>
      <trkpt lat="44.10192" lon="7.36488">
        <ele>2058.6</ele>
        <time>2017-08-26T11:34:59Z</time>
      </trkpt>
      <trkpt lat="44.10192" lon="7.36498">
        <ele>2061.1</ele>
        <time>2017-08-26T11:35:14Z</time>
      </trkpt>
      <trkpt lat="44.10193" lon="7.36508">
        <ele>2063.8</ele>
        <time>2017-08-26T11:35:28Z</time>
      </trkpt>
      <trkpt lat="44.10193" lon="7.3651">
        <ele>2064.3</ele>
        <time>2017-08-26T11:35:31Z</time>
      </trkpt>
      <trkpt lat="44.10193" lon="7.36522">
        <ele>2067.3</ele>
        <time>2017-08-26T11:35:45Z</time>
      </trkpt>
      <trkpt lat="44.10196" lon="7.36528">
        <ele>2069.4</ele>
        <time>2017-08-26T11:35:58Z</time>
      </trkpt>
      <trkpt lat="44.10196" lon="7.36536">
        <ele>2071.4</ele>
        <time>2017-08-26T11:36:12Z</time>
      </trkpt>
      <trkpt lat="44.10195" lon="7.36547">
        <ele>2073.9</ele>
        <time>2017-08-26T11:36:26Z</time>
      </trkpt>
      <trkpt lat="44.10197" lon="7.36558">
        <ele>2077</ele>
        <time>2017-08-26T11:36:41Z</time>
      </trkpt>
      <trkpt lat="44.10204" lon="7.36569">
        <ele>2080.9</ele>
        <time>2017-08-26T11:36:56Z</time>
      </trkpt>
      <trkpt lat="44.10211" lon="7.36581">
        <ele>2084.4</ele>
        <time>2017-08-26T11:37:13Z</time>
      </trkpt>
      <trkpt lat="44.10214" lon="7.36581">
        <ele>2084.4</ele>
        <time>2017-08-26T11:37:27Z</time>
      </trkpt>
      <trkpt lat="44.1021" lon="7.36593">
        <ele>2087</ele>
        <time>2017-08-26T11:37:41Z</time>
      </trkpt>
      <trkpt lat="44.10207" lon="7.36604">
        <ele>2089.5</ele>
        <time>2017-08-26T11:37:55Z</time>
      </trkpt>
      <trkpt lat="44.10202" lon="7.36615">
        <ele>2091.8</ele>
        <time>2017-08-26T11:38:12Z</time>
      </trkpt>
      <trkpt lat="44.10201" lon="7.36626">
        <ele>2093</ele>
        <time>2017-08-26T11:38:23Z</time>
      </trkpt>
      <trkpt lat="44.10199" lon="7.36637">
        <ele>2094.3</ele>
        <time>2017-08-26T11:38:32Z</time>
      </trkpt>
      <trkpt lat="44.102" lon="7.36657">
        <ele>2095.6</ele>
        <time>2017-08-26T11:38:47Z</time>
      </trkpt>
      <trkpt lat="44.10197" lon="7.36673">
        <ele>2097.3</ele>
        <time>2017-08-26T11:39:01Z</time>
      </trkpt>
      <trkpt lat="44.10198" lon="7.36683">
        <ele>2098.3</ele>
        <time>2017-08-26T11:39:15Z</time>
      </trkpt>
      <trkpt lat="44.10197" lon="7.36685">
        <ele>2098.6</ele>
        <time>2017-08-26T11:39:34Z</time>
      </trkpt>
      <trkpt lat="44.10197" lon="7.36685">
        <ele>2098.6</ele>
        <time>2017-08-26T11:39:54Z</time>
      </trkpt>
      <trkpt lat="44.10197" lon="7.36684">
        <ele>2098.5</ele>
        <time>2017-08-26T11:40:30Z</time>
      </trkpt>
      <trkpt lat="44.10197" lon="7.36684">
        <ele>2098.5</ele>
        <time>2017-08-26T11:40:57Z</time>
      </trkpt>
      <trkpt lat="44.10197" lon="7.36684">
        <ele>2098.5</ele>
        <time>2017-08-26T11:41:28Z</time>
      </trkpt>
      <trkpt lat="44.10195" lon="7.36692">
        <ele>2099.7</ele>
        <time>2017-08-26T11:41:44Z</time>
      </trkpt>
      <trkpt lat="44.10196" lon="7.367">
        <ele>2099.9</ele>
        <time>2017-08-26T11:42:00Z</time>
      </trkpt>
      <trkpt lat="44.10193" lon="7.36707">
        <ele>2100.7</ele>
        <time>2017-08-26T11:42:09Z</time>
      </trkpt>
      <trkpt lat="44.10187" lon="7.36706">
        <ele>2101.7</ele>
        <time>2017-08-26T11:42:22Z</time>
      </trkpt>
      <trkpt lat="44.10179" lon="7.36708">
        <ele>2103.2</ele>
        <time>2017-08-26T11:42:36Z</time>
      </trkpt>
      <trkpt lat="44.10175" lon="7.36711">
        <ele>2104.4</ele>
        <time>2017-08-26T11:42:46Z</time>
      </trkpt>
      <trkpt lat="44.10163" lon="7.36714">
        <ele>2106.8</ele>
        <time>2017-08-26T11:43:01Z</time>
      </trkpt>
      <trkpt lat="44.1016" lon="7.36716">
        <ele>2107.4</ele>
        <time>2017-08-26T11:43:16Z</time>
      </trkpt>
      <trkpt lat="44.10156" lon="7.36724">
        <ele>2109.2</ele>
        <time>2017-08-26T11:43:32Z</time>
      </trkpt>
      <trkpt lat="44.10152" lon="7.36729">
        <ele>2110</ele>
        <time>2017-08-26T11:43:45Z</time>
      </trkpt>
      <trkpt lat="44.10147" lon="7.36741">
        <ele>2111.6</ele>
        <time>2017-08-26T11:43:59Z</time>
      </trkpt>
      <trkpt lat="44.10147" lon="7.36744">
        <ele>2111.8</ele>
        <time>2017-08-26T11:44:01Z</time>
      </trkpt>
      <trkpt lat="44.10147" lon="7.36751">
        <ele>2112.3</ele>
        <time>2017-08-26T11:44:08Z</time>
      </trkpt>
      <trkpt lat="44.10139" lon="7.36765">
        <ele>2114.5</ele>
        <time>2017-08-26T11:44:24Z</time>
      </trkpt>
      <trkpt lat="44.10133" lon="7.3677">
        <ele>2116.5</ele>
        <time>2017-08-26T11:44:37Z</time>
      </trkpt>
      <trkpt lat="44.1013" lon="7.36781">
        <ele>2118.4</ele>
        <time>2017-08-26T11:44:50Z</time>
      </trkpt>
      <trkpt lat="44.10122" lon="7.36783">
        <ele>2121.3</ele>
        <time>2017-08-26T11:45:03Z</time>
      </trkpt>
      <trkpt lat="44.10122" lon="7.3679">
        <ele>2122.5</ele>
        <time>2017-08-26T11:45:16Z</time>
      </trkpt>
      <trkpt lat="44.10117" lon="7.36799">
        <ele>2125.8</ele>
        <time>2017-08-26T11:45:30Z</time>
      </trkpt>
      <trkpt lat="44.10117" lon="7.36813">
        <ele>2128.6</ele>
        <time>2017-08-26T11:45:47Z</time>
      </trkpt>
      <trkpt lat="44.10115" lon="7.36814">
        <ele>2129.6</ele>
        <time>2017-08-26T11:45:59Z</time>
      </trkpt>
      <trkpt lat="44.10116" lon="7.36822">
        <ele>2131.2</ele>
        <time>2017-08-26T11:46:10Z</time>
      </trkpt>
      <trkpt lat="44.10115" lon="7.36827">
        <ele>2132.8</ele>
        <time>2017-08-26T11:46:24Z</time>
      </trkpt>
      <trkpt lat="44.10112" lon="7.36834">
        <ele>2135.8</ele>
        <time>2017-08-26T11:46:38Z</time>
      </trkpt>
      <trkpt lat="44.10111" lon="7.36844">
        <ele>2138.4</ele>
        <time>2017-08-26T11:46:51Z</time>
      </trkpt>
      <trkpt lat="44.10113" lon="7.36853">
        <ele>2139.4</ele>
        <time>2017-08-26T11:47:05Z</time>
      </trkpt>
      <trkpt lat="44.1011" lon="7.36856">
        <ele>2141.5</ele>
        <time>2017-08-26T11:47:18Z</time>
      </trkpt>
      <trkpt lat="44.10108" lon="7.36867">
        <ele>2145.6</ele>
        <time>2017-08-26T11:47:32Z</time>
      </trkpt>
      <trkpt lat="44.10106" lon="7.36869">
        <ele>2147.3</ele>
        <time>2017-08-26T11:47:49Z</time>
      </trkpt>
      <trkpt lat="44.10102" lon="7.3687">
        <ele>2149.7</ele>
        <time>2017-08-26T11:48:04Z</time>
      </trkpt>
      <trkpt lat="44.10101" lon="7.36878">
        <ele>2152.4</ele>
        <time>2017-08-26T11:48:17Z</time>
      </trkpt>
      <trkpt lat="44.10095" lon="7.36877">
        <ele>2155.1</ele>
        <time>2017-08-26T11:48:32Z</time>
      </trkpt>
      <trkpt lat="44.10093" lon="7.36875">
        <ele>2155.6</ele>
        <time>2017-08-26T11:48:47Z</time>
      </trkpt>
      <trkpt lat="44.10086" lon="7.36872">
        <ele>2158.6</ele>
        <time>2017-08-26T11:49:02Z</time>
      </trkpt>
      <trkpt lat="44.1008" lon="7.3687">
        <ele>2161.1</ele>
        <time>2017-08-26T11:49:18Z</time>
      </trkpt>
      <trkpt lat="44.10075" lon="7.36864">
        <ele>2161.9</ele>
        <time>2017-08-26T11:49:35Z</time>
      </trkpt>
      <trkpt lat="44.1007" lon="7.36876">
        <ele>2167</ele>
        <time>2017-08-26T11:49:49Z</time>
      </trkpt>
      <trkpt lat="44.10068" lon="7.36886">
        <ele>2170.5</ele>
        <time>2017-08-26T11:50:03Z</time>
      </trkpt>
      <trkpt lat="44.10068" lon="7.36891">
        <ele>2171.9</ele>
        <time>2017-08-26T11:50:17Z</time>
      </trkpt>
      <trkpt lat="44.10067" lon="7.36897">
        <ele>2174.2</ele>
        <time>2017-08-26T11:50:30Z</time>
      </trkpt>
      <trkpt lat="44.10064" lon="7.36899">
        <ele>2176.3</ele>
        <time>2017-08-26T11:50:44Z</time>
      </trkpt>
      <trkpt lat="44.10059" lon="7.36903">
        <ele>2179.9</ele>
        <time>2017-08-26T11:50:58Z</time>
      </trkpt>
      <trkpt lat="44.1006" lon="7.36912">
        <ele>2181.8</ele>
        <time>2017-08-26T11:51:14Z</time>
      </trkpt>
      <trkpt lat="44.10063" lon="7.36923">
        <ele>2183.8</ele>
        <time>2017-08-26T11:51:29Z</time>
      </trkpt>
      <trkpt lat="44.10063" lon="7.36924">
        <ele>2184.1</ele>
        <time>2017-08-26T11:51:42Z</time>
      </trkpt>
      <trkpt lat="44.10063" lon="7.36924">
        <ele>2184.1</ele>
        <time>2017-08-26T11:52:06Z</time>
      </trkpt>
      <trkpt lat="44.10063" lon="7.36923">
        <ele>2183.8</ele>
        <time>2017-08-26T11:52:37Z</time>
      </trkpt>
      <trkpt lat="44.10064" lon="7.36922">
        <ele>2183</ele>
        <time>2017-08-26T11:53:04Z</time>
      </trkpt>
      <trkpt lat="44.10064" lon="7.36922">
        <ele>2183</ele>
        <time>2017-08-26T11:53:33Z</time>
      </trkpt>
      <trkpt lat="44.10066" lon="7.36925">
        <ele>2183.1</ele>
        <time>2017-08-26T11:54:01Z</time>
      </trkpt>
      <trkpt lat="44.10069" lon="7.3693">
        <ele>2183.3</ele>
        <time>2017-08-26T11:54:13Z</time>
      </trkpt>
      <trkpt lat="44.1007" lon="7.3694">
        <ele>2185.9</ele>
        <time>2017-08-26T11:54:27Z</time>
      </trkpt>
      <trkpt lat="44.1007" lon="7.36949">
        <ele>2189.3</ele>
        <time>2017-08-26T11:54:43Z</time>
      </trkpt>
      <trkpt lat="44.10071" lon="7.36956">
        <ele>2191.8</ele>
        <time>2017-08-26T11:54:56Z</time>
      </trkpt>
      <trkpt lat="44.10071" lon="7.36964">
        <ele>2195.2</ele>
        <time>2017-08-26T11:55:08Z</time>
      </trkpt>
      <trkpt lat="44.10073" lon="7.36971">
        <ele>2196.7</ele>
        <time>2017-08-26T11:55:14Z</time>
      </trkpt>
      <trkpt lat="44.10074" lon="7.36972">
        <ele>2196.3</ele>
        <time>2017-08-26T11:55:16Z</time>
      </trkpt>
      <trkpt lat="44.10079" lon="7.36983">
        <ele>2197.1</ele>
        <time>2017-08-26T11:55:30Z</time>
      </trkpt>
      <trkpt lat="44.10081" lon="7.36989">
        <ele>2197.8</ele>
        <time>2017-08-26T11:55:36Z</time>
      </trkpt>
      <trkpt lat="44.10087" lon="7.36998">
        <ele>2196.6</ele>
        <time>2017-08-26T11:55:49Z</time>
      </trkpt>
      <trkpt lat="44.10091" lon="7.37006">
        <ele>2196.9</ele>
        <time>2017-08-26T11:56:01Z</time>
      </trkpt>
      <trkpt lat="44.10092" lon="7.3701">
        <ele>2197.7</ele>
        <time>2017-08-26T11:56:15Z</time>
      </trkpt>
      <trkpt lat="44.10092" lon="7.3701">
        <ele>2197.7</ele>
        <time>2017-08-26T11:56:30Z</time>
      </trkpt>
      <trkpt lat="44.10092" lon="7.3701">
        <ele>2197.7</ele>
        <time>2017-08-26T11:56:44Z</time>
      </trkpt>
      <trkpt lat="44.10092" lon="7.37012">
        <ele>2198.5</ele>
        <time>2017-08-26T11:56:58Z</time>
      </trkpt>
      <trkpt lat="44.10091" lon="7.37018">
        <ele>2201.7</ele>
        <time>2017-08-26T11:57:26Z</time>
      </trkpt>
      <trkpt lat="44.1009" lon="7.37023">
        <ele>2204.5</ele>
        <time>2017-08-26T11:57:40Z</time>
      </trkpt>
      <trkpt lat="44.1009" lon="7.37023">
        <ele>2204.5</ele>
        <time>2017-08-26T11:57:53Z</time>
      </trkpt>
      <trkpt lat="44.1009" lon="7.3703">
        <ele>2207.3</ele>
        <time>2017-08-26T11:58:03Z</time>
      </trkpt>
      <trkpt lat="44.1009" lon="7.37037">
        <ele>2210.1</ele>
        <time>2017-08-26T11:58:07Z</time>
      </trkpt>
      <trkpt lat="44.10093" lon="7.37051">
        <ele>2212.9</ele>
        <time>2017-08-26T11:58:14Z</time>
      </trkpt>
      <trkpt lat="44.10091" lon="7.37064">
        <ele>2219.5</ele>
        <time>2017-08-26T11:58:21Z</time>
      </trkpt>
      <trkpt lat="44.10094" lon="7.37077">
        <ele>2221.4</ele>
        <time>2017-08-26T11:58:35Z</time>
      </trkpt>
      <trkpt lat="44.10094" lon="7.37077">
        <ele>2221.4</ele>
        <time>2017-08-26T11:58:48Z</time>
      </trkpt>
      <trkpt lat="44.10094" lon="7.37077">
        <ele>2221.4</ele>
        <time>2017-08-26T11:59:04Z</time>
      </trkpt>
      <trkpt lat="44.10094" lon="7.37078">
        <ele>2221.7</ele>
        <time>2017-08-26T11:59:16Z</time>
      </trkpt>
      <trkpt lat="44.10094" lon="7.37078">
        <ele>2221.7</ele>
        <time>2017-08-26T11:59:31Z</time>
      </trkpt>
      <trkpt lat="44.10094" lon="7.37078">
        <ele>2221.7</ele>
        <time>2017-08-26T11:59:44Z</time>
      </trkpt>
      <trkpt lat="44.10094" lon="7.37083">
        <ele>2223.5</ele>
        <time>2017-08-26T11:59:57Z</time>
      </trkpt>
      <trkpt lat="44.10094" lon="7.37085">
        <ele>2224</ele>
        <time>2017-08-26T12:00:10Z</time>
      </trkpt>
      <trkpt lat="44.10096" lon="7.37107">
        <ele>2226.4</ele>
        <time>2017-08-26T12:00:18Z</time>
      </trkpt>
      <trkpt lat="44.10093" lon="7.37126">
        <ele>2232.4</ele>
        <time>2017-08-26T12:00:30Z</time>
      </trkpt>
      <trkpt lat="44.10092" lon="7.37138">
        <ele>2235.1</ele>
        <time>2017-08-26T12:00:43Z</time>
      </trkpt>
      <trkpt lat="44.10092" lon="7.37142">
        <ele>2235.7</ele>
        <time>2017-08-26T12:00:55Z</time>
      </trkpt>
      <trkpt lat="44.10092" lon="7.37141">
        <ele>2235.6</ele>
        <time>2017-08-26T12:01:09Z</time>
      </trkpt>
      <trkpt lat="44.10093" lon="7.3715">
        <ele>2235.9</ele>
        <time>2017-08-26T12:01:22Z</time>
      </trkpt>
      <trkpt lat="44.10093" lon="7.37161">
        <ele>2237.5</ele>
        <time>2017-08-26T12:01:32Z</time>
      </trkpt>
      <trkpt lat="44.1009" lon="7.37175">
        <ele>2242</ele>
        <time>2017-08-26T12:01:44Z</time>
      </trkpt>
      <trkpt lat="44.1009" lon="7.37174">
        <ele>2241.8</ele>
        <time>2017-08-26T12:01:58Z</time>
      </trkpt>
      <trkpt lat="44.10094" lon="7.37202">
        <ele>2242.6</ele>
        <time>2017-08-26T12:02:12Z</time>
      </trkpt>
      <trkpt lat="44.10096" lon="7.37223">
        <ele>2244.9</ele>
        <time>2017-08-26T12:02:23Z</time>
      </trkpt>
      <trkpt lat="44.10096" lon="7.37236">
        <ele>2247.5</ele>
        <time>2017-08-26T12:02:30Z</time>
      </trkpt>
      <trkpt lat="44.10096" lon="7.37248">
        <ele>2249.9</ele>
        <time>2017-08-26T12:02:41Z</time>
      </trkpt>
      <trkpt lat="44.10103" lon="7.37273">
        <ele>2249.8</ele>
        <time>2017-08-26T12:02:54Z</time>
      </trkpt>
      <trkpt lat="44.10108" lon="7.37282">
        <ele>2247.9</ele>
        <time>2017-08-26T12:03:07Z</time>
      </trkpt>
      <trkpt lat="44.10108" lon="7.37282">
        <ele>2247.9</ele>
        <time>2017-08-26T12:03:08Z</time>
      </trkpt>
      <trkpt lat="44.10108" lon="7.37286">
        <ele>2248.6</ele>
        <time>2017-08-26T12:03:16Z</time>
      </trkpt>
      <trkpt lat="44.10105" lon="7.37288">
        <ele>2250.9</ele>
        <time>2017-08-26T12:03:30Z</time>
      </trkpt>
      <trkpt lat="44.10105" lon="7.37288">
        <ele>2250.9</ele>
        <time>2017-08-26T12:03:53Z</time>
      </trkpt>
      <trkpt lat="44.10106" lon="7.37289">
        <ele>2250.4</ele>
        <time>2017-08-26T12:04:10Z</time>
      </trkpt>
      <trkpt lat="44.10106" lon="7.37289">
        <ele>2250.4</ele>
        <time>2017-08-26T12:04:34Z</time>
      </trkpt>
      <trkpt lat="44.10107" lon="7.37291">
        <ele>2250.1</ele>
        <time>2017-08-26T12:05:00Z</time>
      </trkpt>
      <trkpt lat="44.10108" lon="7.37295">
        <ele>2250.2</ele>
        <time>2017-08-26T12:05:15Z</time>
      </trkpt>
      <trkpt lat="44.10108" lon="7.37295">
        <ele>2250.2</ele>
        <time>2017-08-26T12:05:26Z</time>
      </trkpt>
      <trkpt lat="44.10107" lon="7.37296">
        <ele>2251</ele>
        <time>2017-08-26T12:05:44Z</time>
      </trkpt>
      <trkpt lat="44.10108" lon="7.37303">
        <ele>2251.6</ele>
        <time>2017-08-26T12:05:58Z</time>
      </trkpt>
      <trkpt lat="44.10111" lon="7.37306">
        <ele>2250.1</ele>
        <time>2017-08-26T12:06:06Z</time>
      </trkpt>
      <trkpt lat="44.10111" lon="7.37305">
        <ele>2250</ele>
        <time>2017-08-26T12:06:18Z</time>
      </trkpt>
      <trkpt lat="44.10111" lon="7.37305">
        <ele>2250</ele>
        <time>2017-08-26T12:06:31Z</time>
      </trkpt>
      <trkpt lat="44.10112" lon="7.37309">
        <ele>2250.1</ele>
        <time>2017-08-26T12:06:45Z</time>
      </trkpt>
      <trkpt lat="44.10117" lon="7.37325">
        <ele>2250.3</ele>
        <time>2017-08-26T12:06:58Z</time>
      </trkpt>
      <trkpt lat="44.10117" lon="7.37325">
        <ele>2250.3</ele>
        <time>2017-08-26T12:07:11Z</time>
      </trkpt>
      <trkpt lat="44.10117" lon="7.37325">
        <ele>2250.3</ele>
        <time>2017-08-26T12:07:27Z</time>
      </trkpt>
      <trkpt lat="44.10126" lon="7.37337">
        <ele>2249</ele>
        <time>2017-08-26T12:07:39Z</time>
      </trkpt>
      <trkpt lat="44.10141" lon="7.37364">
        <ele>2251.5</ele>
        <time>2017-08-26T12:07:50Z</time>
      </trkpt>
      <trkpt lat="44.10156" lon="7.37396">
        <ele>2259.6</ele>
        <time>2017-08-26T12:08:01Z</time>
      </trkpt>
      <trkpt lat="44.10163" lon="7.37411">
        <ele>2263.7</ele>
        <time>2017-08-26T12:08:11Z</time>
      </trkpt>
      <trkpt lat="44.10164" lon="7.37415">
        <ele>2265</ele>
        <time>2017-08-26T12:08:21Z</time>
      </trkpt>
      <trkpt lat="44.10167" lon="7.37421">
        <ele>2267</ele>
        <time>2017-08-26T12:08:33Z</time>
      </trkpt>
      <trkpt lat="44.10167" lon="7.37421">
        <ele>2267</ele>
        <time>2017-08-26T12:08:46Z</time>
      </trkpt>
      <trkpt lat="44.10167" lon="7.37421">
        <ele>2267</ele>
        <time>2017-08-26T12:09:00Z</time>
      </trkpt>
      <trkpt lat="44.1017" lon="7.37425">
        <ele>2268.4</ele>
        <time>2017-08-26T12:09:08Z</time>
      </trkpt>
      <trkpt lat="44.10185" lon="7.37439">
        <ele>2272.8</ele>
        <time>2017-08-26T12:09:21Z</time>
      </trkpt>
      <trkpt lat="44.10192" lon="7.37446">
        <ele>2274.9</ele>
        <time>2017-08-26T12:09:31Z</time>
      </trkpt>
      <trkpt lat="44.10195" lon="7.37449">
        <ele>2275.4</ele>
        <time>2017-08-26T12:09:45Z</time>
      </trkpt>
      <trkpt lat="44.10203" lon="7.37457">
        <ele>2276.4</ele>
        <time>2017-08-26T12:10:01Z</time>
      </trkpt>
      <trkpt lat="44.10206" lon="7.37463">
        <ele>2277.7</ele>
        <time>2017-08-26T12:10:14Z</time>
      </trkpt>
      <trkpt lat="44.10206" lon="7.37463">
        <ele>2277.7</ele>
        <time>2017-08-26T12:10:22Z</time>
      </trkpt>
      <trkpt lat="44.10209" lon="7.37469">
        <ele>2278.9</ele>
        <time>2017-08-26T12:10:35Z</time>
      </trkpt>
      <trkpt lat="44.10214" lon="7.37475">
        <ele>2278.8</ele>
        <time>2017-08-26T12:10:47Z</time>
      </trkpt>
      <trkpt lat="44.10216" lon="7.37481">
        <ele>2278.3</ele>
        <time>2017-08-26T12:10:58Z</time>
      </trkpt>
      <trkpt lat="44.10216" lon="7.37481">
        <ele>2278.3</ele>
        <time>2017-08-26T12:11:13Z</time>
      </trkpt>
      <trkpt lat="44.10217" lon="7.37484">
        <ele>2278</ele>
        <time>2017-08-26T12:11:28Z</time>
      </trkpt>
      <trkpt lat="44.10219" lon="7.37489">
        <ele>2277.4</ele>
        <time>2017-08-26T12:11:42Z</time>
      </trkpt>
      <trkpt lat="44.10225" lon="7.37507">
        <ele>2273.5</ele>
        <time>2017-08-26T12:11:57Z</time>
      </trkpt>
      <trkpt lat="44.10225" lon="7.37507">
        <ele>2273.5</ele>
        <time>2017-08-26T12:12:08Z</time>
      </trkpt>
      <trkpt lat="44.10227" lon="7.37515">
        <ele>2271.1</ele>
        <time>2017-08-26T12:12:21Z</time>
      </trkpt>
      <trkpt lat="44.10225" lon="7.3753">
        <ele>2269.8</ele>
        <time>2017-08-26T12:12:36Z</time>
      </trkpt>
      <trkpt lat="44.10225" lon="7.37531">
        <ele>2270</ele>
        <time>2017-08-26T12:12:48Z</time>
      </trkpt>
      <trkpt lat="44.10225" lon="7.37533">
        <ele>2270.6</ele>
        <time>2017-08-26T12:13:22Z</time>
      </trkpt>
      <trkpt lat="44.10225" lon="7.37533">
        <ele>2270.6</ele>
        <time>2017-08-26T12:13:55Z</time>
      </trkpt>
      <trkpt lat="44.10226" lon="7.37534">
        <ele>2270.6</ele>
        <time>2017-08-26T12:14:19Z</time>
      </trkpt>
      <trkpt lat="44.10226" lon="7.37545">
        <ele>2273.5</ele>
        <time>2017-08-26T12:14:36Z</time>
      </trkpt>
      <trkpt lat="44.10226" lon="7.3756">
        <ele>2277.5</ele>
        <time>2017-08-26T12:14:49Z</time>
      </trkpt>
      <trkpt lat="44.10226" lon="7.37567">
        <ele>2279.4</ele>
        <time>2017-08-26T12:15:05Z</time>
      </trkpt>
      <trkpt lat="44.10226" lon="7.37578">
        <ele>2282.3</ele>
        <time>2017-08-26T12:15:17Z</time>
      </trkpt>
      <trkpt lat="44.10228" lon="7.37586">
        <ele>2284</ele>
        <time>2017-08-26T12:15:31Z</time>
      </trkpt>
      <trkpt lat="44.10231" lon="7.37596">
        <ele>2285.6</ele>
        <time>2017-08-26T12:15:46Z</time>
      </trkpt>
      <trkpt lat="44.10234" lon="7.37609">
        <ele>2288</ele>
        <time>2017-08-26T12:16:01Z</time>
      </trkpt>
      <trkpt lat="44.10236" lon="7.37614">
        <ele>2288.9</ele>
        <time>2017-08-26T12:16:14Z</time>
      </trkpt>
      <trkpt lat="44.10238" lon="7.37618">
        <ele>2289.5</ele>
        <time>2017-08-26T12:16:29Z</time>
      </trkpt>
      <trkpt lat="44.10236" lon="7.37627">
        <ele>2290.5</ele>
        <time>2017-08-26T12:16:41Z</time>
      </trkpt>
      <trkpt lat="44.1024" lon="7.37644">
        <ele>2292.9</ele>
        <time>2017-08-26T12:16:54Z</time>
      </trkpt>
      <trkpt lat="44.10246" lon="7.37654">
        <ele>2294.8</ele>
        <time>2017-08-26T12:17:04Z</time>
      </trkpt>
      <trkpt lat="44.10248" lon="7.37667">
        <ele>2296.9</ele>
        <time>2017-08-26T12:17:17Z</time>
      </trkpt>
      <trkpt lat="44.10248" lon="7.37668">
        <ele>2297.1</ele>
        <time>2017-08-26T12:17:18Z</time>
      </trkpt>
      <trkpt lat="44.10246" lon="7.3768">
        <ele>2299.3</ele>
        <time>2017-08-26T12:17:31Z</time>
      </trkpt>
      <trkpt lat="44.10247" lon="7.37689">
        <ele>2301.3</ele>
        <time>2017-08-26T12:17:44Z</time>
      </trkpt>
      <trkpt lat="44.10246" lon="7.37701">
        <ele>2303.9</ele>
        <time>2017-08-26T12:17:57Z</time>
      </trkpt>
      <trkpt lat="44.10242" lon="7.37713">
        <ele>2306.2</ele>
        <time>2017-08-26T12:18:11Z</time>
      </trkpt>
      <trkpt lat="44.10244" lon="7.37721">
        <ele>2308.6</ele>
        <time>2017-08-26T12:18:25Z</time>
      </trkpt>
      <trkpt lat="44.10242" lon="7.37729">
        <ele>2310.8</ele>
        <time>2017-08-26T12:18:39Z</time>
      </trkpt>
      <trkpt lat="44.10241" lon="7.37732">
        <ele>2311.5</ele>
        <time>2017-08-26T12:18:54Z</time>
      </trkpt>
      <trkpt lat="44.1024" lon="7.37734">
        <ele>2312</ele>
        <time>2017-08-26T12:19:11Z</time>
      </trkpt>
      <trkpt lat="44.10242" lon="7.37732">
        <ele>2311.7</ele>
        <time>2017-08-26T12:19:32Z</time>
      </trkpt>
      <trkpt lat="44.10242" lon="7.37732">
        <ele>2311.7</ele>
        <time>2017-08-26T12:19:56Z</time>
      </trkpt>
      <trkpt lat="44.1024" lon="7.37734">
        <ele>2312</ele>
        <time>2017-08-26T12:20:06Z</time>
      </trkpt>
      <trkpt lat="44.1024" lon="7.37734">
        <ele>2312</ele>
        <time>2017-08-26T12:20:26Z</time>
      </trkpt>
      <trkpt lat="44.10242" lon="7.37733">
        <ele>2312.1</ele>
        <time>2017-08-26T12:20:38Z</time>
      </trkpt>
      <trkpt lat="44.10241" lon="7.37736">
        <ele>2312.8</ele>
        <time>2017-08-26T12:20:49Z</time>
      </trkpt>
      <trkpt lat="44.10241" lon="7.37737">
        <ele>2313.2</ele>
        <time>2017-08-26T12:21:07Z</time>
      </trkpt>
      <trkpt lat="44.10241" lon="7.37737">
        <ele>2313.2</ele>
        <time>2017-08-26T12:21:27Z</time>
      </trkpt>
      <trkpt lat="44.10241" lon="7.37737">
        <ele>2313.2</ele>
        <time>2017-08-26T12:21:51Z</time>
      </trkpt>
      <trkpt lat="44.1024" lon="7.37739">
        <ele>2313.6</ele>
        <time>2017-08-26T12:22:08Z</time>
      </trkpt>
      <trkpt lat="44.10242" lon="7.37743">
        <ele>2315.3</ele>
        <time>2017-08-26T12:22:25Z</time>
      </trkpt>
      <trkpt lat="44.10241" lon="7.3775">
        <ele>2317.4</ele>
        <time>2017-08-26T12:22:41Z</time>
      </trkpt>
      <trkpt lat="44.10239" lon="7.37755">
        <ele>2318.4</ele>
        <time>2017-08-26T12:23:04Z</time>
      </trkpt>
      <trkpt lat="44.10237" lon="7.37758">
        <ele>2318.8</ele>
        <time>2017-08-26T12:23:19Z</time>
      </trkpt>
      <trkpt lat="44.10246" lon="7.3777">
        <ele>2323.4</ele>
        <time>2017-08-26T12:23:33Z</time>
      </trkpt>
      <trkpt lat="44.10245" lon="7.37781">
        <ele>2326.1</ele>
        <time>2017-08-26T12:23:46Z</time>
      </trkpt>
      <trkpt lat="44.10247" lon="7.37791">
        <ele>2329</ele>
        <time>2017-08-26T12:24:00Z</time>
      </trkpt>
      <trkpt lat="44.10247" lon="7.37802">
        <ele>2331.8</ele>
        <time>2017-08-26T12:24:12Z</time>
      </trkpt>
      <trkpt lat="44.10248" lon="7.37812">
        <ele>2334.2</ele>
        <time>2017-08-26T12:24:24Z</time>
      </trkpt>
      <trkpt lat="44.10251" lon="7.37824">
        <ele>2337.3</ele>
        <time>2017-08-26T12:24:41Z</time>
      </trkpt>
      <trkpt lat="44.1025" lon="7.37833">
        <ele>2338.9</ele>
        <time>2017-08-26T12:24:54Z</time>
      </trkpt>
      <trkpt lat="44.10251" lon="7.37843">
        <ele>2341.7</ele>
        <time>2017-08-26T12:25:10Z</time>
      </trkpt>
      <trkpt lat="44.10251" lon="7.37853">
        <ele>2344.2</ele>
        <time>2017-08-26T12:25:28Z</time>
      </trkpt>
      <trkpt lat="44.10246" lon="7.37866">
        <ele>2347.3</ele>
        <time>2017-08-26T12:25:44Z</time>
      </trkpt>
      <trkpt lat="44.10249" lon="7.37875">
        <ele>2349.5</ele>
        <time>2017-08-26T12:26:00Z</time>
      </trkpt>
      <trkpt lat="44.10247" lon="7.37885">
        <ele>2352.2</ele>
        <time>2017-08-26T12:26:12Z</time>
      </trkpt>
      <trkpt lat="44.10251" lon="7.37892">
        <ele>2353.8</ele>
        <time>2017-08-26T12:26:28Z</time>
      </trkpt>
      <trkpt lat="44.10251" lon="7.37894">
        <ele>2354.3</ele>
        <time>2017-08-26T12:26:41Z</time>
      </trkpt>
      <trkpt lat="44.10251" lon="7.37894">
        <ele>2354.3</ele>
        <time>2017-08-26T12:27:09Z</time>
      </trkpt>
      <trkpt lat="44.10251" lon="7.37892">
        <ele>2353.8</ele>
        <time>2017-08-26T12:27:35Z</time>
      </trkpt>
      <trkpt lat="44.10253" lon="7.3789">
        <ele>2353.8</ele>
        <time>2017-08-26T12:27:55Z</time>
      </trkpt>
      <trkpt lat="44.10251" lon="7.3789">
        <ele>2353.4</ele>
        <time>2017-08-26T12:28:17Z</time>
      </trkpt>
      <trkpt lat="44.10251" lon="7.3789">
        <ele>2353.4</ele>
        <time>2017-08-26T12:28:41Z</time>
      </trkpt>
      <trkpt lat="44.10249" lon="7.3789">
        <ele>2353.3</ele>
        <time>2017-08-26T12:29:09Z</time>
      </trkpt>
      <trkpt lat="44.10249" lon="7.3789">
        <ele>2353.3</ele>
        <time>2017-08-26T12:29:36Z</time>
      </trkpt>
      <trkpt lat="44.10249" lon="7.37889">
        <ele>2353.1</ele>
        <time>2017-08-26T12:29:54Z</time>
      </trkpt>
      <trkpt lat="44.10249" lon="7.37889">
        <ele>2353.1</ele>
        <time>2017-08-26T12:30:13Z</time>
      </trkpt>
      <trkpt lat="44.10248" lon="7.3789">
        <ele>2353.4</ele>
        <time>2017-08-26T12:30:37Z</time>
      </trkpt>
      <trkpt lat="44.10249" lon="7.3789">
        <ele>2353.3</ele>
        <time>2017-08-26T12:30:57Z</time>
      </trkpt>
      <trkpt lat="44.10248" lon="7.37889">
        <ele>2353.2</ele>
        <time>2017-08-26T12:31:15Z</time>
      </trkpt>
      <trkpt lat="44.10248" lon="7.37894">
        <ele>2354.3</ele>
        <time>2017-08-26T12:31:26Z</time>
      </trkpt>
      <trkpt lat="44.10249" lon="7.37899">
        <ele>2355.3</ele>
        <time>2017-08-26T12:31:31Z</time>
      </trkpt>
      <trkpt lat="44.10246" lon="7.37912">
        <ele>2358.6</ele>
        <time>2017-08-26T12:31:44Z</time>
      </trkpt>
      <trkpt lat="44.10249" lon="7.37929">
        <ele>2361.9</ele>
        <time>2017-08-26T12:31:59Z</time>
      </trkpt>
      <trkpt lat="44.10249" lon="7.37942">
        <ele>2364.7</ele>
        <time>2017-08-26T12:32:15Z</time>
      </trkpt>
      <trkpt lat="44.10254" lon="7.37939">
        <ele>2363.9</ele>
        <time>2017-08-26T12:32:29Z</time>
      </trkpt>
      <trkpt lat="44.10262" lon="7.37934">
        <ele>2363.2</ele>
        <time>2017-08-26T12:32:44Z</time>
      </trkpt>
      <trkpt lat="44.10273" lon="7.37937">
        <ele>2364.1</ele>
        <time>2017-08-26T12:32:59Z</time>
      </trkpt>
      <trkpt lat="44.10276" lon="7.37946">
        <ele>2365.1</ele>
        <time>2017-08-26T12:33:16Z</time>
      </trkpt>
      <trkpt lat="44.10285" lon="7.37956">
        <ele>2368.1</ele>
        <time>2017-08-26T12:33:30Z</time>
      </trkpt>
      <trkpt lat="44.1029" lon="7.3797">
        <ele>2370</ele>
        <time>2017-08-26T12:33:46Z</time>
      </trkpt>
      <trkpt lat="44.10292" lon="7.37975">
        <ele>2370.7</ele>
        <time>2017-08-26T12:33:53Z</time>
      </trkpt>
      <trkpt lat="44.10296" lon="7.37984">
        <ele>2372.2</ele>
        <time>2017-08-26T12:34:06Z</time>
      </trkpt>
      <trkpt lat="44.10296" lon="7.38">
        <ele>2372.9</ele>
        <time>2017-08-26T12:34:21Z</time>
      </trkpt>
      <trkpt lat="44.10296" lon="7.38014">
        <ele>2373.8</ele>
        <time>2017-08-26T12:34:36Z</time>
      </trkpt>
      <trkpt lat="44.10295" lon="7.38025">
        <ele>2374.2</ele>
        <time>2017-08-26T12:34:49Z</time>
      </trkpt>
      <trkpt lat="44.10294" lon="7.38035">
        <ele>2374.6</ele>
        <time>2017-08-26T12:35:03Z</time>
      </trkpt>
      <trkpt lat="44.10294" lon="7.38036">
        <ele>2374.6</ele>
        <time>2017-08-26T12:35:04Z</time>
      </trkpt>
      <trkpt lat="44.10286" lon="7.3806">
        <ele>2374.8</ele>
        <time>2017-08-26T12:35:21Z</time>
      </trkpt>
      <trkpt lat="44.10284" lon="7.38072">
        <ele>2375.4</ele>
        <time>2017-08-26T12:35:34Z</time>
      </trkpt>
      <trkpt lat="44.10274" lon="7.38076">
        <ele>2374.3</ele>
        <time>2017-08-26T12:35:47Z</time>
      </trkpt>
      <trkpt lat="44.10267" lon="7.38086">
        <ele>2375</ele>
        <time>2017-08-26T12:36:01Z</time>
      </trkpt>
      <trkpt lat="44.10261" lon="7.38097">
        <ele>2376.1</ele>
        <time>2017-08-26T12:36:15Z</time>
      </trkpt>
      <trkpt lat="44.1026" lon="7.38101">
        <ele>2376.5</ele>
        <time>2017-08-26T12:36:18Z</time>
      </trkpt>
      <trkpt lat="44.10258" lon="7.38102">
        <ele>2376.5</ele>
        <time>2017-08-26T12:36:30Z</time>
      </trkpt>
      <trkpt lat="44.10258" lon="7.38102">
        <ele>2376.5</ele>
        <time>2017-08-26T12:36:34Z</time>
      </trkpt>
      <trkpt lat="44.10251" lon="7.38113">
        <ele>2377.4</ele>
        <time>2017-08-26T12:36:47Z</time>
      </trkpt>
      <trkpt lat="44.10246" lon="7.38116">
        <ele>2378.4</ele>
        <time>2017-08-26T12:36:56Z</time>
      </trkpt>
      <trkpt lat="44.10239" lon="7.3812">
        <ele>2380.1</ele>
        <time>2017-08-26T12:37:08Z</time>
      </trkpt>
      <trkpt lat="44.10239" lon="7.38119">
        <ele>2379.9</ele>
        <time>2017-08-26T12:37:10Z</time>
      </trkpt>
      <trkpt lat="44.10225" lon="7.38124">
        <ele>2382.5</ele>
        <time>2017-08-26T12:37:24Z</time>
      </trkpt>
      <trkpt lat="44.10214" lon="7.38124">
        <ele>2385.8</ele>
        <time>2017-08-26T12:37:39Z</time>
      </trkpt>
      <trkpt lat="44.10211" lon="7.38129">
        <ele>2387.5</ele>
        <time>2017-08-26T12:37:47Z</time>
      </trkpt>
      <trkpt lat="44.10212" lon="7.38142">
        <ele>2388.9</ele>
        <time>2017-08-26T12:37:59Z</time>
      </trkpt>
      <trkpt lat="44.10207" lon="7.38154">
        <ele>2392.6</ele>
        <time>2017-08-26T12:38:15Z</time>
      </trkpt>
      <trkpt lat="44.10204" lon="7.38158">
        <ele>2394.1</ele>
        <time>2017-08-26T12:38:30Z</time>
      </trkpt>
      <trkpt lat="44.10201" lon="7.38154">
        <ele>2394.3</ele>
        <time>2017-08-26T12:38:41Z</time>
      </trkpt>
      <trkpt lat="44.10195" lon="7.38165">
        <ele>2397.6</ele>
        <time>2017-08-26T12:38:53Z</time>
      </trkpt>
      <trkpt lat="44.10196" lon="7.38175">
        <ele>2398.9</ele>
        <time>2017-08-26T12:39:07Z</time>
      </trkpt>
      <trkpt lat="44.10191" lon="7.38181">
        <ele>2401.5</ele>
        <time>2017-08-26T12:39:19Z</time>
      </trkpt>
      <trkpt lat="44.10189" lon="7.38187">
        <ele>2403.2</ele>
        <time>2017-08-26T12:39:32Z</time>
      </trkpt>
      <trkpt lat="44.10189" lon="7.38189">
        <ele>2403.4</ele>
        <time>2017-08-26T12:39:45Z</time>
      </trkpt>
      <trkpt lat="44.1019" lon="7.38195">
        <ele>2403.9</ele>
        <time>2017-08-26T12:40:00Z</time>
      </trkpt>
      <trkpt lat="44.10189" lon="7.38197">
        <ele>2404.7</ele>
        <time>2017-08-26T12:40:18Z</time>
      </trkpt>
      <trkpt lat="44.10186" lon="7.38203">
        <ele>2406.9</ele>
        <time>2017-08-26T12:40:33Z</time>
      </trkpt>
      <trkpt lat="44.10189" lon="7.38206">
        <ele>2406.4</ele>
        <time>2017-08-26T12:40:48Z</time>
      </trkpt>
      <trkpt lat="44.10187" lon="7.38214">
        <ele>2408.6</ele>
        <time>2017-08-26T12:41:02Z</time>
      </trkpt>
      <trkpt lat="44.10188" lon="7.38216">
        <ele>2408.7</ele>
        <time>2017-08-26T12:41:16Z</time>
      </trkpt>
      <trkpt lat="44.10186" lon="7.38215">
        <ele>2409.1</ele>
        <time>2017-08-26T12:41:25Z</time>
      </trkpt>
      <trkpt lat="44.10177" lon="7.38223">
        <ele>2413.2</ele>
        <time>2017-08-26T12:41:40Z</time>
      </trkpt>
      <trkpt lat="44.10178" lon="7.3823">
        <ele>2414.3</ele>
        <time>2017-08-26T12:41:55Z</time>
      </trkpt>
      <trkpt lat="44.10179" lon="7.38237">
        <ele>2415.3</ele>
        <time>2017-08-26T12:42:10Z</time>
      </trkpt>
      <trkpt lat="44.10179" lon="7.3824">
        <ele>2415.9</ele>
        <time>2017-08-26T12:42:22Z</time>
      </trkpt>
      <trkpt lat="44.10178" lon="7.38254">
        <ele>2419.1</ele>
        <time>2017-08-26T12:42:35Z</time>
      </trkpt>
      <trkpt lat="44.10176" lon="7.38259">
        <ele>2420.7</ele>
        <time>2017-08-26T12:42:52Z</time>
      </trkpt>
      <trkpt lat="44.10176" lon="7.38262">
        <ele>2421.4</ele>
        <time>2017-08-26T12:43:07Z</time>
      </trkpt>
      <trkpt lat="44.10177" lon="7.38264">
        <ele>2421.6</ele>
        <time>2017-08-26T12:43:20Z</time>
      </trkpt>
      <trkpt lat="44.10177" lon="7.38264">
        <ele>2421.6</ele>
        <time>2017-08-26T12:43:23Z</time>
      </trkpt>
      <trkpt lat="44.10175" lon="7.38266">
        <ele>2422.5</ele>
        <time>2017-08-26T12:43:36Z</time>
      </trkpt>
      <trkpt lat="44.10175" lon="7.38266">
        <ele>2422.5</ele>
        <time>2017-08-26T12:43:39Z</time>
      </trkpt>
      <trkpt lat="44.10175" lon="7.38269">
        <ele>2423.2</ele>
        <time>2017-08-26T12:43:41Z</time>
      </trkpt>
      <trkpt lat="44.10173" lon="7.38285">
        <ele>2427.5</ele>
        <time>2017-08-26T12:43:55Z</time>
      </trkpt>
      <trkpt lat="44.10174" lon="7.38292">
        <ele>2429</ele>
        <time>2017-08-26T12:43:59Z</time>
      </trkpt>
      <trkpt lat="44.10172" lon="7.38305">
        <ele>2432.7</ele>
        <time>2017-08-26T12:44:12Z</time>
      </trkpt>
      <trkpt lat="44.1017" lon="7.3831">
        <ele>2434.4</ele>
        <time>2017-08-26T12:44:23Z</time>
      </trkpt>
      <trkpt lat="44.10169" lon="7.38317">
        <ele>2436.4</ele>
        <time>2017-08-26T12:44:31Z</time>
      </trkpt>
      <trkpt lat="44.10165" lon="7.38321">
        <ele>2438.4</ele>
        <time>2017-08-26T12:44:43Z</time>
      </trkpt>
      <trkpt lat="44.10166" lon="7.38334">
        <ele>2441.4</ele>
        <time>2017-08-26T12:44:55Z</time>
      </trkpt>
      <trkpt lat="44.10167" lon="7.3834">
        <ele>2442.6</ele>
        <time>2017-08-26T12:44:59Z</time>
      </trkpt>
      <trkpt lat="44.10167" lon="7.38343">
        <ele>2443.4</ele>
        <time>2017-08-26T12:45:13Z</time>
      </trkpt>
      <trkpt lat="44.10162" lon="7.38353">
        <ele>2447.3</ele>
        <time>2017-08-26T12:45:25Z</time>
      </trkpt>
      <trkpt lat="44.1016" lon="7.38363">
        <ele>2450.5</ele>
        <time>2017-08-26T12:45:37Z</time>
      </trkpt>
      <trkpt lat="44.10157" lon="7.3838">
        <ele>2456.4</ele>
        <time>2017-08-26T12:45:50Z</time>
      </trkpt>
      <trkpt lat="44.10153" lon="7.38386">
        <ele>2459.1</ele>
        <time>2017-08-26T12:46:01Z</time>
      </trkpt>
      <trkpt lat="44.10153" lon="7.38389">
        <ele>2460</ele>
        <time>2017-08-26T12:46:14Z</time>
      </trkpt>
      <trkpt lat="44.10153" lon="7.38392">
        <ele>2461</ele>
        <time>2017-08-26T12:46:29Z</time>
      </trkpt>
      <trkpt lat="44.10154" lon="7.38395">
        <ele>2461.8</ele>
        <time>2017-08-26T12:46:32Z</time>
      </trkpt>
      <trkpt lat="44.10154" lon="7.38401">
        <ele>2463.9</ele>
        <time>2017-08-26T12:46:37Z</time>
      </trkpt>
      <trkpt lat="44.10152" lon="7.38409">
        <ele>2467</ele>
        <time>2017-08-26T12:46:49Z</time>
      </trkpt>
      <trkpt lat="44.10152" lon="7.38409">
        <ele>2467</ele>
        <time>2017-08-26T12:47:09Z</time>
      </trkpt>
      <trkpt lat="44.1015" lon="7.38415">
        <ele>2469.4</ele>
        <time>2017-08-26T12:47:26Z</time>
      </trkpt>
      <trkpt lat="44.1015" lon="7.38417">
        <ele>2470.1</ele>
        <time>2017-08-26T12:47:39Z</time>
      </trkpt>
      <trkpt lat="44.10149" lon="7.38422">
        <ele>2472.2</ele>
        <time>2017-08-26T12:47:51Z</time>
      </trkpt>
      <trkpt lat="44.10152" lon="7.38429">
        <ele>2474.3</ele>
        <time>2017-08-26T12:48:07Z</time>
      </trkpt>
      <trkpt lat="44.10153" lon="7.38434">
        <ele>2476</ele>
        <time>2017-08-26T12:48:17Z</time>
      </trkpt>
      <trkpt lat="44.10157" lon="7.38443">
        <ele>2478.8</ele>
        <time>2017-08-26T12:48:29Z</time>
      </trkpt>
      <trkpt lat="44.1016" lon="7.3845">
        <ele>2481.5</ele>
        <time>2017-08-26T12:48:39Z</time>
      </trkpt>
      <trkpt lat="44.10164" lon="7.38454">
        <ele>2482.8</ele>
        <time>2017-08-26T12:48:51Z</time>
      </trkpt>
      <trkpt lat="44.10169" lon="7.3846">
        <ele>2485.5</ele>
        <time>2017-08-26T12:49:05Z</time>
      </trkpt>
      <trkpt lat="44.10168" lon="7.38463">
        <ele>2486.8</ele>
        <time>2017-08-26T12:49:20Z</time>
      </trkpt>
      <trkpt lat="44.10167" lon="7.38469">
        <ele>2489.5</ele>
        <time>2017-08-26T12:49:35Z</time>
      </trkpt>
      <trkpt lat="44.10164" lon="7.38468">
        <ele>2489.3</ele>
        <time>2017-08-26T12:49:47Z</time>
      </trkpt>
      <trkpt lat="44.10168" lon="7.38478">
        <ele>2494.6</ele>
        <time>2017-08-26T12:49:57Z</time>
      </trkpt>
      <trkpt lat="44.10169" lon="7.38486">
        <ele>2499.4</ele>
        <time>2017-08-26T12:50:06Z</time>
      </trkpt>
      <trkpt lat="44.10173" lon="7.38491">
        <ele>2503.3</ele>
        <time>2017-08-26T12:50:11Z</time>
      </trkpt>
      <trkpt lat="44.10174" lon="7.38493">
        <ele>2504.8</ele>
        <time>2017-08-26T12:50:15Z</time>
      </trkpt>
      <trkpt lat="44.10175" lon="7.38498">
        <ele>2508.2</ele>
        <time>2017-08-26T12:50:26Z</time>
      </trkpt>
      <trkpt lat="44.10174" lon="7.38498">
        <ele>2507.9</ele>
        <time>2017-08-26T12:50:40Z</time>
      </trkpt>
      <trkpt lat="44.10174" lon="7.38498">
        <ele>2507.9</ele>
        <time>2017-08-26T12:50:55Z</time>
      </trkpt>
      <trkpt lat="44.10174" lon="7.38501">
        <ele>2509.8</ele>
        <time>2017-08-26T12:51:06Z</time>
      </trkpt>
      <trkpt lat="44.10168" lon="7.38511">
        <ele>2514.6</ele>
        <time>2017-08-26T12:51:21Z</time>
      </trkpt>
      <trkpt lat="44.10165" lon="7.38512">
        <ele>2514.7</ele>
        <time>2017-08-26T12:51:33Z</time>
      </trkpt>
      <trkpt lat="44.10165" lon="7.38512">
        <ele>2514.7</ele>
        <time>2017-08-26T12:51:46Z</time>
      </trkpt>
      <trkpt lat="44.1016" lon="7.38517">
        <ele>2517.6</ele>
        <time>2017-08-26T12:51:57Z</time>
      </trkpt>
      <trkpt lat="44.10159" lon="7.38519">
        <ele>2518.7</ele>
        <time>2017-08-26T12:51:58Z</time>
      </trkpt>
      <trkpt lat="44.10159" lon="7.38518">
        <ele>2518.1</ele>
        <time>2017-08-26T12:52:00Z</time>
      </trkpt>
      <trkpt lat="44.10149" lon="7.38525">
        <ele>2521.5</ele>
        <time>2017-08-26T12:52:04Z</time>
      </trkpt>
      <trkpt lat="44.10143" lon="7.38533">
        <ele>2525.3</ele>
        <time>2017-08-26T12:52:13Z</time>
      </trkpt>
      <trkpt lat="44.10138" lon="7.38542">
        <ele>2529.9</ele>
        <time>2017-08-26T12:52:28Z</time>
      </trkpt>
      <trkpt lat="44.1014" lon="7.38544">
        <ele>2531</ele>
        <time>2017-08-26T12:52:39Z</time>
      </trkpt>
      <trkpt lat="44.10136" lon="7.38548">
        <ele>2533.5</ele>
        <time>2017-08-26T12:52:53Z</time>
      </trkpt>
      <trkpt lat="44.10135" lon="7.38555">
        <ele>2537.4</ele>
        <time>2017-08-26T12:53:11Z</time>
      </trkpt>
      <trkpt lat="44.10132" lon="7.3856">
        <ele>2539.8</ele>
        <time>2017-08-26T12:53:21Z</time>
      </trkpt>
      <trkpt lat="44.1013" lon="7.38567">
        <ele>2542.3</ele>
        <time>2017-08-26T12:53:33Z</time>
      </trkpt>
      <trkpt lat="44.10128" lon="7.38568">
        <ele>2542.8</ele>
        <time>2017-08-26T12:53:46Z</time>
      </trkpt>
      <trkpt lat="44.10127" lon="7.38569">
        <ele>2543.2</ele>
        <time>2017-08-26T12:53:48Z</time>
      </trkpt>
      <trkpt lat="44.10126" lon="7.38573">
        <ele>2544.5</ele>
        <time>2017-08-26T12:53:53Z</time>
      </trkpt>
      <trkpt lat="44.10126" lon="7.38576">
        <ele>2545.4</ele>
        <time>2017-08-26T12:54:04Z</time>
      </trkpt>
      <trkpt lat="44.10125" lon="7.38577">
        <ele>2545.7</ele>
        <time>2017-08-26T12:54:18Z</time>
      </trkpt>
      <trkpt lat="44.10124" lon="7.3858">
        <ele>2546.5</ele>
        <time>2017-08-26T12:54:21Z</time>
      </trkpt>
      <trkpt lat="44.10124" lon="7.38581">
        <ele>2546.8</ele>
        <time>2017-08-26T12:54:22Z</time>
      </trkpt>
      <trkpt lat="44.10122" lon="7.3859">
        <ele>2547.6</ele>
        <time>2017-08-26T12:54:35Z</time>
      </trkpt>
      <trkpt lat="44.10117" lon="7.38595">
        <ele>2546.6</ele>
        <time>2017-08-26T12:54:47Z</time>
      </trkpt>
      <trkpt lat="44.10118" lon="7.38598">
        <ele>2546.7</ele>
        <time>2017-08-26T12:55:02Z</time>
      </trkpt>
      <trkpt lat="44.10115" lon="7.38598">
        <ele>2545.9</ele>
        <time>2017-08-26T12:55:11Z</time>
      </trkpt>
      <trkpt lat="44.10113" lon="7.386">
        <ele>2545.2</ele>
        <time>2017-08-26T12:55:14Z</time>
      </trkpt>
      <trkpt lat="44.1011" lon="7.38603">
        <ele>2544.1</ele>
        <time>2017-08-26T12:55:17Z</time>
      </trkpt>
      <trkpt lat="44.1011" lon="7.38603">
        <ele>2544.1</ele>
        <time>2017-08-26T12:55:26Z</time>
      </trkpt>
      <trkpt lat="44.1011" lon="7.38603">
        <ele>2544.1</ele>
        <time>2017-08-26T12:55:50Z</time>
      </trkpt>
      <trkpt lat="44.10106" lon="7.38602">
        <ele>2544.2</ele>
        <time>2017-08-26T12:56:10Z</time>
      </trkpt>
      <trkpt lat="44.10105" lon="7.38602">
        <ele>2544.2</ele>
        <time>2017-08-26T12:56:23Z</time>
      </trkpt>
      <trkpt lat="44.10106" lon="7.38601">
        <ele>2544.5</ele>
        <time>2017-08-26T12:56:36Z</time>
      </trkpt>
      <trkpt lat="44.10106" lon="7.38599">
        <ele>2544.9</ele>
        <time>2017-08-26T12:56:51Z</time>
      </trkpt>
      <trkpt lat="44.10106" lon="7.38598">
        <ele>2545.2</ele>
        <time>2017-08-26T12:57:03Z</time>
      </trkpt>
      <trkpt lat="44.10105" lon="7.38598">
        <ele>2545.2</ele>
        <time>2017-08-26T12:57:19Z</time>
      </trkpt>
      <trkpt lat="44.10106" lon="7.38599">
        <ele>2544.9</ele>
        <time>2017-08-26T12:57:32Z</time>
      </trkpt>
      <trkpt lat="44.10109" lon="7.38602">
        <ele>2544.3</ele>
        <time>2017-08-26T12:57:46Z</time>
      </trkpt>
      <trkpt lat="44.10109" lon="7.38607">
        <ele>2543.4</ele>
        <time>2017-08-26T12:58:00Z</time>
      </trkpt>
      <trkpt lat="44.10108" lon="7.38607">
        <ele>2543.3</ele>
        <time>2017-08-26T12:58:12Z</time>
      </trkpt>
      <trkpt lat="44.1011" lon="7.38611">
        <ele>2542.8</ele>
        <time>2017-08-26T12:58:28Z</time>
      </trkpt>
      <trkpt lat="44.10108" lon="7.38614">
        <ele>2541.1</ele>
        <time>2017-08-26T12:58:42Z</time>
      </trkpt>
      <trkpt lat="44.10109" lon="7.38612">
        <ele>2542.2</ele>
        <time>2017-08-26T12:58:59Z</time>
      </trkpt>
      <trkpt lat="44.10108" lon="7.38617">
        <ele>2539.7</ele>
        <time>2017-08-26T12:59:12Z</time>
      </trkpt>
      <trkpt lat="44.10106" lon="7.38617">
        <ele>2539.1</ele>
        <time>2017-08-26T12:59:28Z</time>
      </trkpt>
      <trkpt lat="44.10103" lon="7.3862">
        <ele>2536.8</ele>
        <time>2017-08-26T12:59:42Z</time>
      </trkpt>
      <trkpt lat="44.10104" lon="7.38621">
        <ele>2536.5</ele>
        <time>2017-08-26T12:59:55Z</time>
      </trkpt>
      <trkpt lat="44.10107" lon="7.38627">
        <ele>2534.5</ele>
        <time>2017-08-26T13:00:08Z</time>
      </trkpt>
      <trkpt lat="44.10103" lon="7.3863">
        <ele>2531.4</ele>
        <time>2017-08-26T13:00:21Z</time>
      </trkpt>
      <trkpt lat="44.10102" lon="7.38631">
        <ele>2530.4</ele>
        <time>2017-08-26T13:00:35Z</time>
      </trkpt>
      <trkpt lat="44.10099" lon="7.38634">
        <ele>2527.3</ele>
        <time>2017-08-26T13:00:51Z</time>
      </trkpt>
      <trkpt lat="44.101" lon="7.38639">
        <ele>2524.9</ele>
        <time>2017-08-26T13:01:03Z</time>
      </trkpt>
      <trkpt lat="44.10101" lon="7.38645">
        <ele>2521.3</ele>
        <time>2017-08-26T13:01:17Z</time>
      </trkpt>
      <trkpt lat="44.10098" lon="7.38645">
        <ele>2519.5</ele>
        <time>2017-08-26T13:01:30Z</time>
      </trkpt>
      <trkpt lat="44.10097" lon="7.38647">
        <ele>2517.5</ele>
        <time>2017-08-26T13:01:45Z</time>
      </trkpt>
      <trkpt lat="44.10094" lon="7.3865">
        <ele>2513.6</ele>
        <time>2017-08-26T13:01:59Z</time>
      </trkpt>
      <trkpt lat="44.10094" lon="7.38651">
        <ele>2512.8</ele>
        <time>2017-08-26T13:02:13Z</time>
      </trkpt>
      <trkpt lat="44.1009" lon="7.38655">
        <ele>2507.4</ele>
        <time>2017-08-26T13:02:29Z</time>
      </trkpt>
      <trkpt lat="44.10087" lon="7.3866">
        <ele>2501.7</ele>
        <time>2017-08-26T13:02:41Z</time>
      </trkpt>
      <trkpt lat="44.10081" lon="7.38661">
        <ele>2498.2</ele>
        <time>2017-08-26T13:02:50Z</time>
      </trkpt>
      <trkpt lat="44.10082" lon="7.38661">
        <ele>2498.3</ele>
        <time>2017-08-26T13:02:54Z</time>
      </trkpt>
      <trkpt lat="44.10082" lon="7.38665">
        <ele>2495.1</ele>
        <time>2017-08-26T13:03:10Z</time>
      </trkpt>
      <trkpt lat="44.10081" lon="7.38674">
        <ele>2488.3</ele>
        <time>2017-08-26T13:03:25Z</time>
      </trkpt>
      <trkpt lat="44.10079" lon="7.38675">
        <ele>2487.3</ele>
        <time>2017-08-26T13:03:41Z</time>
      </trkpt>
      <trkpt lat="44.10076" lon="7.3868">
        <ele>2483.1</ele>
        <time>2017-08-26T13:03:55Z</time>
      </trkpt>
      <trkpt lat="44.10071" lon="7.38681">
        <ele>2481.4</ele>
        <time>2017-08-26T13:04:06Z</time>
      </trkpt>
      <trkpt lat="44.10067" lon="7.38681">
        <ele>2480.7</ele>
        <time>2017-08-26T13:04:10Z</time>
      </trkpt>
      <trkpt lat="44.10065" lon="7.38682">
        <ele>2479.6</ele>
        <time>2017-08-26T13:04:14Z</time>
      </trkpt>
      <trkpt lat="44.10064" lon="7.38687">
        <ele>2475.6</ele>
        <time>2017-08-26T13:04:20Z</time>
      </trkpt>
      <trkpt lat="44.10057" lon="7.38694">
        <ele>2468.7</ele>
        <time>2017-08-26T13:04:32Z</time>
      </trkpt>
      <trkpt lat="44.10057" lon="7.38694">
        <ele>2468.7</ele>
        <time>2017-08-26T13:04:49Z</time>
      </trkpt>
      <trkpt lat="44.10057" lon="7.38694">
        <ele>2468.7</ele>
        <time>2017-08-26T13:05:11Z</time>
      </trkpt>
      <trkpt lat="44.10052" lon="7.38696">
        <ele>2468.1</ele>
        <time>2017-08-26T13:05:34Z</time>
      </trkpt>
      <trkpt lat="44.10044" lon="7.38702">
        <ele>2466.4</ele>
        <time>2017-08-26T13:05:50Z</time>
      </trkpt>
      <trkpt lat="44.10039" lon="7.38708">
        <ele>2463.5</ele>
        <time>2017-08-26T13:06:03Z</time>
      </trkpt>
      <trkpt lat="44.10036" lon="7.38709">
        <ele>2463.4</ele>
        <time>2017-08-26T13:06:07Z</time>
      </trkpt>
      <trkpt lat="44.10035" lon="7.3871">
        <ele>2462.9</ele>
        <time>2017-08-26T13:06:11Z</time>
      </trkpt>
      <trkpt lat="44.10031" lon="7.38713">
        <ele>2461.4</ele>
        <time>2017-08-26T13:06:26Z</time>
      </trkpt>
      <trkpt lat="44.10025" lon="7.38723">
        <ele>2455.5</ele>
        <time>2017-08-26T13:06:39Z</time>
      </trkpt>
      <trkpt lat="44.10022" lon="7.38726">
        <ele>2454.7</ele>
        <time>2017-08-26T13:06:51Z</time>
      </trkpt>
      <trkpt lat="44.10023" lon="7.38737">
        <ele>2447.5</ele>
        <time>2017-08-26T13:07:14Z</time>
      </trkpt>
      <trkpt lat="44.10026" lon="7.38744">
        <ele>2442.2</ele>
        <time>2017-08-26T13:07:23Z</time>
      </trkpt>
      <trkpt lat="44.10024" lon="7.38749">
        <ele>2439.7</ele>
        <time>2017-08-26T13:07:28Z</time>
      </trkpt>
      <trkpt lat="44.10023" lon="7.38762">
        <ele>2433.6</ele>
        <time>2017-08-26T13:07:40Z</time>
      </trkpt>
      <trkpt lat="44.10021" lon="7.38762">
        <ele>2433.9</ele>
        <time>2017-08-26T13:07:54Z</time>
      </trkpt>
      <trkpt lat="44.10021" lon="7.38762">
        <ele>2433.9</ele>
        <time>2017-08-26T13:08:16Z</time>
      </trkpt>
      <trkpt lat="44.10021" lon="7.38765">
        <ele>2432.4</ele>
        <time>2017-08-26T13:08:34Z</time>
      </trkpt>
      <trkpt lat="44.10019" lon="7.38775">
        <ele>2427.5</ele>
        <time>2017-08-26T13:08:44Z</time>
      </trkpt>
      <trkpt lat="44.1002" lon="7.38785">
        <ele>2422.7</ele>
        <time>2017-08-26T13:08:57Z</time>
      </trkpt>
      <trkpt lat="44.10011" lon="7.38793">
        <ele>2418.4</ele>
        <time>2017-08-26T13:09:11Z</time>
      </trkpt>
      <trkpt lat="44.10009" lon="7.38793">
        <ele>2418.3</ele>
        <time>2017-08-26T13:09:29Z</time>
      </trkpt>
      <trkpt lat="44.10009" lon="7.38798">
        <ele>2415.8</ele>
        <time>2017-08-26T13:09:40Z</time>
      </trkpt>
      <trkpt lat="44.10007" lon="7.38805">
        <ele>2412</ele>
        <time>2017-08-26T13:09:48Z</time>
      </trkpt>
      <trkpt lat="44.10009" lon="7.38814">
        <ele>2409.1</ele>
        <time>2017-08-26T13:09:54Z</time>
      </trkpt>
      <trkpt lat="44.1001" lon="7.38815">
        <ele>2408.9</ele>
        <time>2017-08-26T13:10:06Z</time>
      </trkpt>
      <trkpt lat="44.10005" lon="7.38827">
        <ele>2404.8</ele>
        <time>2017-08-26T13:10:18Z</time>
      </trkpt>
      <trkpt lat="44.10005" lon="7.38835">
        <ele>2402.3</ele>
        <time>2017-08-26T13:10:25Z</time>
      </trkpt>
      <trkpt lat="44.10005" lon="7.38836">
        <ele>2402</ele>
        <time>2017-08-26T13:10:29Z</time>
      </trkpt>
      <trkpt lat="44.10005" lon="7.38836">
        <ele>2402</ele>
        <time>2017-08-26T13:10:33Z</time>
      </trkpt>
      <trkpt lat="44.10005" lon="7.38838">
        <ele>2401.3</ele>
        <time>2017-08-26T13:10:48Z</time>
      </trkpt>
      <trkpt lat="44.10005" lon="7.38838">
        <ele>2401.3</ele>
        <time>2017-08-26T13:11:04Z</time>
      </trkpt>
      <trkpt lat="44.10004" lon="7.38838">
        <ele>2401.3</ele>
        <time>2017-08-26T13:11:23Z</time>
      </trkpt>
      <trkpt lat="44.10003" lon="7.38844">
        <ele>2399.4</ele>
        <time>2017-08-26T13:11:37Z</time>
      </trkpt>
      <trkpt lat="44.10003" lon="7.38844">
        <ele>2399.4</ele>
        <time>2017-08-26T13:11:52Z</time>
      </trkpt>
      <trkpt lat="44.10003" lon="7.38844">
        <ele>2399.4</ele>
        <time>2017-08-26T13:12:16Z</time>
      </trkpt>
      <trkpt lat="44.10003" lon="7.38844">
        <ele>2399.4</ele>
        <time>2017-08-26T13:12:33Z</time>
      </trkpt>
      <trkpt lat="44.10003" lon="7.38844">
        <ele>2399.4</ele>
        <time>2017-08-26T13:12:45Z</time>
      </trkpt>
      <trkpt lat="44.10003" lon="7.38852">
        <ele>2396.8</ele>
        <time>2017-08-26T13:12:48Z</time>
      </trkpt>
      <trkpt lat="44.10003" lon="7.38856">
        <ele>2395.5</ele>
        <time>2017-08-26T13:13:01Z</time>
      </trkpt>
      <trkpt lat="44.10003" lon="7.38856">
        <ele>2395.5</ele>
        <time>2017-08-26T13:13:17Z</time>
      </trkpt>
      <trkpt lat="44.10003" lon="7.38856">
        <ele>2395.5</ele>
        <time>2017-08-26T13:13:35Z</time>
      </trkpt>
      <trkpt lat="44.09998" lon="7.38868">
        <ele>2392.7</ele>
        <time>2017-08-26T13:13:50Z</time>
      </trkpt>
      <trkpt lat="44.09997" lon="7.38871">
        <ele>2392.2</ele>
        <time>2017-08-26T13:13:52Z</time>
      </trkpt>
      <trkpt lat="44.09996" lon="7.38879">
        <ele>2390.1</ele>
        <time>2017-08-26T13:13:58Z</time>
      </trkpt>
      <trkpt lat="44.09999" lon="7.38886">
        <ele>2387.1</ele>
        <time>2017-08-26T13:14:14Z</time>
      </trkpt>
      <trkpt lat="44.09998" lon="7.38895">
        <ele>2385</ele>
        <time>2017-08-26T13:14:27Z</time>
      </trkpt>
      <trkpt lat="44.1" lon="7.38904">
        <ele>2382.2</ele>
        <time>2017-08-26T13:14:33Z</time>
      </trkpt>
      <trkpt lat="44.1" lon="7.38906">
        <ele>2381.7</ele>
        <time>2017-08-26T13:14:37Z</time>
      </trkpt>
      <trkpt lat="44.10004" lon="7.3891">
        <ele>2379.9</ele>
        <time>2017-08-26T13:14:47Z</time>
      </trkpt>
      <trkpt lat="44.10003" lon="7.3892">
        <ele>2377.6</ele>
        <time>2017-08-26T13:14:55Z</time>
      </trkpt>
      <trkpt lat="44.10004" lon="7.38929">
        <ele>2375.2</ele>
        <time>2017-08-26T13:15:02Z</time>
      </trkpt>
      <trkpt lat="44.10004" lon="7.38933">
        <ele>2374.3</ele>
        <time>2017-08-26T13:15:05Z</time>
      </trkpt>
      <trkpt lat="44.10007" lon="7.38937">
        <ele>2372.9</ele>
        <time>2017-08-26T13:15:13Z</time>
      </trkpt>
      <trkpt lat="44.10009" lon="7.38946">
        <ele>2370.8</ele>
        <time>2017-08-26T13:15:24Z</time>
      </trkpt>
      <trkpt lat="44.10013" lon="7.38955">
        <ele>2369.1</ele>
        <time>2017-08-26T13:15:32Z</time>
      </trkpt>
      <trkpt lat="44.10014" lon="7.38963">
        <ele>2367.8</ele>
        <time>2017-08-26T13:15:39Z</time>
      </trkpt>
      <trkpt lat="44.10016" lon="7.38963">
        <ele>2367.7</ele>
        <time>2017-08-26T13:15:42Z</time>
      </trkpt>
      <trkpt lat="44.10023" lon="7.38966">
        <ele>2366.9</ele>
        <time>2017-08-26T13:15:50Z</time>
      </trkpt>
      <trkpt lat="44.10025" lon="7.38978">
        <ele>2365.4</ele>
        <time>2017-08-26T13:16:00Z</time>
      </trkpt>
      <trkpt lat="44.10024" lon="7.38983">
        <ele>2364.8</ele>
        <time>2017-08-26T13:16:05Z</time>
      </trkpt>
      <trkpt lat="44.10024" lon="7.3899">
        <ele>2364</ele>
        <time>2017-08-26T13:16:10Z</time>
      </trkpt>
      <trkpt lat="44.10018" lon="7.39001">
        <ele>2362.2</ele>
        <time>2017-08-26T13:16:21Z</time>
      </trkpt>
      <trkpt lat="44.10017" lon="7.39014">
        <ele>2360.3</ele>
        <time>2017-08-26T13:16:34Z</time>
      </trkpt>
      <trkpt lat="44.10014" lon="7.39023">
        <ele>2358.7</ele>
        <time>2017-08-26T13:16:48Z</time>
      </trkpt>
      <trkpt lat="44.10014" lon="7.39023">
        <ele>2358.7</ele>
        <time>2017-08-26T13:17:14Z</time>
      </trkpt>
      <trkpt lat="44.10014" lon="7.39024">
        <ele>2358.6</ele>
        <time>2017-08-26T13:17:41Z</time>
      </trkpt>
      <trkpt lat="44.10015" lon="7.39026">
        <ele>2358.4</ele>
        <time>2017-08-26T13:18:11Z</time>
      </trkpt>
      <trkpt lat="44.1002" lon="7.39029">
        <ele>2358.8</ele>
        <time>2017-08-26T13:18:25Z</time>
      </trkpt>
      <trkpt lat="44.1002" lon="7.39028">
        <ele>2358.9</ele>
        <time>2017-08-26T13:18:46Z</time>
      </trkpt>
      <trkpt lat="44.10019" lon="7.39031">
        <ele>2358.4</ele>
        <time>2017-08-26T13:19:09Z</time>
      </trkpt>
      <trkpt lat="44.10016" lon="7.39039">
        <ele>2357</ele>
        <time>2017-08-26T13:19:24Z</time>
      </trkpt>
      <trkpt lat="44.10016" lon="7.39047">
        <ele>2356</ele>
        <time>2017-08-26T13:19:37Z</time>
      </trkpt>
      <trkpt lat="44.10015" lon="7.39054">
        <ele>2355</ele>
        <time>2017-08-26T13:19:49Z</time>
      </trkpt>
      <trkpt lat="44.10013" lon="7.39065">
        <ele>2353.6</ele>
        <time>2017-08-26T13:20:02Z</time>
      </trkpt>
      <trkpt lat="44.10012" lon="7.39068">
        <ele>2353.1</ele>
        <time>2017-08-26T13:20:15Z</time>
      </trkpt>
      <trkpt lat="44.10008" lon="7.39078">
        <ele>2351.1</ele>
        <time>2017-08-26T13:20:30Z</time>
      </trkpt>
      <trkpt lat="44.10006" lon="7.39082">
        <ele>2350.1</ele>
        <time>2017-08-26T13:20:45Z</time>
      </trkpt>
      <trkpt lat="44.10005" lon="7.39086">
        <ele>2349.3</ele>
        <time>2017-08-26T13:20:58Z</time>
      </trkpt>
      <trkpt lat="44.10002" lon="7.39092">
        <ele>2347.7</ele>
        <time>2017-08-26T13:21:12Z</time>
      </trkpt>
      <trkpt lat="44.09999" lon="7.39106">
        <ele>2345.5</ele>
        <time>2017-08-26T13:21:25Z</time>
      </trkpt>
      <trkpt lat="44.09994" lon="7.39114">
        <ele>2344.1</ele>
        <time>2017-08-26T13:21:37Z</time>
      </trkpt>
      <trkpt lat="44.09991" lon="7.39122">
        <ele>2342.4</ele>
        <time>2017-08-26T13:21:47Z</time>
      </trkpt>
      <trkpt lat="44.09984" lon="7.3913">
        <ele>2341.2</ele>
        <time>2017-08-26T13:22:01Z</time>
      </trkpt>
      <trkpt lat="44.0998" lon="7.39136">
        <ele>2340.6</ele>
        <time>2017-08-26T13:22:14Z</time>
      </trkpt>
      <trkpt lat="44.09976" lon="7.39141">
        <ele>2339.5</ele>
        <time>2017-08-26T13:22:29Z</time>
      </trkpt>
      <trkpt lat="44.09979" lon="7.39141">
        <ele>2339.2</ele>
        <time>2017-08-26T13:22:44Z</time>
      </trkpt>
      <trkpt lat="44.0998" lon="7.39144">
        <ele>2337.7</ele>
        <time>2017-08-26T13:22:59Z</time>
      </trkpt>
      <trkpt lat="44.09978" lon="7.39148">
        <ele>2335.9</ele>
        <time>2017-08-26T13:23:03Z</time>
      </trkpt>
      <trkpt lat="44.09975" lon="7.39151">
        <ele>2334.4</ele>
        <time>2017-08-26T13:23:09Z</time>
      </trkpt>
      <trkpt lat="44.09973" lon="7.39153">
        <ele>2333.4</ele>
        <time>2017-08-26T13:23:21Z</time>
      </trkpt>
      <trkpt lat="44.09969" lon="7.39161">
        <ele>2329.4</ele>
        <time>2017-08-26T13:23:33Z</time>
      </trkpt>
      <trkpt lat="44.09962" lon="7.39165">
        <ele>2328.3</ele>
        <time>2017-08-26T13:23:46Z</time>
      </trkpt>
      <trkpt lat="44.09956" lon="7.39169">
        <ele>2326.9</ele>
        <time>2017-08-26T13:23:58Z</time>
      </trkpt>
      <trkpt lat="44.09952" lon="7.39178">
        <ele>2322</ele>
        <time>2017-08-26T13:24:12Z</time>
      </trkpt>
      <trkpt lat="44.09952" lon="7.39179">
        <ele>2321.4</ele>
        <time>2017-08-26T13:24:26Z</time>
      </trkpt>
      <trkpt lat="44.09952" lon="7.39179">
        <ele>2321.4</ele>
        <time>2017-08-26T13:24:46Z</time>
      </trkpt>
      <trkpt lat="44.09951" lon="7.39182">
        <ele>2319.7</ele>
        <time>2017-08-26T13:24:48Z</time>
      </trkpt>
      <trkpt lat="44.09951" lon="7.3919">
        <ele>2314.8</ele>
        <time>2017-08-26T13:24:55Z</time>
      </trkpt>
      <trkpt lat="44.09956" lon="7.39189">
        <ele>2314.7</ele>
        <time>2017-08-26T13:25:01Z</time>
      </trkpt>
      <trkpt lat="44.09955" lon="7.39196">
        <ele>2310.6</ele>
        <time>2017-08-26T13:25:13Z</time>
      </trkpt>
      <trkpt lat="44.09956" lon="7.392">
        <ele>2308.4</ele>
        <time>2017-08-26T13:25:22Z</time>
      </trkpt>
      <trkpt lat="44.09955" lon="7.39205">
        <ele>2305.7</ele>
        <time>2017-08-26T13:25:28Z</time>
      </trkpt>
      <trkpt lat="44.09959" lon="7.39208">
        <ele>2303.9</ele>
        <time>2017-08-26T13:25:40Z</time>
      </trkpt>
      <trkpt lat="44.09952" lon="7.39216">
        <ele>2299.8</ele>
        <time>2017-08-26T13:25:52Z</time>
      </trkpt>
      <trkpt lat="44.09952" lon="7.39218">
        <ele>2298.6</ele>
        <time>2017-08-26T13:25:55Z</time>
      </trkpt>
      <trkpt lat="44.09947" lon="7.39221">
        <ele>2296.8</ele>
        <time>2017-08-26T13:26:04Z</time>
      </trkpt>
      <trkpt lat="44.09946" lon="7.39222">
        <ele>2296.2</ele>
        <time>2017-08-26T13:26:06Z</time>
      </trkpt>
      <trkpt lat="44.09945" lon="7.39223">
        <ele>2295.5</ele>
        <time>2017-08-26T13:26:25Z</time>
      </trkpt>
      <trkpt lat="44.09945" lon="7.39224">
        <ele>2294.9</ele>
        <time>2017-08-26T13:26:43Z</time>
      </trkpt>
      <trkpt lat="44.09939" lon="7.3923">
        <ele>2290.8</ele>
        <time>2017-08-26T13:26:59Z</time>
      </trkpt>
      <trkpt lat="44.09934" lon="7.39238">
        <ele>2285.6</ele>
        <time>2017-08-26T13:27:12Z</time>
      </trkpt>
      <trkpt lat="44.09925" lon="7.39238">
        <ele>2285.5</ele>
        <time>2017-08-26T13:27:25Z</time>
      </trkpt>
      <trkpt lat="44.09922" lon="7.39241">
        <ele>2283.6</ele>
        <time>2017-08-26T13:27:30Z</time>
      </trkpt>
      <trkpt lat="44.09911" lon="7.39243">
        <ele>2282.8</ele>
        <time>2017-08-26T13:27:43Z</time>
      </trkpt>
      <trkpt lat="44.099" lon="7.39247">
        <ele>2280.9</ele>
        <time>2017-08-26T13:27:57Z</time>
      </trkpt>
      <trkpt lat="44.09898" lon="7.39249">
        <ele>2279.5</ele>
        <time>2017-08-26T13:28:18Z</time>
      </trkpt>
      <trkpt lat="44.0989" lon="7.39253">
        <ele>2276.8</ele>
        <time>2017-08-26T13:28:30Z</time>
      </trkpt>
      <trkpt lat="44.09887" lon="7.39255">
        <ele>2276.2</ele>
        <time>2017-08-26T13:28:34Z</time>
      </trkpt>
      <trkpt lat="44.09883" lon="7.39259">
        <ele>2274.9</ele>
        <time>2017-08-26T13:28:41Z</time>
      </trkpt>
      <trkpt lat="44.0988" lon="7.39266">
        <ele>2271</ele>
        <time>2017-08-26T13:28:53Z</time>
      </trkpt>
      <trkpt lat="44.09872" lon="7.39272">
        <ele>2269.5</ele>
        <time>2017-08-26T13:29:07Z</time>
      </trkpt>
      <trkpt lat="44.09872" lon="7.39275">
        <ele>2267.2</ele>
        <time>2017-08-26T13:29:12Z</time>
      </trkpt>
      <trkpt lat="44.09865" lon="7.39283">
        <ele>2263.8</ele>
        <time>2017-08-26T13:29:26Z</time>
      </trkpt>
      <trkpt lat="44.09864" lon="7.39287">
        <ele>2261.2</ele>
        <time>2017-08-26T13:29:38Z</time>
      </trkpt>
      <trkpt lat="44.09864" lon="7.39292">
        <ele>2257.5</ele>
        <time>2017-08-26T13:29:43Z</time>
      </trkpt>
      <trkpt lat="44.09864" lon="7.39297">
        <ele>2253.9</ele>
        <time>2017-08-26T13:29:47Z</time>
      </trkpt>
      <trkpt lat="44.09864" lon="7.39304">
        <ele>2248.7</ele>
        <time>2017-08-26T13:29:59Z</time>
      </trkpt>
      <trkpt lat="44.09858" lon="7.39309">
        <ele>2246</ele>
        <time>2017-08-26T13:30:12Z</time>
      </trkpt>
      <trkpt lat="44.09857" lon="7.3931">
        <ele>2245.4</ele>
        <time>2017-08-26T13:30:35Z</time>
      </trkpt>
      <trkpt lat="44.09844" lon="7.39315">
        <ele>2242.9</ele>
        <time>2017-08-26T13:30:49Z</time>
      </trkpt>
      <trkpt lat="44.09839" lon="7.3932">
        <ele>2239.8</ele>
        <time>2017-08-26T13:31:01Z</time>
      </trkpt>
      <trkpt lat="44.09842" lon="7.39323">
        <ele>2237.6</ele>
        <time>2017-08-26T13:31:06Z</time>
      </trkpt>
      <trkpt lat="44.09843" lon="7.39325">
        <ele>2236.2</ele>
        <time>2017-08-26T13:31:08Z</time>
      </trkpt>
      <trkpt lat="44.0985" lon="7.39327">
        <ele>2234.6</ele>
        <time>2017-08-26T13:31:15Z</time>
      </trkpt>
      <trkpt lat="44.09847" lon="7.39333">
        <ele>2230.7</ele>
        <time>2017-08-26T13:31:26Z</time>
      </trkpt>
      <trkpt lat="44.09845" lon="7.39341">
        <ele>2226.6</ele>
        <time>2017-08-26T13:31:38Z</time>
      </trkpt>
      <trkpt lat="44.09843" lon="7.39346">
        <ele>2224.1</ele>
        <time>2017-08-26T13:31:50Z</time>
      </trkpt>
      <trkpt lat="44.09842" lon="7.39346">
        <ele>2224.2</ele>
        <time>2017-08-26T13:31:55Z</time>
      </trkpt>
      <trkpt lat="44.09843" lon="7.39352">
        <ele>2221</ele>
        <time>2017-08-26T13:32:11Z</time>
      </trkpt>
      <trkpt lat="44.09844" lon="7.39361">
        <ele>2216.3</ele>
        <time>2017-08-26T13:32:24Z</time>
      </trkpt>
      <trkpt lat="44.09842" lon="7.39365">
        <ele>2214.3</ele>
        <time>2017-08-26T13:32:29Z</time>
      </trkpt>
      <trkpt lat="44.09835" lon="7.39373">
        <ele>2210.5</ele>
        <time>2017-08-26T13:32:44Z</time>
      </trkpt>
      <trkpt lat="44.09835" lon="7.39377">
        <ele>2208.3</ele>
        <time>2017-08-26T13:32:58Z</time>
      </trkpt>
      <trkpt lat="44.09844" lon="7.3938">
        <ele>2206</ele>
        <time>2017-08-26T13:33:12Z</time>
      </trkpt>
      <trkpt lat="44.09844" lon="7.39381">
        <ele>2205.5</ele>
        <time>2017-08-26T13:33:13Z</time>
      </trkpt>
      <trkpt lat="44.09844" lon="7.39386">
        <ele>2202.8</ele>
        <time>2017-08-26T13:33:20Z</time>
      </trkpt>
      <trkpt lat="44.09842" lon="7.3939">
        <ele>2200.9</ele>
        <time>2017-08-26T13:33:26Z</time>
      </trkpt>
      <trkpt lat="44.0984" lon="7.39393">
        <ele>2199.7</ele>
        <time>2017-08-26T13:33:39Z</time>
      </trkpt>
      <trkpt lat="44.09839" lon="7.39394">
        <ele>2199.3</ele>
        <time>2017-08-26T13:33:50Z</time>
      </trkpt>
      <trkpt lat="44.09828" lon="7.39402">
        <ele>2196.4</ele>
        <time>2017-08-26T13:34:03Z</time>
      </trkpt>
      <trkpt lat="44.09821" lon="7.39411">
        <ele>2193</ele>
        <time>2017-08-26T13:34:16Z</time>
      </trkpt>
      <trkpt lat="44.09818" lon="7.39415">
        <ele>2191.4</ele>
        <time>2017-08-26T13:34:22Z</time>
      </trkpt>
      <trkpt lat="44.09818" lon="7.39416">
        <ele>2191</ele>
        <time>2017-08-26T13:34:24Z</time>
      </trkpt>
      <trkpt lat="44.0981" lon="7.39425">
        <ele>2187.6</ele>
        <time>2017-08-26T13:34:36Z</time>
      </trkpt>
      <trkpt lat="44.09807" lon="7.3943">
        <ele>2185.6</ele>
        <time>2017-08-26T13:34:49Z</time>
      </trkpt>
      <trkpt lat="44.09807" lon="7.39432">
        <ele>2184.7</ele>
        <time>2017-08-26T13:34:51Z</time>
      </trkpt>
      <trkpt lat="44.09808" lon="7.39438">
        <ele>2181.8</ele>
        <time>2017-08-26T13:34:56Z</time>
      </trkpt>
      <trkpt lat="44.09806" lon="7.39441">
        <ele>2180.6</ele>
        <time>2017-08-26T13:35:01Z</time>
      </trkpt>
      <trkpt lat="44.09801" lon="7.39449">
        <ele>2176.3</ele>
        <time>2017-08-26T13:35:14Z</time>
      </trkpt>
      <trkpt lat="44.09796" lon="7.39452">
        <ele>2174.4</ele>
        <time>2017-08-26T13:35:29Z</time>
      </trkpt>
      <trkpt lat="44.09794" lon="7.39459">
        <ele>2171.1</ele>
        <time>2017-08-26T13:35:39Z</time>
      </trkpt>
      <trkpt lat="44.09792" lon="7.39463">
        <ele>2169.2</ele>
        <time>2017-08-26T13:35:50Z</time>
      </trkpt>
      <trkpt lat="44.09792" lon="7.39464">
        <ele>2168.7</ele>
        <time>2017-08-26T13:36:06Z</time>
      </trkpt>
      <trkpt lat="44.09792" lon="7.39464">
        <ele>2168.7</ele>
        <time>2017-08-26T13:36:30Z</time>
      </trkpt>
      <trkpt lat="44.09792" lon="7.39464">
        <ele>2168.7</ele>
        <time>2017-08-26T13:36:48Z</time>
      </trkpt>
      <trkpt lat="44.09792" lon="7.39464">
        <ele>2168.7</ele>
        <time>2017-08-26T13:37:15Z</time>
      </trkpt>
      <trkpt lat="44.09792" lon="7.39464">
        <ele>2168.7</ele>
        <time>2017-08-26T13:37:49Z</time>
      </trkpt>
      <trkpt lat="44.0979" lon="7.39462">
        <ele>2169.5</ele>
        <time>2017-08-26T13:38:16Z</time>
      </trkpt>
      <trkpt lat="44.0979" lon="7.39462">
        <ele>2169.5</ele>
        <time>2017-08-26T13:38:26Z</time>
      </trkpt>
      <trkpt lat="44.09797" lon="7.3947">
        <ele>2166</ele>
        <time>2017-08-26T13:38:37Z</time>
      </trkpt>
      <trkpt lat="44.09804" lon="7.39475">
        <ele>2163.8</ele>
        <time>2017-08-26T13:38:45Z</time>
      </trkpt>
      <trkpt lat="44.09813" lon="7.39479">
        <ele>2162.3</ele>
        <time>2017-08-26T13:38:52Z</time>
      </trkpt>
      <trkpt lat="44.09818" lon="7.39479">
        <ele>2162.5</ele>
        <time>2017-08-26T13:38:56Z</time>
      </trkpt>
      <trkpt lat="44.09828" lon="7.39484">
        <ele>2161.3</ele>
        <time>2017-08-26T13:39:10Z</time>
      </trkpt>
      <trkpt lat="44.09829" lon="7.39488">
        <ele>2160.1</ele>
        <time>2017-08-26T13:39:14Z</time>
      </trkpt>
      <trkpt lat="44.09835" lon="7.39496">
        <ele>2159</ele>
        <time>2017-08-26T13:39:26Z</time>
      </trkpt>
      <trkpt lat="44.09844" lon="7.39502">
        <ele>2161.4</ele>
        <time>2017-08-26T13:39:41Z</time>
      </trkpt>
      <trkpt lat="44.09849" lon="7.39505">
        <ele>2162.7</ele>
        <time>2017-08-26T13:39:48Z</time>
      </trkpt>
      <trkpt lat="44.09858" lon="7.39513">
        <ele>2163.6</ele>
        <time>2017-08-26T13:40:02Z</time>
      </trkpt>
      <trkpt lat="44.09855" lon="7.39518">
        <ele>2160.6</ele>
        <time>2017-08-26T13:40:12Z</time>
      </trkpt>
      <trkpt lat="44.0986" lon="7.39532">
        <ele>2157.8</ele>
        <time>2017-08-26T13:40:25Z</time>
      </trkpt>
      <trkpt lat="44.09861" lon="7.39534">
        <ele>2157.8</ele>
        <time>2017-08-26T13:40:27Z</time>
      </trkpt>
      <trkpt lat="44.09864" lon="7.39546">
        <ele>2157.7</ele>
        <time>2017-08-26T13:40:40Z</time>
      </trkpt>
      <trkpt lat="44.09869" lon="7.39559">
        <ele>2157.5</ele>
        <time>2017-08-26T13:40:54Z</time>
      </trkpt>
      <trkpt lat="44.09871" lon="7.39562">
        <ele>2157.8</ele>
        <time>2017-08-26T13:41:01Z</time>
      </trkpt>
      <trkpt lat="44.09872" lon="7.39566">
        <ele>2157.1</ele>
        <time>2017-08-26T13:41:20Z</time>
      </trkpt>
      <trkpt lat="44.09875" lon="7.39581">
        <ele>2154.2</ele>
        <time>2017-08-26T13:41:33Z</time>
      </trkpt>
      <trkpt lat="44.09876" lon="7.39583">
        <ele>2154.1</ele>
        <time>2017-08-26T13:41:50Z</time>
      </trkpt>
      <trkpt lat="44.09878" lon="7.39587">
        <ele>2154.6</ele>
        <time>2017-08-26T13:42:00Z</time>
      </trkpt>
      <trkpt lat="44.09883" lon="7.39595">
        <ele>2156.2</ele>
        <time>2017-08-26T13:42:07Z</time>
      </trkpt>
      <trkpt lat="44.09886" lon="7.39599">
        <ele>2157.2</ele>
        <time>2017-08-26T13:42:11Z</time>
      </trkpt>
      <trkpt lat="44.09884" lon="7.39619">
        <ele>2154.5</ele>
        <time>2017-08-26T13:42:26Z</time>
      </trkpt>
      <trkpt lat="44.09883" lon="7.39631">
        <ele>2154</ele>
        <time>2017-08-26T13:42:40Z</time>
      </trkpt>
      <trkpt lat="44.09884" lon="7.39636">
        <ele>2154.5</ele>
        <time>2017-08-26T13:42:44Z</time>
      </trkpt>
      <trkpt lat="44.09885" lon="7.39649">
        <ele>2155.1</ele>
        <time>2017-08-26T13:42:55Z</time>
      </trkpt>
      <trkpt lat="44.09891" lon="7.39662">
        <ele>2157.8</ele>
        <time>2017-08-26T13:43:06Z</time>
      </trkpt>
      <trkpt lat="44.09892" lon="7.39667">
        <ele>2158.1</ele>
        <time>2017-08-26T13:43:18Z</time>
      </trkpt>
      <trkpt lat="44.09893" lon="7.3967">
        <ele>2158.3</ele>
        <time>2017-08-26T13:43:43Z</time>
      </trkpt>
      <trkpt lat="44.09895" lon="7.39675">
        <ele>2158.8</ele>
        <time>2017-08-26T13:43:49Z</time>
      </trkpt>
      <trkpt lat="44.09896" lon="7.39692">
        <ele>2158.2</ele>
        <time>2017-08-26T13:44:04Z</time>
      </trkpt>
      <trkpt lat="44.09896" lon="7.39696">
        <ele>2157.9</ele>
        <time>2017-08-26T13:44:07Z</time>
      </trkpt>
      <trkpt lat="44.09898" lon="7.397">
        <ele>2158.1</ele>
        <time>2017-08-26T13:44:10Z</time>
      </trkpt>
      <trkpt lat="44.09913" lon="7.39703">
        <ele>2161.3</ele>
        <time>2017-08-26T13:44:26Z</time>
      </trkpt>
      <trkpt lat="44.09931" lon="7.39694">
        <ele>2165.1</ele>
        <time>2017-08-26T13:44:43Z</time>
      </trkpt>
      <trkpt lat="44.09939" lon="7.39685">
        <ele>2167.4</ele>
        <time>2017-08-26T13:44:56Z</time>
      </trkpt>
      <trkpt lat="44.09946" lon="7.39683">
        <ele>2168.5</ele>
        <time>2017-08-26T13:45:04Z</time>
      </trkpt>
      <trkpt lat="44.0995" lon="7.39678">
        <ele>2169.8</ele>
        <time>2017-08-26T13:45:15Z</time>
      </trkpt>
      <trkpt lat="44.09953" lon="7.39676">
        <ele>2170.3</ele>
        <time>2017-08-26T13:45:21Z</time>
      </trkpt>
      <trkpt lat="44.09954" lon="7.39674">
        <ele>2170.8</ele>
        <time>2017-08-26T13:45:23Z</time>
      </trkpt>
      <trkpt lat="44.0995" lon="7.39669">
        <ele>2171.7</ele>
        <time>2017-08-26T13:45:31Z</time>
      </trkpt>
      <trkpt lat="44.09949" lon="7.39668">
        <ele>2171.9</ele>
        <time>2017-08-26T13:45:32Z</time>
      </trkpt>
      <trkpt lat="44.09951" lon="7.3966">
        <ele>2173.9</ele>
        <time>2017-08-26T13:45:48Z</time>
      </trkpt>
      <trkpt lat="44.09946" lon="7.39648">
        <ele>2176.2</ele>
        <time>2017-08-26T13:46:00Z</time>
      </trkpt>
      <trkpt lat="44.09952" lon="7.39645">
        <ele>2177.8</ele>
        <time>2017-08-26T13:46:14Z</time>
      </trkpt>
      <trkpt lat="44.0996" lon="7.39639">
        <ele>2180.8</ele>
        <time>2017-08-26T13:46:28Z</time>
      </trkpt>
      <trkpt lat="44.09961" lon="7.3964">
        <ele>2180.6</ele>
        <time>2017-08-26T13:46:30Z</time>
      </trkpt>
      <trkpt lat="44.09976" lon="7.39643">
        <ele>2181.9</ele>
        <time>2017-08-26T13:46:47Z</time>
      </trkpt>
      <trkpt lat="44.0998" lon="7.39641">
        <ele>2183.1</ele>
        <time>2017-08-26T13:47:00Z</time>
      </trkpt>
      <trkpt lat="44.09989" lon="7.39644">
        <ele>2183</ele>
        <time>2017-08-26T13:47:12Z</time>
      </trkpt>
      <trkpt lat="44.10003" lon="7.39641">
        <ele>2185.8</ele>
        <time>2017-08-26T13:47:29Z</time>
      </trkpt>
      <trkpt lat="44.10012" lon="7.39636">
        <ele>2189.4</ele>
        <time>2017-08-26T13:47:42Z</time>
      </trkpt>
      <trkpt lat="44.10028" lon="7.39639">
        <ele>2191</ele>
        <time>2017-08-26T13:48:01Z</time>
      </trkpt>
      <trkpt lat="44.10044" lon="7.39634">
        <ele>2194.9</ele>
        <time>2017-08-26T13:48:18Z</time>
      </trkpt>
      <trkpt lat="44.10053" lon="7.39629">
        <ele>2198</ele>
        <time>2017-08-26T13:48:32Z</time>
      </trkpt>
      <trkpt lat="44.10053" lon="7.39629">
        <ele>2198</ele>
        <time>2017-08-26T13:48:47Z</time>
      </trkpt>
      <trkpt lat="44.10053" lon="7.39629">
        <ele>2198</ele>
        <time>2017-08-26T13:49:01Z</time>
      </trkpt>
      <trkpt lat="44.10055" lon="7.39629">
        <ele>2198.2</ele>
        <time>2017-08-26T13:49:17Z</time>
      </trkpt>
      <trkpt lat="44.10062" lon="7.39627">
        <ele>2199</ele>
        <time>2017-08-26T13:49:31Z</time>
      </trkpt>
      <trkpt lat="44.10067" lon="7.39626">
        <ele>2199.4</ele>
        <time>2017-08-26T13:49:35Z</time>
      </trkpt>
      <trkpt lat="44.10085" lon="7.39632">
        <ele>2196.7</ele>
        <time>2017-08-26T13:49:51Z</time>
      </trkpt>
      <trkpt lat="44.10089" lon="7.39627">
        <ele>2198.4</ele>
        <time>2017-08-26T13:49:57Z</time>
      </trkpt>
      <trkpt lat="44.10106" lon="7.39607">
        <ele>2205.1</ele>
        <time>2017-08-26T13:50:14Z</time>
      </trkpt>
      <trkpt lat="44.10114" lon="7.39604">
        <ele>2205.9</ele>
        <time>2017-08-26T13:50:22Z</time>
      </trkpt>
      <trkpt lat="44.10127" lon="7.396">
        <ele>2206.1</ele>
        <time>2017-08-26T13:50:34Z</time>
      </trkpt>
      <trkpt lat="44.10144" lon="7.39604">
        <ele>2201.3</ele>
        <time>2017-08-26T13:50:50Z</time>
      </trkpt>
      <trkpt lat="44.10165" lon="7.39605">
        <ele>2198.5</ele>
        <time>2017-08-26T13:51:05Z</time>
      </trkpt>
      <trkpt lat="44.10185" lon="7.39601">
        <ele>2196.7</ele>
        <time>2017-08-26T13:51:19Z</time>
      </trkpt>
      <trkpt lat="44.10195" lon="7.39598">
        <ele>2196.1</ele>
        <time>2017-08-26T13:51:28Z</time>
      </trkpt>
      <trkpt lat="44.10208" lon="7.39596">
        <ele>2195.3</ele>
        <time>2017-08-26T13:51:40Z</time>
      </trkpt>
      <trkpt lat="44.10219" lon="7.39598">
        <ele>2193.1</ele>
        <time>2017-08-26T13:51:49Z</time>
      </trkpt>
      <trkpt lat="44.10228" lon="7.39586">
        <ele>2196.9</ele>
        <time>2017-08-26T13:52:04Z</time>
      </trkpt>
      <trkpt lat="44.1024" lon="7.39581">
        <ele>2198.4</ele>
        <time>2017-08-26T13:52:19Z</time>
      </trkpt>
      <trkpt lat="44.10242" lon="7.39581">
        <ele>2198.3</ele>
        <time>2017-08-26T13:52:23Z</time>
      </trkpt>
      <trkpt lat="44.1025" lon="7.39588">
        <ele>2195.5</ele>
        <time>2017-08-26T13:52:38Z</time>
      </trkpt>
      <trkpt lat="44.1025" lon="7.39588">
        <ele>2195.5</ele>
        <time>2017-08-26T13:53:00Z</time>
      </trkpt>
      <trkpt lat="44.1025" lon="7.39588">
        <ele>2195.5</ele>
        <time>2017-08-26T13:53:22Z</time>
      </trkpt>
      <trkpt lat="44.10252" lon="7.39589">
        <ele>2195.4</ele>
        <time>2017-08-26T13:53:31Z</time>
      </trkpt>
      <trkpt lat="44.10253" lon="7.39589">
        <ele>2195.6</ele>
        <time>2017-08-26T13:53:33Z</time>
      </trkpt>
      <trkpt lat="44.10257" lon="7.39593">
        <ele>2194.8</ele>
        <time>2017-08-26T13:53:37Z</time>
      </trkpt>
      <trkpt lat="44.10258" lon="7.39595">
        <ele>2194.3</ele>
        <time>2017-08-26T13:53:40Z</time>
      </trkpt>
      <trkpt lat="44.10262" lon="7.39599">
        <ele>2193.4</ele>
        <time>2017-08-26T13:53:43Z</time>
      </trkpt>
      <trkpt lat="44.10267" lon="7.39601">
        <ele>2193.3</ele>
        <time>2017-08-26T13:53:48Z</time>
      </trkpt>
      <trkpt lat="44.10272" lon="7.39603">
        <ele>2193.2</ele>
        <time>2017-08-26T13:53:52Z</time>
      </trkpt>
      <trkpt lat="44.10287" lon="7.39606">
        <ele>2193.9</ele>
        <time>2017-08-26T13:54:06Z</time>
      </trkpt>
      <trkpt lat="44.103" lon="7.39609">
        <ele>2194.2</ele>
        <time>2017-08-26T13:54:19Z</time>
      </trkpt>
      <trkpt lat="44.10307" lon="7.39612">
        <ele>2193.8</ele>
        <time>2017-08-26T13:54:29Z</time>
      </trkpt>
      <trkpt lat="44.10316" lon="7.39615">
        <ele>2193.5</ele>
        <time>2017-08-26T13:54:42Z</time>
      </trkpt>
      <trkpt lat="44.10329" lon="7.39618">
        <ele>2193.7</ele>
        <time>2017-08-26T13:54:55Z</time>
      </trkpt>
      <trkpt lat="44.10335" lon="7.39619">
        <ele>2193.8</ele>
        <time>2017-08-26T13:55:01Z</time>
      </trkpt>
      <trkpt lat="44.10345" lon="7.39621">
        <ele>2194</ele>
        <time>2017-08-26T13:55:17Z</time>
      </trkpt>
      <trkpt lat="44.10353" lon="7.39619">
        <ele>2195.1</ele>
        <time>2017-08-26T13:55:28Z</time>
      </trkpt>
      <trkpt lat="44.10362" lon="7.39618">
        <ele>2196.1</ele>
        <time>2017-08-26T13:55:40Z</time>
      </trkpt>
      <trkpt lat="44.10371" lon="7.3962">
        <ele>2196.4</ele>
        <time>2017-08-26T13:55:49Z</time>
      </trkpt>
      <trkpt lat="44.10373" lon="7.39621">
        <ele>2196.3</ele>
        <time>2017-08-26T13:55:51Z</time>
      </trkpt>
      <trkpt lat="44.10375" lon="7.39622">
        <ele>2196.2</ele>
        <time>2017-08-26T13:55:52Z</time>
      </trkpt>
      <trkpt lat="44.10387" lon="7.39625">
        <ele>2196.3</ele>
        <time>2017-08-26T13:56:05Z</time>
      </trkpt>
      <trkpt lat="44.10391" lon="7.39629">
        <ele>2195.8</ele>
        <time>2017-08-26T13:56:11Z</time>
      </trkpt>
      <trkpt lat="44.10394" lon="7.39632">
        <ele>2195.6</ele>
        <time>2017-08-26T13:56:13Z</time>
      </trkpt>
      <trkpt lat="44.10409" lon="7.39635">
        <ele>2198.2</ele>
        <time>2017-08-26T13:56:28Z</time>
      </trkpt>
      <trkpt lat="44.10422" lon="7.39641">
        <ele>2199.5</ele>
        <time>2017-08-26T13:56:44Z</time>
      </trkpt>
      <trkpt lat="44.10423" lon="7.39642">
        <ele>2199.6</ele>
        <time>2017-08-26T13:56:46Z</time>
      </trkpt>
      <trkpt lat="44.10428" lon="7.39648">
        <ele>2199.6</ele>
        <time>2017-08-26T13:56:53Z</time>
      </trkpt>
      <trkpt lat="44.10434" lon="7.39652">
        <ele>2200.5</ele>
        <time>2017-08-26T13:57:00Z</time>
      </trkpt>
      <trkpt lat="44.10441" lon="7.39663">
        <ele>2199.2</ele>
        <time>2017-08-26T13:57:12Z</time>
      </trkpt>
      <trkpt lat="44.10448" lon="7.39674">
        <ele>2197.8</ele>
        <time>2017-08-26T13:57:26Z</time>
      </trkpt>
      <trkpt lat="44.1045" lon="7.39686">
        <ele>2195.6</ele>
        <time>2017-08-26T13:57:40Z</time>
      </trkpt>
      <trkpt lat="44.1045" lon="7.39689">
        <ele>2195.1</ele>
        <time>2017-08-26T13:57:42Z</time>
      </trkpt>
      <trkpt lat="44.10452" lon="7.39705">
        <ele>2193.5</ele>
        <time>2017-08-26T13:57:55Z</time>
      </trkpt>
      <trkpt lat="44.10454" lon="7.39722">
        <ele>2192.4</ele>
        <time>2017-08-26T13:58:10Z</time>
      </trkpt>
      <trkpt lat="44.10456" lon="7.39726">
        <ele>2192.6</ele>
        <time>2017-08-26T13:58:22Z</time>
      </trkpt>
      <trkpt lat="44.1046" lon="7.39728">
        <ele>2193.3</ele>
        <time>2017-08-26T13:58:26Z</time>
      </trkpt>
      <trkpt lat="44.10469" lon="7.39735">
        <ele>2194.9</ele>
        <time>2017-08-26T13:58:40Z</time>
      </trkpt>
      <trkpt lat="44.10471" lon="7.39739">
        <ele>2195.4</ele>
        <time>2017-08-26T13:58:44Z</time>
      </trkpt>
      <trkpt lat="44.10474" lon="7.39761">
        <ele>2196.6</ele>
        <time>2017-08-26T13:59:03Z</time>
      </trkpt>
      <trkpt lat="44.10473" lon="7.39764">
        <ele>2196.3</ele>
        <time>2017-08-26T13:59:05Z</time>
      </trkpt>
      <trkpt lat="44.10472" lon="7.39788">
        <ele>2195.9</ele>
        <time>2017-08-26T13:59:24Z</time>
      </trkpt>
      <trkpt lat="44.10472" lon="7.39788">
        <ele>2195.9</ele>
        <time>2017-08-26T13:59:31Z</time>
      </trkpt>
      <trkpt lat="44.10472" lon="7.39792">
        <ele>2195.9</ele>
        <time>2017-08-26T13:59:33Z</time>
      </trkpt>
      <trkpt lat="44.10475" lon="7.39812">
        <ele>2196</ele>
        <time>2017-08-26T13:59:48Z</time>
      </trkpt>
      <trkpt lat="44.1048" lon="7.3983">
        <ele>2195</ele>
        <time>2017-08-26T14:00:03Z</time>
      </trkpt>
      <trkpt lat="44.10481" lon="7.39837">
        <ele>2194.5</ele>
        <time>2017-08-26T14:00:10Z</time>
      </trkpt>
      <trkpt lat="44.10486" lon="7.39854">
        <ele>2194.6</ele>
        <time>2017-08-26T14:00:26Z</time>
      </trkpt>
      <trkpt lat="44.10489" lon="7.39866">
        <ele>2194.4</ele>
        <time>2017-08-26T14:00:39Z</time>
      </trkpt>
      <trkpt lat="44.10494" lon="7.39882">
        <ele>2194.3</ele>
        <time>2017-08-26T14:00:54Z</time>
      </trkpt>
      <trkpt lat="44.10496" lon="7.39893">
        <ele>2194</ele>
        <time>2017-08-26T14:01:05Z</time>
      </trkpt>
      <trkpt lat="44.10499" lon="7.39901">
        <ele>2194.4</ele>
        <time>2017-08-26T14:01:10Z</time>
      </trkpt>
      <trkpt lat="44.10502" lon="7.39923">
        <ele>2194</ele>
        <time>2017-08-26T14:01:27Z</time>
      </trkpt>
      <trkpt lat="44.10504" lon="7.39943">
        <ele>2193</ele>
        <time>2017-08-26T14:01:40Z</time>
      </trkpt>
      <trkpt lat="44.10505" lon="7.39947">
        <ele>2193.2</ele>
        <time>2017-08-26T14:01:43Z</time>
      </trkpt>
      <trkpt lat="44.10505" lon="7.3995">
        <ele>2193.4</ele>
        <time>2017-08-26T14:01:46Z</time>
      </trkpt>
      <trkpt lat="44.10502" lon="7.39972">
        <ele>2194.3</ele>
        <time>2017-08-26T14:02:02Z</time>
      </trkpt>
      <trkpt lat="44.10508" lon="7.39995">
        <ele>2196</ele>
        <time>2017-08-26T14:02:19Z</time>
      </trkpt>
      <trkpt lat="44.10516" lon="7.40015">
        <ele>2197.6</ele>
        <time>2017-08-26T14:02:33Z</time>
      </trkpt>
      <trkpt lat="44.10518" lon="7.40035">
        <ele>2198.5</ele>
        <time>2017-08-26T14:02:48Z</time>
      </trkpt>
      <trkpt lat="44.10516" lon="7.40035">
        <ele>2198.8</ele>
        <time>2017-08-26T14:02:50Z</time>
      </trkpt>
      <trkpt lat="44.10509" lon="7.40035">
        <ele>2199.7</ele>
        <time>2017-08-26T14:02:56Z</time>
      </trkpt>
      <trkpt lat="44.10513" lon="7.40055">
        <ele>2202.2</ele>
        <time>2017-08-26T14:03:11Z</time>
      </trkpt>
      <trkpt lat="44.10511" lon="7.40057">
        <ele>2203.2</ele>
        <time>2017-08-26T14:03:16Z</time>
      </trkpt>
      <trkpt lat="44.10508" lon="7.40056">
        <ele>2203.8</ele>
        <time>2017-08-26T14:03:20Z</time>
      </trkpt>
      <trkpt lat="44.10507" lon="7.40056">
        <ele>2204.1</ele>
        <time>2017-08-26T14:03:21Z</time>
      </trkpt>
      <trkpt lat="44.10505" lon="7.40057">
        <ele>2205</ele>
        <time>2017-08-26T14:03:23Z</time>
      </trkpt>
      <trkpt lat="44.10501" lon="7.40054">
        <ele>2205.3</ele>
        <time>2017-08-26T14:03:26Z</time>
      </trkpt>
      <trkpt lat="44.10498" lon="7.40053">
        <ele>2206.1</ele>
        <time>2017-08-26T14:03:29Z</time>
      </trkpt>
      <trkpt lat="44.10495" lon="7.40055">
        <ele>2207.8</ele>
        <time>2017-08-26T14:03:31Z</time>
      </trkpt>
      <trkpt lat="44.1049" lon="7.40053">
        <ele>2209.3</ele>
        <time>2017-08-26T14:03:35Z</time>
      </trkpt>
      <trkpt lat="44.1048" lon="7.40051">
        <ele>2212.7</ele>
        <time>2017-08-26T14:03:44Z</time>
      </trkpt>
      <trkpt lat="44.10468" lon="7.40048">
        <ele>2216.1</ele>
        <time>2017-08-26T14:03:59Z</time>
      </trkpt>
      <trkpt lat="44.10471" lon="7.4006">
        <ele>2218.6</ele>
        <time>2017-08-26T14:04:14Z</time>
      </trkpt>
      <trkpt lat="44.10465" lon="7.40068">
        <ele>2222.1</ele>
        <time>2017-08-26T14:04:28Z</time>
      </trkpt>
      <trkpt lat="44.10456" lon="7.40057">
        <ele>2221.4</ele>
        <time>2017-08-26T14:04:46Z</time>
      </trkpt>
      <trkpt lat="44.10447" lon="7.40045">
        <ele>2222</ele>
        <time>2017-08-26T14:04:59Z</time>
      </trkpt>
      <trkpt lat="44.10444" lon="7.40039">
        <ele>2222.2</ele>
        <time>2017-08-26T14:05:10Z</time>
      </trkpt>
      <trkpt lat="44.10443" lon="7.40046">
        <ele>2223</ele>
        <time>2017-08-26T14:05:29Z</time>
      </trkpt>
      <trkpt lat="44.10441" lon="7.40047">
        <ele>2223.3</ele>
        <time>2017-08-26T14:05:46Z</time>
      </trkpt>
      <trkpt lat="44.10443" lon="7.40048">
        <ele>2223.3</ele>
        <time>2017-08-26T14:06:02Z</time>
      </trkpt>
      <trkpt lat="44.10444" lon="7.40047">
        <ele>2223.1</ele>
        <time>2017-08-26T14:06:12Z</time>
      </trkpt>
      <trkpt lat="44.10455" lon="7.40045">
        <ele>2219.5</ele>
        <time>2017-08-26T14:34:32Z</time>
      </trkpt>
      <trkpt lat="44.10455" lon="7.40046">
        <ele>2219.7</ele>
        <time>2017-08-26T14:34:33Z</time>
      </trkpt>
      <trkpt lat="44.10454" lon="7.40043">
        <ele>2219.5</ele>
        <time>2017-08-26T14:35:03Z</time>
      </trkpt>
      <trkpt lat="44.10452" lon="7.40043">
        <ele>2220.1</ele>
        <time>2017-08-26T14:35:37Z</time>
      </trkpt>
      <trkpt lat="44.10453" lon="7.40042">
        <ele>2219.6</ele>
        <time>2017-08-26T14:36:05Z</time>
      </trkpt>
      <trkpt lat="44.10453" lon="7.40042">
        <ele>2219.6</ele>
        <time>2017-08-26T14:36:34Z</time>
      </trkpt>
      <trkpt lat="44.10453" lon="7.40042">
        <ele>2219.6</ele>
        <time>2017-08-26T14:36:43Z</time>
      </trkpt>
      <trkpt lat="44.10455" lon="7.40041">
        <ele>2218.8</ele>
        <time>2017-08-26T14:44:15Z</time>
      </trkpt>
      <trkpt lat="44.10454" lon="7.40042">
        <ele>2219.3</ele>
        <time>2017-08-26T14:44:17Z</time>
      </trkpt>
      <trkpt lat="44.10452" lon="7.40044">
        <ele>2220.3</ele>
        <time>2017-08-26T14:44:22Z</time>
      </trkpt>
      <trkpt lat="44.10454" lon="7.40041">
        <ele>2219.1</ele>
        <time>2017-08-26T14:44:30Z</time>
      </trkpt>
      <trkpt lat="44.10455" lon="7.4004">
        <ele>2218.6</ele>
        <time>2017-08-26T14:44:44Z</time>
      </trkpt>
      <trkpt lat="44.10453" lon="7.40043">
        <ele>2219.8</ele>
        <time>2017-08-26T14:45:19Z</time>
      </trkpt>
      <trkpt lat="44.10454" lon="7.4004">
        <ele>2218.9</ele>
        <time>2017-08-26T14:45:56Z</time>
      </trkpt>
      <trkpt lat="44.10454" lon="7.4004">
        <ele>2218.9</ele>
        <time>2017-08-26T14:46:24Z</time>
      </trkpt>
      <trkpt lat="44.10454" lon="7.4004">
        <ele>2218.9</ele>
        <time>2017-08-26T14:46:46Z</time>
      </trkpt>
      <trkpt lat="44.10454" lon="7.4004">
        <ele>2218.9</ele>
        <time>2017-08-26T14:46:57Z</time>
      </trkpt>
    </trkseg>
  </trk>
</gpx>